GFSGL_500_rhum_000.txt.gz
RH
50 46 42 40 38 43 58 72 66 59 43 26 35 84 100 100 100 100 100 100 100 98 100 100 96 96 91 90 96 93 84 77 64 63 83 99 100 100 100 100 100 99 79
44 37 32 30 37 68 71 64 50 30 24 35 72 100 100 100 100 100 100 100 96 97 97 97 93 91 82 68 60 54 47 45 46 42 45 60 91 100 100 100 100 100 98
41 41 43 54 67 63 58 41 20 27 53 100 100 100 100 100 100 100 97 98 98 86 51 19 11 9 8 8 7 7 6 7 10 16 22 25 28 41 87 97 100 100 100
52 61 70 62 58 52 36 14 29 65 99 100 100 100 100 98 95 91 84 45 18 14 12 11 11 10 10 10 10 9 9 8 6 4 5 9 13 10 12 36 86 98 100
56 49 45 47 48 26 5 10 62 99 100 93 83 87 90 95 88 36 20 14 12 12 12 10 9 9 9 10 11 11 10 9 9 9 9 8 4 4 6 3 10 40 84
38 38 33 38 16 7 27 84 100 97 91 97 100 100 100 63 31 19 12 12 13 10 9 12 18 18 19 21 31 33 28 29 26 21 8 6 8 9 7 4 2 1 14
41 33 32 17 21 89 100 100 100 100 100 100 100 98 56 31 20 13 13 12 10 10 16 34 34 32 40 56 53 35 38 40 41 38 38 38 31 23 10 8 7 4 1
36 28 14 24 69 100 100 100 100 100 100 100 90 59 34 24 14 14 12 10 11 24 34 30 31 41 54 67 67 70 69 66 51 40 34 46 68 69 52 28 10 8 7
24 12 25 86 100 99 95 95 95 99 98 84 56 35 25 17 14 13 10 9 22 30 42 58 62 74 92 96 85 75 84 86 91 64 67 79 80 83 64 55 53 38 18
8 25 84 100 100 100 100 100 100 93 79 52 34 27 18 14 13 11 9 17 30 50 80 90 95 90 96 100 98 95 98 100 99 92 85 69 79 97 93 50 42 45 50
38 100 100 100 100 100 100 100 91 80 50 31 23 17 14 13 12 10 13 27 46 75 82 89 92 99 99 100 97 85 68 72 98 100 97 91 96 97 98 92 66 40 36
100 100 100 100 100 100 99 91 75 42 25 18 15 14 13 13 11 12 35 57 73 77 77 85 78 72 86 100 100 99 95 100 100 100 100 100 98 100 100 98 98 94 74
100 100 100 100 100 95 85 55 26 18 16 15 14 14 14 11 12 22 82 83 86 76 87 85 80 52 72 85 91 78 85 93 91 98 96 100 97 93 88 91 96 91 87
100 100 100 96 91 62 23 18 17 16 16 15 14 14 13 13 24 95 97 96 100 96 100 97 72 51 42 56 62 64 70 59 38 34 35 51 70 90 85 76 68 67 77
100 100 95 72 30 17 18 17 15 14 13 14 16 16 16 19 82 100 100 100 100 100 100 86 48 34 32 40 57 74 86 89 74 64 65 60 51 59 79 73 66 72 57
100 82 30 19 20 16 15 16 19 25 27 26 24 17 30 77 100 100 100 100 100 100 92 79 51 29 30 48 60 68 61 58 50 56 74 87 97 72 64 64 56 60 62
43 19 22 18 15 15 21 33 45 42 32 22 11 46 67 100 100 100 100 100 100 98 100 94 69 31 34 45 54 54 56 61 63 74 88 90 70 19 73 86 95 100 100
26 21 16 15 20 26 38 46 35 26 28 31 46 58 100 100 100 100 100 100 100 94 100 100 85 69 43 41 49 55 79 88 81 85 82 79 77 24 11 100 100 100 100
17 16 18 24 31 38 46 34 36 63 77 89 72 84 100 100 100 100 100 100 100 100 100 100 99 87 79 55 55 64 79 75 74 68 70 88 88 54 20 10 77 86 90
17 21 26 32 36 46 43 63 95 100 98 97 74 100 100 100 100 100 100 100 100 100 100 100 100 99 92 91 90 88 84 79 78 80 76 68 63 72 53 40 16 32 43
22 28 35 38 51 48 72 100 100 100 100 75 93 100 100 100 100 100 100 100 100 100 100 100 100 100 100 98 99 96 90 80 78 87 92 86 74 84 66 61 52 21 46
28 35 42 51 53 72 100 100 100 100 98 69 97 100 100 100 100 100 100 100 100 100 100 100 100 100 100 96 94 97 96 89 87 90 95 100 98 87 84 86 61 39 28
31 36 44 50 54 97 100 100 98 100 95 81 99 100 100 100 100 100 100 100 100 100 100 100 100 100 100 100 96 93 94 92 92 93 91 93 97 100 99 96 96 100 89
37 44 50 52 71 100 100 100 100 100 97 99 100 100 100 100 100 100 100 100 100 100 100 100 100 100 98 98 100 100 100 100 100 100 90 69 71 92 99 99 100 100 100
40 47 53 63 96 99 100 100 100 100 100 100 100 100 100 100 100 100 100 100 100 100 100 100 100 100 100 100 100 100 100 100 100 94 67 19 1 1 1 11 44 86 99
39 46 61 87 91 97 100 100 100 100 100 100 100 100 100 100 100 100 100 100 100 100 100 100 100 100 100 100 100 100 100 100 100 85 67 38 14 21 28 27 26 24 21

GFSGL_500_rhum_006.txt.gz
RH
39 41 51 77 71 42 37 35 33 18 10 11 6 4 4 2 9 16 26 67 100 100 100 100 100 100 100 100 100 99 95 85 71 62 60 63 72 81 93 100 100 98 87
52 58 64 83 78 89 43 35 22 7 9 20 5 4 13 32 70 99 100 100 100 100 100 100 100 100 100 100 100 94 88 86 80 67 65 62 64 72 75 92 100 97 98
65 48 53 59 94 95 61 26 14 8 13 31 7 45 98 100 100 100 100 100 100 100 100 100 100 100 100 100 97 91 83 73 60 47 38 37 36 31 41 63 88 100 92
26 42 73 90 100 100 87 30 6 6 33 24 85 100 100 100 99 87 88 94 96 96 94 92 91 92 82 63 49 34 20 14 12 11 11 11 11 12 13 15 19 22 80
64 95 100 100 100 96 46 7 5 25 80 99 100 100 100 100 98 98 98 100 100 100 99 91 76 56 35 19 12 12 13 14 13 13 12 12 12 12 11 11 11 11 13
100 100 100 86 56 27 5 6 39 100 100 100 100 100 100 100 100 100 100 100 99 87 70 44 32 22 15 14 14 13 9 6 9 16 19 19 15 10 9 10 11 10 11
99 54 59 56 38 5 12 45 98 100 100 100 100 100 100 100 100 98 92 82 71 50 30 22 14 14 14 12 7 11 18 24 26 30 36 43 40 29 22 12 10 10 10
77 49 88 92 9 15 64 96 95 98 100 100 100 98 95 93 88 85 71 49 29 20 16 14 15 14 9 9 19 27 31 38 53 52 48 54 61 56 33 25 29 21 14
94 44 53 12 43 99 98 98 100 100 100 100 99 90 69 48 37 28 23 17 16 15 16 16 15 9 14 24 30 49 79 98 97 96 92 87 88 89 67 38 24 29 33
43 29 16 63 92 85 87 90 95 97 77 34 23 21 22 23 21 20 19 19 18 18 16 14 10 14 25 40 74 97 96 92 89 100 100 97 88 71 76 83 58 47 36
18 23 71 86 83 85 90 89 50 29 28 26 21 17 14 14 14 15 16 17 17 16 14 14 24 31 48 87 82 61 77 95 99 100 100 87 66 50 46 55 90 77 49
33 84 91 93 92 89 47 30 27 19 16 14 13 15 17 18 14 11 11 13 14 14 26 68 67 62 97 50 43 37 42 51 66 76 70 74 88 85 90 97 86 100 100
81 92 98 97 57 32 27 19 16 15 16 19 22 25 30 33 32 25 17 18 15 56 100 100 83 100 36 47 45 55 58 67 73 87 90 88 46 40 63 100 100 100 100
93 98 83 39 30 21 17 15 18 22 25 28 30 32 32 32 28 31 28 43 100 100 100 96 100 70 49 46 46 47 57 64 65 70 72 52 61 82 81 70 56 97 100
97 75 38 25 21 17 18 20 26 34 38 38 49 71 78 50 18 16 56 100 100 100 100 100 100 89 69 51 47 52 64 47 43 46 59 90 92 86 96 100 93 82 87
70 34 25 21 18 19 21 30 49 52 71 86 99 95 99 60 42 64 100 100 100 100 100 100 100 100 95 64 44 54 56 51 47 38 34 37 55 68 78 75 67 63 98
36 27 24 20 21 24 29 37 44 93 100 94 93 100 88 64 68 100 100 100 100 100 100 100 100 100 100 64 53 60 59 54 50 44 37 38 36 32 36 21 10 16 38
33 28 26 22 23 29 38 44 72 95 100 100 100 100 80 89 100 100 100 100 100 100 100 100 100 100 100 83 68 63 67 63 60 56 44 43 48 55 36 22 15 20 68
36 32 29 24 25 32 40 83 93 98 100 100 100 92 96 99 99 100 100 100 100 100 100 100 100 100 100 100 100 90 80 71 67 62 59 56 59 59 65 66 35 24 27
41 37 35 25 26 33 68 87 96 100 100 100 97 100 100 100 96 100 100 100 100 100 100 100 100 100 100 100 100 100 89 79 71 69 64 66 70 66 64 67 72 52 32
50 44 43 30 26 42 69 79 92 100 100 100 100 100 100 98 95 99 100 100 100 100 100 100 100 100 100 100 100 100 93 90 83 78 74 73 68 74 74 66 69 75 83
61 56 52 41 28 41 64 72 83 96 95 100 100 100 100 100 96 96 99 100 100 100 100 100 100 100 100 100 100 97 94 91 92 86 72 69 25 2 5 28 61 69 74
50 65 65 56 33 35 56 65 74 86 93 100 100 100 100 100 100 99 97 100 100 100 100 100 100 100 100 100 100 100 99 98 97 91 92 84 69 28 21 23 18 16 36
49 66 73 73 50 33 40 55 62 79 90 94 100 100 100 100 100 100 100 100 100 100 100 100 100 100 100 100 100 100 98 97 95 95 89 88 80 62 41 29 29 28 27
58 64 81 80 77 50 35 35 44 58 77 89 96 100 100 100 100 100 100 100 100 100 100 100 100 100 100 100 100 100 100 98 92 90 92 94 94 86 67 39 34 36 36
60 69 85 84 86 83 60 43 37 37 50 73 87 93 100 100 100 100 100 100 100 100 100 100 100 100 100 100 100 100 100 100 96 92 95 100 100 98 85 67 44 40 41

GFSGL_500_rhum_009.txt.gz
RH
50 51 49 51 64 73 39 42 60 53 92 86 77 72 49 16 13 21 30 68 100 100 100 100 100 100 100 100 100 100 100 81 89 93 100 100 83 69 63 64 65 63 59
40 32 32 40 62 50 48 57 85 100 77 27 26 16 7 21 49 95 100 100 100 100 100 100 100 98 93 92 93 89 89 92 88 79 72 64 63 70 67 64 68 71 75
27 27 34 39 52 60 88 97 89 68 52 29 15 11 50 86 100 100 100 100 100 100 97 96 100 100 100 97 100 98 94 89 84 75 71 70 63 61 59 56 56 61 69
33 37 67 82 91 100 100 84 68 69 38 9 39 71 97 100 100 100 100 95 94 96 100 100 99 100 100 100 99 94 86 78 72 66 61 54 44 36 31 33 36 37 35
58 94 92 98 100 100 87 63 29 19 29 75 98 100 100 99 99 100 100 100 100 100 100 100 100 100 99 88 78 66 54 41 30 18 11 11 12 13 13 13 12 13 13
75 100 100 100 59 54 52 21 24 73 91 98 100 100 100 100 100 100 100 100 100 100 100 100 100 90 76 60 43 31 17 10 11 14 15 12 7 7 8 8 9 9 11
40 54 29 15 18 18 17 43 81 84 85 92 96 98 97 93 86 81 77 75 77 81 82 80 68 44 28 21 15 12 14 15 12 9 14 21 25 28 30 30 25 19 12
26 16 15 17 17 21 72 90 87 91 90 88 75 54 42 35 35 33 34 34 33 32 30 26 22 16 14 12 14 16 10 14 22 27 32 39 46 53 55 49 46 42 27
17 15 15 19 34 81 88 88 86 73 44 31 29 28 25 22 20 20 20 21 22 23 22 21 18 16 15 16 17 12 32 62 68 81 85 80 84 88 93 92 85 69 58
13 16 24 35 72 91 86 74 44 32 25 19 17 15 14 14 13 12 12 10 11 12 14 17 19 18 17 15 17 48 86 75 60 70 92 93 88 90 95 100 100 89 87
21 28 50 95 99 91 61 35 23 20 17 16 17 19 21 23 24 22 21 20 14 10 11 13 16 16 14 27 60 37 27 30 32 41 57 68 78 81 90 90 76 63 61
28 55 94 97 86 51 27 23 19 18 18 21 30 37 38 38 35 30 26 25 24 16 18 16 17 21 53 75 62 36 52 57 59 58 55 57 58 64 46 67 89 89 74
40 96 98 83 47 27 24 21 20 21 24 34 38 60 80 86 84 67 30 27 32 24 77 98 98 95 95 77 38 51 55 61 56 58 68 74 82 68 86 66 56 61 98
90 94 84 51 30 27 23 21 23 29 36 38 72 98 96 90 75 52 21 20 41 100 100 100 100 100 91 48 58 55 62 48 44 37 32 35 68 90 69 86 100 93 76
98 89 59 36 31 28 23 23 29 39 61 76 84 86 88 100 89 49 37 84 100 100 100 100 100 100 84 74 66 59 61 53 44 33 26 22 17 29 61 93 100 100 100
98 66 46 36 33 29 23 30 50 83 82 84 92 94 100 86 63 70 100 100 100 100 100 100 100 100 100 86 77 64 66 60 51 39 37 39 39 26 15 16 18 41 80
71 53 45 39 38 32 25 37 76 94 99 89 95 100 94 77 75 100 100 100 100 100 100 100 100 100 100 98 91 80 72 63 60 51 47 45 45 50 40 16 16 13 12
56 54 50 44 43 36 27 52 69 82 98 100 100 100 98 99 99 99 100 100 100 100 100 100 100 100 100 100 100 87 78 70 64 62 58 57 52 49 52 50 23 23 34
53 57 55 50 47 43 29 46 64 79 94 100 100 90 98 100 91 96 100 100 100 100 100 100 100 100 100 100 100 100 90 82 75 68 62 61 54 56 56 57 59 50 24
38 54 58 57 54 51 33 38 58 78 93 100 100 100 100 92 86 91 98 100 100 100 100 100 100 100 100 100 100 100 98 95 88 78 72 65 44 18 12 40 58 64 68
29 56 65 63 61 58 44 32 48 68 88 100 100 100 100 100 83 87 95 100 99 100 100 100 100 100 100 100 100 100 100 97 96 89 78 73 62 27 20 13 12 48 72
35 59 69 68 68 63 60 37 32 47 72 95 96 100 100 100 100 94 94 96 99 98 99 100 100 100 99 100 100 100 100 100 100 100 94 85 76 57 50 33 22 22 22
39 72 72 70 75 69 71 58 39 33 43 72 96 97 100 100 100 100 100 100 99 100 100 100 100 100 100 100 100 100 100 100 97 97 92 90 86 73 66 52 32 27 28
62 86 76 76 81 78 74 77 65 49 36 38 67 96 99 100 100 100 100 100 100 100 100 100 100 100 100 100 100 100 100 100 100 94 92 93 97 94 83 68 51 36 35
91 91 79 82 83 80 74 76 80 77 64 46 36 61 93 98 100 100 100 100 100 100 100 100 100 100 100 100 100 100 100 100 100 100 94 89 95 100 99 94 75 60 45
96 89 82 78 79 78 75 73 76 82 83 78 63 40 52 86 100 100 100 100 100 100 100 100 100 100 100 100 100 100 100 100 100 100 100 94 93 98 100 100 95 85 62

GFSGL_500_rhum_012.txt.gz
RH
43 42 40 42 43 43 36 18 23 28 24 51 66 90 77 67 31 19 22 68 94 100 100 100 100 100 100 97 92 100 100 100 98 100 100 100 97 94 87 60 65 72 72
44 48 52 44 44 25 11 35 52 24 23 17 15 16 20 23 25 52 91 100 100 100 100 100 100 100 100 100 100 96 90 95 95 100 100 98 97 100 100 82 59 53 54
64 72 59 42 14 10 11 16 13 12 14 14 14 24 40 69 99 100 100 100 100 100 100 100 94 96 98 95 95 98 95 84 77 74 73 74 72 70 62 57 57 57 63
100 99 68 20 9 14 14 11 10 12 15 17 44 80 89 96 97 100 100 100 100 100 100 100 100 99 98 99 97 96 100 99 97 91 80 73 72 73 72 71 71 71 66
99 87 46 15 18 14 11 10 12 17 37 76 86 90 96 96 94 100 100 100 100 100 100 100 100 99 100 97 90 90 92 89 83 78 74 70 66 62 59 56 56 55 54
79 42 20 19 15 12 10 13 21 45 89 88 91 92 82 67 54 47 44 48 61 76 83 89 89 90 93 90 84 76 72 65 58 49 34 21 11 11 10 11 11 11 12
30 20 20 16 12 10 18 24 46 86 93 87 59 38 28 24 22 21 20 20 23 26 28 28 37 49 59 64 64 63 51 29 18 12 11 14 14 11 11 11 12 12 10
23 24 19 12 14 22 30 76 96 92 66 37 25 22 20 18 17 16 15 14 14 14 14 16 20 22 23 25 25 20 15 14 13 15 14 14 19 25 28 26 25 26 28
27 21 14 19 23 40 88 96 82 47 27 24 21 19 18 17 17 16 17 17 17 15 13 12 11 14 17 18 17 16 16 16 14 24 50 74 86 93 97 92 94 84 73
26 17 21 24 30 92 100 69 40 27 25 22 20 20 22 26 26 27 30 28 25 23 22 19 12 9 11 16 18 17 15 35 65 32 31 48 64 81 89 90 99 95 97
20 21 26 27 86 97 73 43 30 28 24 21 22 28 33 39 57 70 67 65 54 36 25 23 14 9 11 16 17 18 65 31 39 47 47 45 42 58 89 95 93 99 100
24 27 27 61 96 82 50 35 31 28 22 23 39 62 75 78 78 63 59 48 69 39 27 24 18 17 17 18 43 82 31 48 62 57 54 57 67 75 76 74 86 84 84
28 27 42 100 92 56 41 34 34 27 22 43 64 76 83 87 86 96 98 48 24 28 30 69 100 100 91 99 98 45 52 63 47 39 26 20 20 28 60 86 88 86 100
27 35 100 99 58 48 40 37 34 25 33 60 74 83 91 100 100 98 67 27 24 94 100 100 100 100 100 100 60 56 63 51 39 31 29 27 20 12 10 16 77 99 98
35 99 100 62 54 49 43 38 35 26 44 64 78 90 93 99 98 71 57 96 100 100 100 100 100 100 100 90 73 69 64 54 41 38 35 32 31 28 16 11 12 24 91
100 100 64 57 56 52 46 42 37 32 49 64 84 100 100 98 83 94 98 100 100 100 100 100 100 100 100 98 83 83 71 60 49 48 48 45 40 38 34 22 12 15 11
100 68 52 54 58 54 50 47 39 33 52 75 90 100 100 100 100 95 100 100 100 100 100 100 100 100 100 100 100 95 78 70 64 59 54 51 50 46 44 38 30 14 23
85 42 38 45 63 59 56 53 46 32 54 76 94 100 100 99 85 97 100 100 100 100 100 100 100 100 100 100 100 100 92 81 73 67 58 52 36 29 26 38 42 40 18
67 40 33 53 68 65 61 61 56 34 39 70 92 99 100 100 79 94 98 100 100 100 100 100 100 100 100 100 100 100 100 97 88 81 71 62 49 32 28 13 21 39 45
62 45 36 56 72 68 68 66 66 50 30 51 80 99 100 99 78 83 92 98 100 100 100 100 100 100 100 100 100 100 100 100 98 91 80 70 64 44 41 30 14 15 27
53 46 36 76 78 73 72 71 68 67 47 30 58 86 100 99 97 78 84 90 99 100 100 100 100 100 100 100 100 100 100 100 100 100 97 84 73 60 59 48 30 18 20
58 43 56 86 80 75 71 70 69 70 67 50 32 63 88 98 99 100 91 88 93 96 98 100 100 100 100 100 100 100 100 100 100 100 100 95 84 79 70 62 47 28 26
64 61 82 92 81 72 65 69 70 66 67 68 56 33 64 90 96 100 100 100 100 98 99 98 97 100 100 100 100 100 100 100 100 100 99 96 94 92 88 80 66 48 37
96 94 99 93 79 63 58 66 72 64 63 64 70 63 36 55 92 97 100 100 100 100 100 100 100 100 100 100 100 100 100 100 100 100 98 93 89 90 93 94 93 80 59
100 100 100 91 74 63 56 62 72 66 60 57 62 72 66 43 45 91 99 100 100 100 100 100 100 100 100 100 100 100 100 100 100 100 100 100 98 88 89 96 98 98 91
100 100 99 90 78 71 63 60 74 70 62 56 57 66 74 69 58 41 87 100 100 100 100 100 100 100 100 100 100 100 100 100 100 100 100 100 100 99 94 95 100 99 98

GFSGL_500_rhum_015.txt.gz
RH
50 54 57 60 64 77 75 82 93 78 30 14 9 8 8 10 13 18 19 36 52 72 91 93 100 100 100 100 100 92 84 98 70 100 100 100 100 100 100 93 94 99 100
49 49 50 52 62 95 100 93 46 21 11 9 8 9 14 19 45 80 90 91 97 100 100 100 100 100 100 100 94 90 88 100 96 60 100 100 100 100 100 98 95 94 97
51 54 68 100 100 100 74 34 17 11 9 9 15 22 38 86 88 87 95 94 96 100 100 100 100 100 100 100 100 99 98 87 90 84 72 87 89 89 81 79 87 84 78
60 88 91 74 49 31 22 15 12 10 11 18 27 51 85 93 89 80 74 72 78 87 95 100 99 100 100 99 100 99 100 100 98 88 76 61 64 74 77 74 71 70 69
54 46 38 30 23 21 19 16 11 16 20 31 71 85 84 69 49 29 25 23 24 25 27 29 36 54 83 94 95 100 100 100 100 98 97 100 100 100 96 93 83 78 69
45 33 23 22 26 25 20 13 18 21 40 79 80 71 40 25 21 22 20 19 18 17 17 18 18 20 26 30 56 73 76 83 91 90 85 78 75 64 66 71 73 73 68
28 19 25 27 27 23 16 19 23 36 81 82 56 32 26 25 22 19 18 17 17 17 16 15 15 14 14 17 21 29 43 54 60 59 59 51 32 20 22 23 22 25 29
20 26 28 29 24 20 22 24 28 81 82 53 34 28 27 22 18 21 26 28 28 27 27 24 20 16 14 13 13 17 20 25 28 29 26 16 14 14 14 13 13 13 12
32 32 30 24 22 27 28 29 76 90 62 37 31 30 23 22 39 49 56 54 67 75 73 58 33 24 19 15 12 12 16 18 19 17 15 15 19 38 61 60 56 38 31
30 21 22 24 26 28 29 88 99 67 44 35 34 26 27 54 63 64 64 53 57 67 50 63 61 30 22 17 11 10 14 17 17 16 39 45 35 36 48 57 75 79 88
25 25 29 28 30 30 78 100 69 49 40 35 32 26 52 67 68 71 71 69 88 92 40 52 52 24 23 15 10 12 17 17 23 48 40 47 49 50 49 49 57 78 98
26 25 22 32 37 76 100 75 53 46 40 37 28 34 61 76 83 88 95 99 79 30 26 28 30 28 31 25 20 24 27 60 43 45 53 53 46 39 42 54 64 77 87
18 18 22 29 81 100 76 57 53 47 41 38 26 42 72 84 86 88 87 75 48 27 53 94 100 100 100 100 100 100 67 48 53 53 33 21 17 14 11 10 10 17 64
20 24 34 99 100 64 58 56 52 48 44 37 28 58 84 86 88 88 72 92 100 100 100 100 100 100 100 100 100 83 63 58 41 34 35 30 26 24 21 15 12 10 12
29 60 100 99 59 48 57 59 56 51 49 37 31 71 90 93 96 90 99 100 100 100 100 100 100 100 100 100 100 78 67 44 42 45 43 39 34 31 26 23 16 12 12
91 100 98 57 42 48 64 63 57 56 55 38 32 72 100 97 82 82 97 100 100 100 100 100 100 100 100 100 98 80 65 45 51 54 51 45 41 37 32 28 25 21 13
94 100 79 45 42 55 69 68 60 52 52 49 31 62 99 100 73 77 97 100 100 100 100 100 100 100 100 100 100 99 89 72 64 64 58 46 36 34 30 22 17 24 26
96 96 76 60 47 58 76 71 63 58 60 56 34 43 93 100 69 76 96 100 100 100 100 100 100 100 100 100 100 100 100 97 82 74 64 51 44 38 40 27 14 13 21
85 92 72 60 44 69 81 73 61 55 60 60 52 31 60 100 84 67 88 99 100 100 100 100 100 100 100 100 100 100 100 100 99 89 77 70 61 48 48 42 24 15 16
88 92 74 55 50 80 83 71 54 52 59 57 58 45 33 75 95 76 71 86 98 100 100 100 100 100 100 100 100 100 100 100 100 100 98 82 67 59 57 54 39 19 20
93 93 86 56 66 89 87 67 52 50 58 54 54 54 43 35 75 96 88 76 84 96 100 100 100 100 100 100 100 100 100 100 100 100 100 96 86 69 68 64 56 37 26
88 93 86 76 92 93 90 65 55 50 58 55 48 49 54 46 35 71 94 96 87 86 93 100 100 100 100 100 100 100 100 100 100 100 100 100 100 92 84 78 73 62 48
99 100 99 100 98 97 87 71 62 53 57 58 51 46 45 52 50 37 65 90 98 100 95 92 96 100 100 100 100 100 100 100 100 100 100 100 100 99 92 88 87 87 79
100 100 100 100 100 97 87 74 63 60 59 65 57 50 45 46 55 54 43 54 91 98 100 100 100 100 100 100 100 100 100 100 100 100 100 100 100 100 93 88 85 88 91
100 100 100 100 100 98 92 76 67 65 62 68 70 63 54 49 50 52 57 50 54 92 97 99 100 100 100 100 100 100 100 100 100 100 100 100 100 100 100 99 92 88 88
100 100 100 100 99 98 92 81 74 70 70 66 79 76 63 56 51 50 55 62 52 60 98 100 100 100 100 100 100 100 100 100 100 100 100 100 100 100 100 100 98 94 92

GFSGL_500_rhum_018.txt.gz
RH
27 24 32 42 46 46 47 46 40 30 18 13 10 10 9 9 12 16 23 36 67 82 90 99 98 98 100 100 100 96 96 95 91 100 100 100 100 88 100 99 100 100 100
33 41 50 53 52 47 41 30 18 14 13 13 11 10 13 19 27 54 75 81 88 82 78 77 87 100 100 100 100 100 98 100 79 67 74 97 97 100 100 90 100 100 99
42 54 56 52 46 35 20 13 14 15 14 14 13 17 21 39 76 80 73 48 36 29 27 27 29 35 57 83 99 100 100 92 88 85 75 68 73 96 100 85 71 92 95
58 57 51 42 27 17 12 13 16 17 18 16 20 23 45 73 73 55 32 26 23 22 22 21 21 21 21 24 30 60 90 96 94 92 87 83 80 65 68 66 73 74 62
52 47 39 19 9 10 12 16 20 19 20 22 23 40 84 74 52 33 27 25 23 19 18 18 18 17 18 18 19 22 28 47 86 92 100 98 94 93 76 73 74 68 68
46 29 12 8 10 15 17 21 20 22 23 23 51 100 76 47 35 30 28 21 21 30 34 35 28 24 20 17 16 16 17 20 28 68 78 90 100 100 100 94 87 94 97
18 11 12 19 20 19 20 22 25 22 25 68 100 69 47 39 33 29 23 32 49 55 59 56 51 49 38 24 18 15 15 15 18 24 55 63 68 74 79 78 73 70 66
14 14 16 21 83 47 29 27 26 28 87 100 57 49 43 37 32 23 32 57 58 64 57 50 51 51 50 43 34 21 14 13 14 17 26 46 52 48 48 40 37 32 29
12 12 15 21 49 30 47 29 49 82 95 67 53 48 41 37 27 35 60 74 73 82 90 87 84 82 79 40 45 25 16 12 12 15 16 21 25 22 18 16 15 14 14
12 12 17 19 29 78 45 100 74 96 75 59 55 46 43 28 36 60 77 74 78 86 100 100 96 46 30 62 48 24 18 12 11 14 16 17 18 28 46 46 43 44 52
11 14 15 16 21 30 37 78 97 64 59 56 51 48 36 35 66 83 84 71 74 80 71 39 23 29 43 34 25 21 16 11 12 17 18 35 46 44 47 48 48 48 45
14 14 15 19 26 55 97 76 57 60 59 54 49 48 31 54 83 91 88 84 81 83 92 84 88 85 89 83 53 32 17 15 18 44 50 50 53 49 40 30 26 29 40
14 15 18 37 85 94 65 46 63 63 56 50 45 44 32 67 90 100 88 95 100 100 100 100 100 100 100 100 100 100 69 80 73 58 57 43 22 16 15 15 13 11 10
17 24 64 86 94 65 41 55 66 65 56 48 45 42 33 78 98 87 84 97 100 100 100 100 100 100 100 100 100 100 100 76 67 39 31 31 30 25 21 18 16 14 12
40 69 82 87 81 52 49 58 72 67 57 48 45 43 33 82 99 68 88 100 100 100 100 100 100 100 100 100 100 99 81 52 40 41 40 39 36 31 26 22 18 17 15
70 82 85 92 83 66 55 61 74 69 53 47 48 51 36 73 96 68 79 99 100 100 100 100 100 100 100 100 100 85 54 52 57 56 52 45 38 33 30 25 18 16 15
82 81 79 92 84 64 60 69 77 66 48 44 47 44 44 43 100 69 75 97 100 100 100 100 100 100 100 100 100 100 77 54 62 70 59 41 35 39 38 27 20 17 16
84 78 81 94 89 72 62 74 79 64 50 40 41 38 42 38 75 84 65 84 100 100 100 100 100 100 100 100 100 100 100 100 87 82 70 41 39 39 46 43 28 19 18
87 80 79 91 94 84 70 84 86 67 55 43 45 37 34 40 36 77 94 70 85 99 100 100 100 100 100 100 100 100 100 100 100 100 90 66 55 40 48 53 43 26 20
86 86 81 86 95 87 84 92 89 73 59 46 47 44 37 36 43 36 70 93 72 77 97 100 100 100 100 100 100 100 100 100 100 100 100 100 77 47 49 58 56 47 28
80 89 90 93 100 97 98 96 87 76 61 51 46 53 44 37 36 42 38 53 93 86 74 91 100 100 100 100 100 100 100 100 100 100 100 100 95 78 69 67 67 64 56
88 90 92 97 100 100 99 98 91 78 67 54 50 52 54 46 40 38 42 40 43 82 96 84 86 96 100 100 100 100 100 100 100 100 100 100 100 100 98 95 89 83 79
94 92 95 100 100 100 100 98 92 82 69 56 54 52 63 61 51 43 40 41 42 41 74 98 98 94 94 100 100 100 100 100 100 100 100 100 100 100 100 100 98 93 90
95 99 98 99 99 100 100 96 91 80 64 57 58 56 64 73 64 53 45 42 43 49 44 68 98 100 99 99 100 100 100 100 100 100 100 100 100 100 100 100 100 93 87
97 98 96 97 97 100 100 94 88 72 62 58 60 60 65 74 72 60 51 44 46 54 58 49 71 99 100 100 100 100 100 100 100 100 100 100 100 100 100 100 100 99 98
96 94 91 85 95 100 99 94 85 72 66 63 64 63 66 74 75 68 56 50 49 55 63 64 56 84 100 100 100 100 100 100 100 100 100 100 100 100 100 100 100 100 100

GFSGL_500_rhum_021.txt.gz
RH
34 37 39 44 42 40 42 42 28 12 9 10 12 13 14 15 17 19 21 24 56 80 71 63 57 52 57 65 73 76 88 93 81 84 93 100 99 100 100 100 96 100 88
31 31 34 44 43 38 35 14 10 10 11 12 14 16 18 21 21 22 28 85 82 62 42 32 28 26 25 24 24 26 36 65 89 81 85 92 100 100 100 100 100 100 100
34 42 43 40 37 29 12 10 10 9 10 26 20 21 21 22 24 61 99 68 51 38 32 28 26 25 23 23 22 22 22 23 33 73 84 80 81 96 94 92 95 100 100
36 38 35 36 25 9 10 10 10 14 25 35 48 27 28 42 90 90 61 45 39 34 31 26 22 22 22 20 19 18 19 20 21 24 59 90 82 78 78 91 76 60 64
43 38 33 17 10 10 10 14 52 65 95 95 84 47 85 90 70 53 45 40 36 31 23 26 41 53 52 44 31 27 20 18 18 19 22 41 91 94 85 80 68 73 62
37 33 14 10 11 10 12 29 74 100 100 100 50 99 87 63 53 47 42 39 29 23 29 51 66 68 61 48 35 35 32 23 18 17 18 21 33 87 97 95 91 78 74
30 13 10 11 10 10 14 18 32 100 96 55 88 85 62 56 51 43 38 28 33 54 63 60 63 74 76 66 44 48 46 47 25 16 16 17 20 49 78 92 89 77 77
11 10 9 8 10 12 14 26 100 100 91 73 75 60 58 55 48 42 30 49 73 84 81 68 67 76 83 95 80 65 76 56 37 16 14 15 16 21 60 67 81 84 82
10 8 7 9 12 13 12 17 100 78 85 68 61 63 58 50 45 33 45 80 99 89 77 72 68 81 95 100 96 80 48 40 37 17 13 14 14 17 39 54 54 53 50
8 7 10 13 14 14 17 34 74 72 57 64 64 58 48 47 40 34 83 98 77 90 99 100 92 45 29 29 39 45 51 51 27 16 12 13 14 16 24 32 28 22 18
6 10 14 17 16 36 80 85 53 57 66 65 58 48 46 45 34 62 88 66 74 90 99 100 100 100 100 83 44 31 28 25 20 14 12 13 16 17 19 26 36 39 39
9 13 18 25 59 79 80 64 56 63 64 60 53 43 44 43 36 84 65 70 84 97 100 100 100 100 100 100 100 100 44 18 13 12 15 18 32 44 48 53 52 45 37
12 16 24 59 75 80 82 60 58 63 67 60 47 39 40 41 38 93 64 77 89 97 100 100 100 100 100 100 100 100 79 39 33 60 72 62 60 58 38 18 13 12 11
14 21 42 72 80 78 89 74 66 67 72 61 47 39 38 34 37 92 72 82 93 100 100 100 100 100 100 100 100 100 100 100 100 89 70 41 22 19 18 18 17 15 14
18 25 54 78 72 76 88 76 60 66 77 62 49 39 37 33 35 75 61 76 96 99 100 100 100 100 100 100 100 100 100 89 58 47 41 35 33 30 24 20 18 17 16
23 29 60 77 72 78 90 79 64 72 82 67 53 41 41 34 37 54 88 64 85 93 100 100 100 100 100 100 100 95 70 71 71 56 50 46 39 30 23 20 18 17 16
27 31 65 78 74 77 90 81 60 83 85 72 56 44 42 37 35 38 76 68 67 88 95 100 100 100 99 100 100 100 85 69 75 66 57 48 35 33 30 23 20 18 19
32 30 52 83 82 74 82 94 86 88 88 73 58 47 41 41 35 33 36 74 72 72 92 100 100 100 100 98 98 100 100 100 87 81 71 42 26 30 37 39 32 23 21
33 34 45 76 88 84 86 93 93 91 88 74 59 48 42 44 40 34 33 38 66 84 70 88 99 100 100 100 99 98 96 99 100 100 96 78 56 43 31 48 49 42 29
31 34 57 82 94 90 88 95 96 96 90 77 62 50 44 44 50 44 37 34 38 48 88 70 80 96 100 100 100 100 100 100 100 100 100 100 100 90 50 46 55 55 51
34 52 81 94 95 91 88 95 96 97 88 74 62 52 46 45 52 56 49 41 35 34 40 86 81 75 92 99 100 100 100 100 100 100 100 100 100 100 89 84 77 70 68
39 38 69 93 97 90 86 91 93 96 86 75 61 52 47 47 54 67 63 51 42 35 35 38 74 92 83 86 96 100 100 100 100 100 100 100 100 100 100 98 96 96 97
43 43 65 91 95 87 88 88 93 94 84 72 60 54 50 49 56 67 69 60 48 40 37 41 44 69 100 98 96 96 98 100 100 100 100 100 100 100 100 100 100 100 100
47 50 77 88 92 87 80 88 97 92 84 73 64 58 51 50 55 64 68 64 51 45 42 44 53 50 68 100 100 100 100 100 100 100 100 100 100 100 100 100 100 100 100
65 65 74 89 90 82 79 91 96 90 83 77 73 62 59 54 53 59 66 67 59 51 46 47 53 62 56 68 100 100 100 100 100 100 100 100 100 100 100 100 100 100 100
74 77 81 83 81 85 87 95 96 90 91 87 77 73 67 64 64 61 66 71 70 62 52 49 54 62 71 66 73 99 100 100 100 100 100 100 100 100 100 100 100 100 100

GFSGL_500_rhum_024.txt.gz
RH
37 38 35 34 34 36 38 36 31 17 11 10 8 8 18 34 54 37 33 17 22 34 58 94 95 78 63 45 36 32 29 28 31 37 52 95 100 100 89 81 89 29 23
40 39 35 35 41 40 37 28 17 13 10 8 18 51 67 100 97 77 85 68 100 95 88 69 54 44 39 35 32 28 26 25 24 21 21 29 97 100 95 98 100 98 83
43 34 38 44 41 39 32 23 14 9 7 49 100 100 68 100 100 99 48 90 69 57 48 43 39 35 33 31 27 23 22 21 21 21 21 21 25 97 100 100 99 100 100
37 47 48 42 38 34 24 14 9 8 10 15 34 78 100 100 96 54 83 62 51 45 41 39 34 27 24 22 23 28 35 37 32 24 18 19 20 25 97 100 96 88 97
40 40 34 37 35 24 14 9 7 10 14 16 86 78 100 96 72 78 54 47 44 43 38 28 33 49 59 60 57 56 53 50 42 38 32 20 18 21 31 94 94 91 72
35 39 44 39 22 12 8 8 10 12 13 33 100 69 91 76 67 50 46 42 42 32 32 62 71 71 62 64 67 60 60 61 45 40 33 27 19 18 20 41 90 93 86
46 48 40 23 11 8 7 9 13 12 12 100 100 98 89 60 50 46 39 31 28 44 70 61 55 70 72 56 74 92 89 86 78 47 47 36 22 17 18 20 56 86 90
51 42 25 11 9 8 8 13 18 34 49 63 76 74 59 52 47 38 32 29 49 71 53 62 83 91 95 77 47 90 100 100 99 61 61 56 25 17 17 18 22 67 80
45 26 14 11 9 8 14 25 55 69 65 59 61 54 53 48 38 34 29 38 71 62 85 96 88 96 100 99 78 31 44 94 95 87 72 46 27 15 15 16 18 40 72
29 16 12 9 9 11 19 57 70 70 63 62 63 57 49 43 36 31 27 62 58 70 90 100 100 100 100 100 100 95 45 69 35 23 29 34 20 14 14 15 17 32 59
18 13 11 9 10 16 36 64 74 73 64 68 66 59 48 41 36 29 29 57 55 78 89 100 100 100 100 100 100 100 98 34 49 46 31 20 14 14 14 15 18 34 48
13 12 10 11 14 21 58 72 79 81 74 67 70 62 50 41 37 33 30 59 56 75 90 99 100 100 100 100 100 100 100 63 26 23 18 15 13 13 16 17 19 22 26
12 10 10 11 18 36 69 70 76 85 73 67 74 66 54 42 39 35 29 64 56 80 90 97 100 100 100 100 100 100 100 91 50 30 23 22 24 33 42 46 51 53 47
11 11 11 15 25 56 72 72 79 85 78 72 78 71 56 43 38 35 33 58 64 76 87 98 100 100 100 100 100 100 100 100 100 100 100 100 81 70 60 32 17 14 13
12 14 12 22 28 62 80 78 81 86 80 77 81 72 57 45 38 38 30 31 66 70 85 88 94 100 100 100 100 100 100 100 100 90 70 46 30 21 21 20 18 16 16
15 17 18 30 30 54 89 86 76 83 81 89 83 73 56 46 40 40 36 30 51 64 70 84 89 96 100 100 100 100 92 93 82 72 59 48 39 33 30 24 19 17 17
19 19 25 34 34 44 89 100 96 90 89 99 86 76 56 48 41 40 42 32 30 62 66 75 86 87 97 100 100 100 100 97 82 83 66 56 42 30 24 18 17 17 18
24 23 31 33 36 54 86 100 100 100 100 100 90 78 59 48 41 40 44 41 31 28 60 68 75 87 90 95 100 100 100 100 100 96 78 60 38 33 32 27 22 18 20
32 29 36 36 58 86 100 100 100 100 100 98 93 76 58 47 41 40 42 48 43 34 30 46 72 73 89 90 96 100 100 100 100 100 100 92 44 31 26 35 46 44 36
38 35 41 41 49 86 100 100 99 96 98 96 89 74 58 48 42 40 42 52 53 49 39 30 34 77 73 85 90 97 100 100 100 100 100 100 100 99 93 56 47 56 59
46 45 46 52 45 64 100 100 96 96 97 98 90 74 60 50 44 42 45 53 62 60 47 37 30 29 73 84 83 91 96 100 100 100 100 100 100 100 100 96 79 77 77
54 52 51 52 57 86 99 96 99 94 94 97 88 75 66 53 47 44 46 53 58 61 51 40 35 32 34 57 96 91 91 97 100 100 100 100 100 100 100 100 95 96 96
60 62 61 58 71 76 98 99 83 81 97 99 91 79 70 58 52 48 46 48 55 58 57 47 40 36 40 45 52 95 100 99 100 100 100 100 100 100 100 100 100 100 100
65 69 72 72 76 84 95 98 85 85 97 99 93 88 79 70 64 56 51 50 51 58 61 58 48 42 40 46 53 58 98 100 100 100 100 100 100 100 100 100 100 100 100
71 72 78 79 80 86 91 92 95 92 98 100 100 98 94 86 77 74 60 57 59 57 62 66 62 51 43 44 53 58 59 95 100 100 100 100 100 100 100 100 100 100 100
90 83 80 82 89 92 93 97 96 96 99 100 100 100 100 99 89 84 76 68 65 68 66 67 71 68 53 45 48 60 66 67 92 100 100 100 100 100 100 100 100 100 100

GFSGL_500_rhum_027.txt.gz
RH
45 42 35 31 25 20 17 20 26 27 28 32 27 15 9 10 69 41 93 100 100 100 100 56 79 69 60 55 53 56 58 51 53 44 37 32 32 32 42 80 79 71 55
43 39 36 27 20 20 22 28 31 31 34 25 15 10 8 15 27 66 100 100 100 100 73 70 56 51 45 40 38 36 36 35 34 32 32 30 28 26 24 27 65 75 82
43 37 27 23 24 26 31 41 41 38 24 16 10 7 11 18 32 90 85 100 98 66 61 46 40 37 31 27 27 26 26 25 25 24 23 23 23 24 24 23 26 65 77
39 28 29 30 31 35 46 46 42 25 16 10 7 10 12 15 55 72 100 100 64 51 42 39 35 29 34 52 60 64 67 66 60 50 32 26 26 24 20 21 22 27 73
32 34 37 38 43 53 54 46 26 17 10 7 11 17 18 41 73 99 92 61 46 40 37 32 32 55 43 50 57 62 63 52 51 72 65 56 48 43 35 21 19 22 47
38 41 42 48 57 59 51 28 16 11 8 12 27 37 43 53 59 61 53 44 38 34 25 38 45 52 76 86 94 98 88 72 44 54 64 60 62 46 38 29 18 20 24
47 48 52 59 63 55 30 19 12 9 12 33 52 55 58 59 53 49 43 39 34 24 34 40 48 75 87 95 100 100 100 91 42 71 76 69 70 46 39 29 21 18 21
53 54 61 66 59 36 23 14 9 12 21 47 58 60 58 55 52 47 42 35 31 31 46 48 78 89 93 95 99 100 100 99 35 48 79 88 88 56 46 40 23 17 20
64 67 71 66 50 35 16 11 10 17 41 52 67 66 66 63 55 48 39 34 29 46 50 70 82 95 100 100 100 100 100 100 65 39 87 100 90 58 54 42 21 17 19
71 71 72 61 45 21 12 10 14 26 52 65 75 74 70 68 59 48 37 34 28 48 54 82 93 100 100 100 100 100 100 100 83 63 39 71 83 69 57 27 16 17 18
78 76 68 50 23 12 12 12 18 38 63 66 81 83 75 72 60 49 38 34 27 50 55 81 96 100 100 100 100 100 100 100 78 38 64 37 32 34 27 17 15 16 16
80 72 51 23 14 13 13 17 27 57 72 79 86 82 80 73 61 50 39 35 30 38 54 77 94 100 100 100 100 100 100 100 76 32 26 26 24 20 16 15 15 15 16
73 53 24 15 13 16 15 25 35 66 79 86 89 82 81 73 65 50 41 36 36 28 50 69 86 96 100 100 100 100 100 100 99 66 33 20 17 14 14 15 17 18 22
48 26 18 15 18 20 22 32 36 79 91 87 85 83 86 75 69 51 42 38 40 29 44 60 83 95 96 99 100 100 100 100 100 100 100 99 97 95 86 73 62 61 58
28 20 17 18 22 24 32 36 37 74 100 99 96 90 92 78 67 50 41 38 41 35 29 59 73 83 92 99 100 100 100 100 81 83 89 92 90 80 61 44 28 21 17
21 19 19 22 27 30 36 34 41 76 100 100 100 99 94 81 64 49 40 37 40 42 30 34 65 80 89 96 100 100 100 100 100 83 63 47 36 30 26 23 20 18 17
20 21 23 28 34 36 39 47 74 90 97 100 100 100 94 81 64 48 40 37 39 47 41 28 40 70 81 90 98 100 100 100 100 100 83 73 60 45 35 28 24 23 20
22 25 30 34 42 44 43 61 100 100 100 100 100 98 93 86 62 47 41 38 39 42 49 44 30 33 67 78 89 95 100 100 100 100 100 83 56 46 36 27 19 17 19
27 32 36 40 48 50 53 45 69 100 100 100 100 98 99 84 62 50 42 38 40 45 53 55 46 33 27 64 79 94 95 100 100 100 100 100 86 36 27 27 29 32 28
32 38 46 48 55 57 58 57 78 100 100 100 100 100 99 82 66 54 45 38 38 42 47 56 55 39 32 26 52 80 96 100 100 100 100 100 100 100 97 84 34 36 54
41 49 56 60 66 65 56 79 94 100 100 100 97 100 99 84 71 60 50 44 40 40 43 51 54 48 37 31 28 36 84 96 100 100 100 100 100 100 100 100 100 79 56
54 60 68 70 74 76 75 79 91 100 100 87 90 100 100 90 82 71 61 53 46 42 41 44 52 54 47 37 33 34 36 82 99 100 100 100 100 100 100 100 100 100 88
63 73 87 78 79 84 85 84 85 93 100 98 97 100 99 97 94 88 78 67 58 49 46 44 44 52 56 49 39 36 41 44 69 99 100 100 100 100 100 100 100 100 100
78 92 94 92 81 82 85 86 86 90 100 100 100 100 100 100 100 99 95 84 79 68 55 49 49 49 56 59 53 41 37 47 52 63 98 100 100 100 100 100 100 100 100
98 100 100 98 98 98 98 92 89 96 100 100 100 100 100 100 100 100 100 99 95 87 70 60 56 55 55 59 61 57 42 38 48 57 69 97 100 100 100 100 100 100 100
100 100 100 100 97 94 98 100 100 100 100 100 100 100 100 100 100 100 100 100 100 98 87 72 65 68 61 59 64 66 60 42 41 55 66 76 99 100 100 100 100 100 100

GFSGL_500_rhum_030.txt.gz
RH
65 64 53 42 40 40 37 37 38 42 42 43 45 49 45 40 19 7 9 11 17 66 89 99 91 65 53 45 41 37 32 30 24 24 30 37 46 50 49 45 42 40 56
69 57 46 48 48 44 45 44 46 44 48 54 56 51 37 16 8 10 14 20 58 73 92 66 54 45 39 33 24 22 28 40 38 27 28 26 27 33 38 41 40 38 32
62 54 56 54 52 53 54 55 48 52 56 57 56 42 16 9 14 24 31 35 41 48 55 45 38 35 28 24 35 37 42 47 49 42 35 38 47 36 26 29 32 30 29
64 64 62 60 57 56 53 51 55 56 57 58 39 18 10 14 30 34 36 42 47 48 41 38 34 27 29 33 40 61 76 85 93 93 86 69 48 45 51 29 24 24 25
74 68 63 64 58 54 54 55 56 61 62 37 19 10 12 25 40 42 45 47 49 44 38 32 29 31 35 52 70 77 80 84 86 92 97 93 72 45 56 64 36 25 21
72 71 69 61 60 54 57 58 64 62 35 20 12 10 30 49 58 58 56 56 51 41 32 32 26 37 46 71 82 93 98 94 94 91 100 99 60 50 57 74 61 44 33
77 67 67 61 59 66 66 66 59 33 20 13 11 20 49 61 68 66 66 62 52 41 33 29 33 41 61 81 89 100 100 100 98 96 100 97 48 99 88 70 65 52 42
77 78 68 65 71 74 70 54 31 21 13 12 16 42 59 72 76 71 72 64 53 40 34 28 38 52 73 83 99 100 100 100 100 100 100 84 51 100 100 74 65 41 35
84 73 68 69 75 73 51 30 22 14 14 14 29 62 68 78 78 79 75 61 49 40 35 28 41 62 83 89 100 100 100 100 100 100 100 74 68 100 100 89 72 43 44
79 71 69 76 77 48 28 21 15 16 17 22 44 67 73 85 85 79 76 57 48 38 36 31 47 62 84 90 100 100 100 100 100 99 57 76 62 100 100 86 59 49 49
78 77 82 74 44 27 19 16 16 20 21 28 48 73 81 87 82 80 73 56 44 38 35 30 48 59 81 97 100 100 100 100 100 54 33 63 43 64 86 70 57 50 29
82 84 68 38 24 16 15 17 20 24 31 36 60 90 91 88 86 85 70 57 41 36 34 31 36 52 78 96 100 100 100 100 100 100 45 28 34 36 36 34 27 20 18
88 62 33 21 14 15 17 19 24 29 37 39 54 98 100 96 91 86 70 54 41 36 34 36 28 46 66 89 100 100 100 100 100 100 100 66 33 20 19 18 17 16 16
58 32 19 12 14 17 20 24 32 36 36 39 59 91 100 95 92 84 74 53 41 36 36 40 30 36 62 83 91 100 100 100 96 89 100 100 100 82 54 41 30 21 20
32 18 12 16 19 20 24 33 39 41 42 57 80 94 100 96 92 89 74 49 40 36 37 43 42 29 43 64 84 97 100 100 100 88 55 58 85 96 100 100 99 87 79
18 13 18 19 21 25 31 40 47 46 51 82 96 97 100 96 96 92 67 48 40 36 38 44 50 43 29 55 72 89 100 100 100 100 92 67 46 35 26 21 19 18 17
12 18 20 22 24 33 42 46 52 52 48 58 86 94 98 96 100 92 66 50 41 36 37 42 50 52 41 29 56 79 95 100 100 100 100 91 74 62 48 37 27 23 20
18 22 24 25 31 42 50 54 54 56 58 52 73 91 95 98 100 92 68 53 43 37 34 37 43 50 50 36 28 50 80 97 100 100 100 100 79 63 50 42 35 30 26
24 26 29 29 44 51 55 60 60 56 61 78 91 91 95 99 100 94 74 62 51 41 37 35 36 44 47 46 36 28 45 80 98 100 100 100 100 70 45 37 30 26 23
23 32 32 40 52 55 60 67 73 65 81 86 93 94 92 91 100 96 85 75 64 52 43 38 38 37 43 47 45 35 28 39 82 100 100 100 100 100 98 62 25 31 37
25 37 36 52 60 70 72 72 81 82 81 86 94 95 92 89 97 100 94 89 83 68 57 48 40 37 37 41 46 44 35 30 33 79 100 100 100 100 100 100 100 99 58
34 44 46 61 75 86 87 77 82 87 89 90 91 99 100 99 100 100 100 100 99 88 76 64 56 47 40 39 42 46 46 36 33 35 69 100 100 100 100 100 100 100 100
46 52 62 78 86 93 95 95 96 98 95 92 94 96 100 100 100 100 100 100 100 100 96 86 74 63 52 46 43 45 49 48 38 33 39 57 98 100 100 100 100 100 100
54 63 71 85 91 97 100 100 99 95 98 100 100 100 100 100 100 100 100 100 100 100 100 100 94 82 69 56 49 49 48 52 51 41 33 39 48 88 100 100 100 100 100
60 67 80 84 93 96 94 94 97 99 97 99 100 100 100 100 100 100 100 100 100 100 100 100 100 100 84 72 63 59 52 52 55 54 44 34 38 51 80 100 100 100 100
63 64 81 93 97 97 98 98 99 100 100 100 100 100 100 100 100 100 100 100 100 100 100 100 100 100 100 91 80 73 67 55 58 59 53 42 37 45 60 82 100 100 100

GFSGL_500_rhum_033.txt.gz
RH
46 58 74 80 82 72 66 63 53 50 51 52 48 48 53 52 52 32 14 10 16 28 28 28 30 36 37 34 33 32 27 24 21 21 20 22 23 23 21 28 33 56 66
51 70 84 84 77 75 65 58 55 57 62 56 51 53 53 52 28 13 10 17 34 37 32 36 39 39 35 30 30 26 30 32 37 43 50 48 48 47 28 29 27 33 48
64 72 76 75 72 64 64 63 68 70 60 55 56 57 52 26 12 11 17 40 45 47 48 48 44 40 31 31 26 31 38 55 61 57 57 63 63 69 63 52 38 35 31
64 71 72 74 72 71 74 80 75 64 57 55 54 48 22 11 12 14 39 50 62 62 59 54 46 34 30 28 29 37 50 64 68 80 86 87 85 83 79 81 76 50 39
75 80 80 79 86 88 86 79 68 60 56 54 41 18 11 13 14 33 60 68 72 71 68 54 42 32 31 28 34 50 66 73 85 94 97 98 99 100 95 98 91 76 42
88 92 94 97 94 89 80 67 59 58 55 38 15 10 13 14 22 56 74 79 81 78 68 52 38 33 30 32 46 68 77 84 95 98 100 100 100 100 98 95 78 48 39
100 100 100 98 90 74 65 58 57 56 35 13 10 13 17 18 45 68 77 85 87 78 65 47 37 33 29 34 53 75 80 100 100 100 100 100 100 100 98 67 43 56 55
100 100 100 90 76 67 62 60 58 35 12 11 14 18 21 32 67 75 87 90 81 80 58 42 35 33 28 37 58 79 90 99 100 100 100 98 98 96 68 51 82 97 100
100 99 89 80 74 65 63 58 32 11 12 14 17 23 27 40 72 81 86 83 86 78 55 37 33 33 29 38 58 81 94 100 100 100 78 54 61 75 66 100 100 100 92
100 92 86 76 65 66 62 31 11 12 15 16 20 26 34 47 87 96 91 90 91 70 49 36 32 32 28 39 59 81 99 100 100 100 85 35 62 56 93 100 100 100 94
94 92 78 68 70 66 35 11 12 15 16 18 24 29 35 46 91 99 96 92 81 61 41 34 32 34 28 40 60 82 100 100 100 100 95 31 39 45 83 100 94 75 56
94 80 77 77 71 38 11 13 15 17 19 23 32 35 37 53 93 100 96 90 70 50 38 33 32 36 28 38 57 83 100 100 100 98 100 79 32 29 41 52 64 62 56
86 82 79 76 44 13 12 18 18 20 21 30 38 39 48 78 98 100 98 85 66 45 37 32 32 38 38 29 47 75 100 100 100 99 89 100 98 48 25 23 24 24 23
85 78 76 54 18 11 18 17 20 23 29 40 44 51 81 96 99 99 94 84 63 45 36 32 34 38 45 35 36 59 86 100 100 100 81 55 100 100 100 76 37 21 18
78 78 58 21 10 16 17 19 22 30 40 47 50 53 80 97 98 93 93 88 62 46 36 32 32 38 46 47 30 45 69 94 100 100 100 76 43 42 88 100 100 95 65
80 63 28 11 14 18 18 25 29 39 46 51 55 54 53 88 96 94 94 86 64 50 40 36 33 35 46 51 39 28 53 78 99 100 100 100 77 47 34 27 30 56 82
64 28 13 12 19 18 25 29 40 46 49 52 53 57 66 91 94 95 95 90 72 60 50 41 35 32 34 44 45 36 29 57 84 98 100 100 100 83 59 43 31 28 29
34 15 13 18 22 22 32 39 49 56 61 60 51 68 84 91 93 95 96 96 83 72 63 54 45 35 32 34 42 43 38 29 57 89 100 100 100 99 79 64 50 38 28
15 14 17 25 23 32 39 52 63 68 67 70 70 69 74 86 89 86 96 100 93 85 80 69 60 48 37 32 34 40 42 37 28 46 89 100 100 100 80 64 52 41 35
16 19 26 29 27 42 51 66 78 80 72 78 81 75 78 89 93 97 99 100 99 96 96 88 76 59 51 42 34 34 39 39 36 28 39 86 96 100 100 84 45 40 34
20 24 31 30 33 52 65 82 84 88 89 91 88 86 89 92 92 96 100 100 100 100 100 97 92 81 67 58 48 37 34 39 41 37 28 35 85 95 100 100 100 77 32
25 32 32 31 39 61 70 87 90 94 96 97 96 95 96 100 100 100 100 100 100 100 100 100 100 95 89 72 63 56 40 36 39 42 39 30 33 81 96 100 100 100 100
30 35 32 30 39 66 74 80 88 89 88 88 92 96 94 98 100 100 100 100 100 100 100 100 100 97 90 89 85 72 58 41 40 40 42 41 32 32 66 98 100 100 100
36 36 32 28 38 64 76 86 87 89 92 96 96 94 99 100 100 99 100 100 100 100 100 100 100 100 99 97 94 88 76 60 45 43 43 44 44 35 33 49 94 100 100
39 36 30 26 38 64 70 80 89 91 96 97 96 96 100 100 97 94 97 100 100 100 100 100 100 100 97 100 100 97 84 75 62 52 47 47 47 45 39 33 38 80 100
40 35 27 24 43 67 69 75 92 95 93 94 96 95 88 89 62 52 59 79 100 100 100 100 100 100 100 100 100 100 94 85 78 69 59 50 51 51 44 37 34 40 66

GFSGL_500_rhum_036.txt.gz
RH
31 34 39 39 45 52 65 70 68 67 67 69 71 72 56 42 37 40 40 23 7 10 13 28 47 52 46 48 41 34 27 27 24 24 24 25 32 36 38 33 33 25 21
35 36 40 48 51 54 74 80 79 80 81 79 74 55 44 39 41 36 14 8 12 14 29 56 62 62 57 49 41 30 29 28 24 29 40 47 48 58 58 56 53 50 41
39 41 45 53 53 71 88 92 92 88 85 75 60 46 42 43 34 11 9 12 15 28 60 69 72 70 62 50 35 31 30 27 33 42 53 60 68 79 79 74 70 67 59
44 46 52 57 79 93 96 94 92 86 74 60 46 46 46 30 10 10 12 16 24 56 75 77 78 69 55 42 33 31 29 33 45 57 61 75 88 92 90 85 79 78 74
50 53 61 86 96 98 95 94 86 74 62 47 49 48 30 10 11 12 17 21 56 76 78 81 74 66 50 37 32 31 29 40 58 66 79 89 95 97 97 91 85 91 89
58 68 92 100 100 97 95 84 74 66 52 51 51 31 10 11 13 17 22 36 77 74 84 80 75 61 45 34 31 30 33 46 71 80 88 95 100 100 86 92 91 99 96
76 95 100 99 98 97 86 75 73 56 54 54 32 11 12 13 16 23 29 58 83 87 82 82 74 55 37 32 32 29 38 58 81 96 94 100 100 59 59 95 100 95 92
95 100 98 100 100 97 91 84 67 55 55 37 12 13 14 15 22 31 38 80 97 91 88 77 61 43 34 31 31 29 44 68 93 93 100 100 79 35 56 73 78 60 59
96 100 100 100 100 99 98 84 60 58 44 14 12 14 16 18 30 35 41 87 100 98 86 68 49 36 32 31 30 30 49 72 92 100 100 100 40 41 54 71 97 100 100
100 100 100 100 100 100 97 76 59 51 19 10 14 16 19 27 35 36 42 88 100 96 79 58 40 33 31 33 31 30 49 75 96 100 94 100 48 37 65 94 100 100 100
100 100 100 100 100 99 83 60 59 30 10 13 15 19 24 37 38 41 59 94 97 86 71 50 37 31 31 35 34 29 46 74 99 100 93 96 91 28 46 85 98 100 100
100 100 100 100 100 96 72 63 39 13 11 16 18 24 32 43 45 64 88 97 90 82 64 42 33 30 32 36 39 30 43 72 98 100 100 67 100 83 28 38 62 71 66
100 100 100 100 97 74 65 47 18 10 16 17 22 31 38 47 52 87 97 95 87 83 60 41 33 30 29 35 42 37 34 65 97 100 100 90 57 100 100 69 28 30 39
100 100 100 97 82 71 56 18 11 15 18 21 28 37 43 51 53 70 96 95 90 81 60 45 38 32 28 32 44 44 30 52 85 100 100 100 71 42 96 100 100 65 35
100 96 91 87 74 60 24 11 14 20 21 28 36 43 48 53 57 56 91 98 92 84 65 53 46 41 31 27 33 44 34 31 62 96 100 100 100 66 42 45 98 100 97
91 88 93 81 62 23 12 13 21 22 26 37 48 55 56 54 60 78 96 99 94 88 74 63 56 53 43 30 28 36 42 35 34 74 100 100 100 100 69 43 37 61 100
98 95 81 65 22 14 15 20 26 25 35 45 56 66 65 64 82 95 95 96 93 93 83 75 69 63 54 41 31 28 36 40 33 33 80 100 100 100 100 76 48 40 38
93 83 58 19 15 17 22 29 27 34 46 60 67 68 79 78 79 92 94 88 88 96 93 87 82 75 67 52 41 32 28 34 36 32 33 82 100 100 100 100 82 56 37
75 35 16 16 19 24 29 32 29 45 63 79 82 81 79 86 87 89 98 96 97 94 97 95 89 84 77 69 58 47 36 29 32 35 32 30 78 100 100 100 89 73 62
17 17 17 20 26 28 34 35 33 53 73 88 91 89 91 95 93 89 94 97 100 99 99 99 98 93 90 79 68 59 50 42 31 32 34 32 28 67 99 100 100 68 58
21 22 23 28 30 32 37 37 34 61 72 90 93 89 86 91 90 94 99 100 100 100 100 100 100 100 95 92 79 69 66 57 47 34 31 33 31 28 59 95 100 100 79
31 32 30 30 32 38 40 37 34 60 78 85 88 87 84 86 91 95 98 100 100 100 100 100 100 100 100 94 89 81 75 70 62 48 37 32 33 32 28 49 92 100 100
34 36 37 35 40 42 41 36 32 57 78 92 97 98 96 97 100 100 100 100 100 100 100 100 100 100 100 100 90 92 88 86 77 59 47 38 33 35 34 30 36 87 100
35 39 38 39 46 44 40 32 30 56 71 82 92 100 100 100 100 100 100 100 95 89 92 100 100 100 100 100 100 98 87 90 91 75 59 48 39 35 37 35 33 31 70
32 37 43 47 47 44 39 29 31 59 74 79 90 100 96 90 90 86 78 81 72 57 66 86 100 100 100 100 100 100 99 94 96 87 75 63 52 40 38 41 38 36 32
34 36 45 45 42 42 39 31 38 67 80 85 98 100 99 93 91 88 85 80 73 67 63 71 93 100 100 100 100 100 100 95 100 97 92 81 68 56 42 44 44 40 37

GFSGL_500_rhum_039.txt.gz
RH
41 40 40 45 49 51 48 48 48 59 76 83 83 83 75 62 58 48 33 25 21 12 8 9 11 15 35 62 63 63 55 46 36 24 27 25 22 22 27 35 36 36 38
30 34 34 45 53 51 52 54 62 80 87 89 87 79 69 66 53 36 26 22 13 8 10 12 17 34 68 74 70 62 53 46 30 26 27 24 28 37 45 46 54 60 61
28 30 32 51 54 55 58 67 87 91 91 90 88 81 81 69 45 29 25 15 9 9 12 19 32 65 76 76 74 61 54 37 30 27 26 28 42 56 57 71 75 74 75
35 36 40 48 57 63 68 93 95 92 94 94 93 84 78 52 33 27 18 10 10 12 19 25 57 75 81 78 67 59 41 30 28 27 28 39 57 70 78 82 80 82 78
40 42 46 57 63 72 96 100 96 99 99 100 100 89 72 40 28 20 11 11 13 18 26 46 72 79 81 74 64 47 32 28 28 26 35 54 75 84 86 87 81 41 38
40 45 65 64 82 98 98 95 99 100 100 100 98 84 58 34 20 13 12 13 17 26 33 68 88 84 71 64 44 35 30 26 27 30 45 68 87 89 90 84 33 34 47
55 72 65 88 100 91 98 100 100 100 100 99 90 72 44 33 16 12 14 16 27 33 37 80 94 82 70 51 37 32 29 30 27 39 61 92 84 88 86 32 40 51 63
71 64 83 88 89 100 100 100 100 100 99 88 73 50 39 25 12 14 17 24 34 37 45 80 88 77 54 39 33 31 32 31 30 51 76 85 88 86 51 34 61 69 73
74 97 84 98 100 100 100 100 100 100 86 72 58 46 33 11 15 18 23 35 39 44 71 86 87 64 45 33 30 31 37 32 34 56 86 92 84 87 38 41 82 91 100
90 90 94 100 100 100 100 100 100 89 72 58 59 39 13 14 16 24 30 39 48 74 96 89 70 58 36 30 28 31 40 33 36 64 92 94 84 83 51 34 87 98 100
93 97 100 100 100 100 100 100 96 88 65 48 51 20 12 18 21 32 40 45 65 98 98 85 72 47 35 30 27 31 37 35 35 60 95 96 96 64 94 30 52 88 99
97 100 100 100 100 100 100 99 98 80 58 51 28 10 19 20 28 39 46 51 71 97 98 87 72 48 38 31 26 28 36 38 30 56 98 99 100 64 80 95 39 42 67
100 100 100 100 100 100 100 97 91 54 41 26 10 17 21 23 35 46 51 55 62 90 97 91 73 53 47 41 28 26 35 41 31 49 92 100 100 100 50 78 100 72 35
100 100 100 100 100 100 98 93 51 34 21 11 15 23 25 33 42 50 51 59 57 84 99 98 80 62 55 53 38 26 27 37 38 33 73 100 100 100 88 47 80 100 94
100 100 100 100 100 100 82 40 31 14 12 16 24 25 31 47 55 61 54 57 71 98 100 98 88 73 65 62 47 36 25 28 36 35 37 92 100 100 100 75 46 80 100
100 100 100 100 99 84 39 20 14 14 19 25 29 29 42 55 65 68 66 72 86 97 97 95 94 82 77 70 60 46 35 25 29 35 33 43 98 100 100 100 74 49 64
100 91 100 95 49 18 15 16 18 20 24 31 33 38 59 74 76 77 80 76 84 96 95 91 97 92 88 79 71 62 49 37 26 29 35 32 43 100 100 100 100 77 49
100 97 73 28 14 12 14 21 24 25 26 35 35 50 77 84 92 91 88 89 90 95 99 97 98 96 95 90 82 74 61 49 38 28 29 32 31 43 99 100 100 100 85
54 23 15 15 15 17 23 29 32 33 34 40 37 48 79 96 99 95 96 100 99 96 98 100 100 100 100 100 94 87 78 60 52 42 30 28 31 30 38 97 100 100 99
13 12 12 14 19 28 31 34 36 35 42 43 39 54 76 87 100 99 92 94 97 99 100 100 100 100 100 100 100 96 88 72 61 57 47 32 29 30 29 33 90 100 100
14 15 19 23 25 32 31 34 39 40 47 44 40 47 84 88 100 100 96 96 98 99 99 100 100 100 100 100 100 100 93 82 81 69 60 48 35 29 29 29 28 81 100
20 25 29 31 33 39 37 34 38 48 48 45 37 42 79 96 100 100 100 100 100 100 100 100 100 100 100 100 100 100 99 90 90 75 69 62 47 38 29 28 29 28 66
31 36 40 40 42 42 42 39 45 48 47 44 34 46 74 88 95 100 100 100 100 100 100 100 100 95 96 100 100 100 98 99 100 81 72 73 62 49 40 30 29 29 28
34 35 37 39 42 43 44 43 47 44 43 41 33 52 79 87 92 100 100 100 100 93 85 90 85 71 73 89 99 100 100 100 100 98 82 79 77 63 51 42 33 30 31
26 27 27 29 36 39 42 44 44 38 38 39 38 66 88 95 100 100 100 100 100 96 91 87 81 78 75 77 93 100 100 100 100 98 94 80 85 79 68 52 46 34 33
28 27 27 28 28 29 30 32 32 31 33 39 51 84 100 100 100 100 100 100 100 100 100 95 91 90 87 86 91 100 100 100 100 100 100 87 92 91 82 69 58 43 37

GFSGL_500_rhum_042.txt.gz
RH
21 23 23 25 26 31 35 45 54 52 61 67 76 94 95 87 93 100 98 90 58 34 27 22 9 9 10 14 21 42 69 76 60 45 48 42 29 26 25 25 22 22 24
26 27 28 29 33 40 39 48 51 68 75 85 97 91 89 93 100 100 89 58 31 24 30 14 9 11 14 22 36 66 73 80 68 45 42 32 27 26 25 23 26 36 39
33 34 35 40 49 45 48 56 72 74 92 97 88 90 100 100 97 82 59 31 21 26 25 9 11 13 23 33 63 73 80 70 62 44 32 29 24 25 24 29 46 52 62
42 51 52 56 51 50 68 70 72 95 93 87 86 99 100 100 92 69 54 29 24 24 12 11 13 20 30 44 81 84 69 57 42 33 29 26 26 26 32 46 61 77 71
55 61 58 63 57 76 64 76 99 94 87 92 100 100 100 100 100 80 43 27 24 11 11 14 20 27 31 65 84 81 69 43 34 30 28 27 26 34 51 72 74 64 66
64 50 72 68 76 62 87 95 87 83 86 100 100 100 98 94 70 42 30 21 11 11 14 17 28 31 33 60 68 61 44 32 29 28 29 27 33 48 77 83 61 60 22
46 59 73 64 72 97 98 90 97 100 100 100 100 100 100 99 81 43 24 14 10 14 17 26 33 37 59 79 66 46 32 27 27 28 31 29 44 76 82 70 67 27 50
65 63 59 82 99 100 86 98 100 97 100 100 100 98 96 95 59 27 15 10 14 18 25 32 39 67 82 71 56 37 31 26 29 32 32 36 62 91 86 62 64 30 67
54 75 91 100 100 96 98 100 100 100 100 100 100 98 96 76 25 16 12 10 18 25 34 39 61 88 79 69 47 35 29 25 31 38 32 46 82 92 87 62 76 31 75
94 97 100 96 92 80 100 100 100 100 100 100 99 99 74 29 17 12 11 17 21 32 40 47 73 93 80 69 45 37 29 24 33 42 32 53 90 97 91 56 90 34 62
96 91 96 100 100 100 100 100 100 100 98 99 99 58 24 16 12 13 19 21 31 40 49 56 70 94 86 68 48 43 33 24 28 40 32 50 92 98 95 57 84 84 37
100 100 100 100 100 100 100 100 100 100 100 95 72 46 20 14 16 18 24 29 36 44 53 59 77 92 92 74 54 51 39 29 24 34 36 39 87 99 98 79 58 100 82
100 100 100 100 100 100 100 100 100 100 94 62 40 18 16 20 19 23 29 44 45 48 51 61 87 100 98 79 66 60 49 36 25 29 36 34 67 100 100 100 56 87 100
98 100 100 100 100 100 100 100 100 95 77 38 16 18 22 24 26 28 30 50 58 53 55 80 95 99 100 91 77 74 61 49 35 26 32 34 38 95 100 100 92 56 99
100 100 100 100 100 100 100 84 39 18 16 17 22 26 26 28 32 36 48 59 60 68 74 92 99 99 100 99 88 81 72 62 48 33 26 32 32 53 100 100 100 71 71
100 100 100 100 99 77 43 17 14 14 19 25 32 35 34 37 37 40 63 70 76 75 77 84 98 98 98 100 98 94 85 76 63 45 31 26 31 31 69 100 100 100 61
100 100 97 65 28 16 14 14 15 18 25 30 32 40 42 45 43 47 78 86 87 85 93 88 93 100 100 100 100 100 99 88 77 60 45 32 27 31 31 82 100 100 100
75 34 18 19 19 16 14 15 21 25 24 30 33 37 44 48 46 51 87 97 98 94 93 96 100 100 100 100 100 100 100 99 88 72 56 46 34 28 31 30 82 100 100
19 20 25 24 24 16 19 28 32 36 38 39 37 37 46 48 47 51 86 96 97 98 88 92 98 100 100 100 100 100 100 98 96 85 74 66 51 36 28 30 30 77 100
29 31 34 32 23 18 24 30 36 40 42 46 44 41 50 50 48 47 90 100 99 99 99 97 100 100 100 100 100 100 100 99 97 94 84 81 66 52 38 28 29 29 67
39 39 38 28 19 28 32 34 36 38 42 44 49 48 50 49 47 43 78 100 100 100 100 100 100 100 100 100 100 100 100 100 100 98 90 89 69 66 52 40 28 28 28
41 38 27 18 23 30 31 31 32 31 39 43 45 50 48 45 44 45 78 100 100 93 95 100 100 100 100 100 100 99 100 100 99 96 96 99 83 69 67 54 40 28 26
32 20 17 19 24 26 28 29 30 31 32 39 45 48 44 42 40 48 86 100 100 100 100 100 99 98 90 95 94 82 87 96 98 97 96 97 94 78 70 66 55 41 31
16 14 15 20 26 32 32 30 28 30 30 31 34 38 37 38 41 58 98 100 100 100 100 100 99 100 99 92 90 90 86 88 94 100 97 100 89 92 74 69 65 58 42
13 21 26 28 29 30 29 27 27 30 31 31 30 30 31 37 52 80 100 100 100 100 100 100 100 100 100 100 96 98 97 92 90 99 100 96 93 99 79 72 73 67 56
25 24 16 15 17 21 24 25 26 29 30 31 31 31 33 49 74 100 100 100 100 100 100 100 100 100 100 100 98 96 97 100 99 100 100 100 96 96 99 88 87 80 66

GFSGL_500_rhum_045.txt.gz
RH
31 33 32 30 50 60 55 54 59 94 100 57 71 75 72 88 95 82 76 91 100 100 100 94 91 38 10 6 11 13 18 27 28 29 55 62 53 46 32 30 26 23 20
30 33 36 55 91 73 72 62 64 62 61 71 76 84 92 93 92 100 100 100 100 100 100 88 44 21 8 11 13 18 26 31 39 30 55 58 43 34 29 27 24 22 22
39 50 74 100 70 75 63 47 62 68 71 80 96 100 99 88 83 94 93 100 100 100 81 50 23 11 8 14 17 25 31 42 53 48 42 37 31 29 27 26 24 23 26
54 57 66 61 66 51 48 63 66 62 94 100 97 99 90 99 100 100 100 100 100 98 74 39 17 8 12 17 24 30 34 46 56 38 34 28 27 28 27 25 25 34 51
61 61 53 48 41 52 74 65 72 96 99 100 100 98 89 98 100 100 100 99 96 77 40 19 10 10 17 21 29 35 58 54 41 33 28 24 28 31 27 28 35 54 82
53 50 41 51 77 82 68 88 99 96 98 100 85 92 100 100 100 100 99 98 78 35 16 10 13 17 22 28 39 65 51 38 34 29 25 22 29 29 27 40 61 74 66
43 51 74 81 75 89 100 100 100 100 100 100 100 100 100 100 100 100 100 95 50 12 11 13 18 24 29 35 68 69 53 41 31 27 22 23 31 28 33 67 79 73 56
62 68 66 87 100 100 100 100 100 100 100 100 100 100 100 100 100 98 93 77 26 12 16 19 23 30 37 51 85 73 62 43 36 29 22 25 32 30 43 84 82 65 61
63 87 98 99 100 100 100 100 100 100 100 100 100 100 100 100 99 93 61 18 12 16 23 25 28 37 45 65 84 82 65 46 40 30 22 25 32 32 57 90 86 61 67
98 100 100 100 100 100 100 100 100 100 100 100 100 100 100 97 75 33 16 15 18 22 26 30 36 44 51 68 86 89 67 52 45 33 23 26 33 34 71 92 91 66 58
100 100 98 95 100 100 100 100 100 100 100 100 100 99 93 47 19 17 23 23 23 28 36 41 43 52 58 72 95 94 73 61 50 39 27 24 34 34 78 95 94 78 62
96 91 95 100 100 100 100 100 100 100 100 100 74 38 16 15 20 22 28 28 30 35 46 53 52 50 60 83 97 100 80 69 59 50 37 25 31 34 63 98 97 91 57
76 69 66 61 53 68 100 100 100 99 68 32 17 15 16 20 27 29 31 34 40 47 56 63 67 70 84 93 98 97 92 82 73 64 47 32 25 33 40 98 99 100 68
30 24 24 23 38 82 100 96 52 23 21 21 18 17 20 25 30 30 36 41 43 53 69 72 77 74 87 97 97 100 99 95 86 77 63 44 27 28 32 77 100 100 90
4 5 9 17 37 50 32 21 22 23 25 26 19 20 29 30 35 35 39 46 45 55 79 88 89 87 90 100 100 100 100 100 98 88 78 56 38 26 31 36 98 100 100
5 6 8 14 20 23 24 24 30 30 32 25 24 31 40 43 43 39 42 48 47 56 90 88 91 98 99 100 100 100 100 100 100 100 90 69 47 35 28 31 56 100 100
6 8 12 22 28 28 27 27 27 32 29 23 32 38 43 46 52 48 44 51 50 53 94 97 90 92 99 100 100 100 100 100 100 100 100 85 66 48 34 28 31 81 100
7 15 30 42 43 39 35 34 33 27 19 21 34 37 39 42 50 55 50 52 52 53 97 100 99 92 90 97 98 100 100 100 100 100 100 96 80 65 52 34 28 31 87
19 34 55 56 47 44 40 34 26 18 18 21 29 36 36 36 46 55 54 53 53 51 88 100 100 99 98 98 100 100 100 100 100 100 100 100 88 79 65 50 34 28 32
47 68 70 63 54 44 34 23 17 17 19 25 29 32 35 33 43 52 56 52 51 50 90 100 100 98 98 100 100 100 100 100 100 100 100 100 100 91 79 63 50 35 28
70 67 57 48 41 31 20 16 17 20 24 31 34 32 32 32 35 46 51 47 47 50 93 100 100 96 89 95 100 100 100 100 100 100 100 100 100 96 94 70 62 47 36
75 64 51 40 29 17 15 15 25 28 28 31 33 31 29 32 33 38 46 43 42 51 87 100 100 100 98 97 98 97 96 99 85 83 94 97 96 94 95 87 69 59 48
65 50 38 23 16 16 19 25 22 20 22 27 30 28 28 32 32 33 36 37 42 61 95 100 99 96 100 100 99 99 97 93 95 92 85 93 95 95 96 87 84 67 56
48 31 18 18 20 28 26 19 16 17 17 19 25 27 28 32 33 32 32 34 50 80 100 100 100 100 100 100 100 100 100 98 100 98 90 89 94 96 98 92 92 72 64
18 18 19 23 26 24 18 17 20 23 25 27 29 30 30 32 33 32 33 39 67 94 100 100 100 100 100 100 100 100 100 100 100 100 100 99 99 99 97 93 95 94 78
18 19 19 18 18 19 19 20 20 21 23 27 30 32 32 34 34 34 38 59 92 100 100 100 100 100 100 100 100 100 100 100 100 95 94 98 100 100 100 97 91 97 86

GFSGL_500_rhum_048.txt.gz
RH
52 78 97 90 83 96 100 100 100 100 87 74 51 63 72 77 87 95 85 91 91 76 65 88 100 100 100 99 71 34 15 9 12 16 24 24 27 30 38 34 27 26 27
60 74 93 100 100 93 99 89 92 76 56 62 74 81 75 94 96 90 89 94 91 91 100 100 100 100 100 74 28 13 9 16 19 20 24 28 42 33 28 28 28 27 26
92 100 100 96 71 93 62 76 78 57 65 77 77 84 100 100 100 100 100 100 100 100 100 100 100 100 87 52 13 11 17 21 30 29 35 39 34 29 26 22 23 27 27
88 95 100 81 83 70 57 72 69 69 67 86 97 96 95 90 94 99 100 100 100 100 100 100 100 82 32 12 11 17 23 34 42 55 44 38 31 28 23 20 27 28 26
90 95 80 96 67 57 65 66 65 78 91 92 96 91 91 96 98 100 100 100 100 100 100 97 67 28 12 15 19 24 32 42 60 54 49 36 30 24 20 26 27 25 42
90 52 80 79 61 75 64 78 93 98 100 100 99 96 100 100 100 100 100 100 100 100 94 55 20 13 17 23 27 38 46 57 62 53 42 34 29 22 22 27 26 29 72
58 67 74 77 70 90 93 98 100 99 89 94 100 100 100 100 100 100 100 100 97 66 26 15 15 18 25 27 38 51 66 64 52 54 44 38 29 22 22 28 29 40 69
72 61 55 83 100 100 100 94 86 95 100 100 100 100 100 100 100 100 94 50 18 15 14 18 20 25 30 38 50 64 81 79 80 60 50 41 31 22 22 28 33 66 72
50 76 96 100 100 99 93 100 100 100 100 100 88 85 100 100 94 54 21 15 14 15 21 26 28 33 38 48 57 74 90 96 89 68 58 44 34 24 22 28 33 70 82
81 94 100 98 93 94 87 74 65 77 39 37 57 100 97 36 21 21 19 17 18 20 29 33 34 40 52 55 59 70 93 100 98 78 67 52 39 27 22 27 31 77 84
98 98 100 97 76 47 17 4 8 11 12 24 30 30 22 21 22 27 22 20 25 29 36 38 40 47 64 62 63 70 94 100 100 88 78 65 48 33 24 27 30 76 91
100 97 76 43 14 5 4 4 5 7 11 18 22 23 23 24 27 28 21 25 32 36 42 44 46 58 76 77 81 97 100 100 100 98 90 79 63 44 27 26 29 60 84
82 57 27 6 4 4 5 6 7 9 13 24 27 25 29 30 30 23 21 33 41 43 45 50 52 73 82 84 83 95 100 100 100 100 100 93 76 54 36 27 28 45 85
44 21 6 4 5 5 6 7 9 18 29 35 33 34 37 33 24 22 28 35 44 49 46 53 60 76 90 96 99 93 100 100 100 100 100 100 86 66 45 29 30 32 83
14 6 5 5 6 7 8 12 23 38 51 51 49 47 39 27 21 23 34 36 40 49 50 57 63 94 100 100 98 98 100 100 100 100 100 100 94 80 58 43 28 30 70
6 5 6 6 7 9 14 23 44 59 63 60 53 43 30 20 22 26 36 35 35 46 53 59 59 87 100 100 100 95 98 100 100 100 100 100 99 93 73 58 36 28 38
6 6 8 9 12 20 32 48 59 64 62 55 47 30 19 19 20 28 36 37 35 44 54 59 59 74 100 100 100 98 100 99 100 100 100 100 100 99 85 70 54 31 29
7 8 9 10 11 16 29 55 73 69 61 47 32 19 18 21 23 34 40 36 35 44 52 56 57 62 99 100 100 100 100 100 100 100 100 100 100 100 98 83 68 50 30
9 11 12 13 21 48 73 78 75 69 52 34 18 18 20 24 30 36 39 34 34 42 53 53 54 58 93 100 100 100 100 100 100 100 100 100 100 100 100 93 83 64 45
12 12 15 24 49 72 78 72 57 42 24 17 19 22 24 26 29 34 34 31 35 39 54 52 50 54 97 100 100 100 99 100 100 100 100 100 100 100 99 98 95 70 59
13 16 26 41 56 53 42 32 20 17 18 20 26 27 23 19 22 30 31 30 35 36 48 49 47 58 99 100 100 100 100 100 100 98 100 98 96 98 100 100 94 85 69
18 26 36 36 32 22 16 16 17 18 21 25 25 20 17 16 22 26 29 30 34 35 39 43 46 69 100 100 100 100 100 100 100 99 96 91 92 95 99 100 91 89 81
28 33 29 19 16 15 14 12 14 19 22 23 22 21 21 24 27 30 30 32 34 35 36 41 51 83 100 100 100 100 100 100 100 100 97 94 96 97 96 98 97 94 86
34 22 16 15 15 12 9 10 13 17 21 24 25 25 24 24 28 31 33 32 35 36 41 49 71 99 100 100 100 100 100 100 100 100 100 96 100 100 97 96 96 92 88
17 18 14 15 11 10 10 9 11 13 15 18 21 22 23 25 30 33 37 37 37 36 44 70 100 100 100 100 100 100 100 100 100 100 100 100 100 100 100 100 100 100 92
18 16 18 12 10 10 8 9 10 11 13 16 19 20 22 24 28 34 40 41 42 42 46 84 100 100 100 100 100 100 100 100 100 100 100 100 100 100 100 100 99 100 99

GFSGL_500_rhum_051.txt.gz
RH
31 34 55 63 86 81 80 71 78 73 99 100 67 65 60 72 78 87 99 94 92 99 100 94 89 95 86 89 100 100 99 80 44 20 12 14 19 22 23 25 28 21 25
53 66 66 80 82 91 100 85 78 88 95 73 58 73 78 87 100 100 100 100 100 100 95 100 95 84 96 100 100 96 51 26 15 13 19 22 26 29 32 28 30 28 25
81 75 84 87 90 95 96 95 76 74 72 78 84 89 97 100 90 93 98 100 100 99 100 100 100 100 100 97 59 29 17 14 17 21 24 29 33 45 35 31 28 25 20
78 90 79 90 94 90 93 93 72 75 88 85 95 100 93 93 99 97 92 91 97 100 97 100 100 98 55 18 14 16 18 19 25 29 36 39 57 50 40 32 28 21 20
81 80 99 86 83 76 80 76 84 87 88 95 94 94 93 97 98 93 98 100 94 57 91 97 55 17 13 13 14 19 23 26 30 40 47 68 75 55 40 33 26 20 25
74 71 55 55 46 50 74 60 69 89 93 100 100 82 95 94 100 96 70 48 25 59 25 16 16 16 14 16 24 28 29 33 40 50 77 86 79 49 42 32 26 20 25
26 28 41 48 44 48 59 79 88 95 93 84 81 69 56 82 49 68 17 12 17 20 18 19 20 17 20 25 34 36 37 42 47 57 88 82 76 55 45 34 24 22 25
33 45 53 40 46 69 88 96 99 94 100 100 52 6 5 14 10 8 11 18 21 23 23 23 19 22 27 34 39 41 49 53 55 67 80 91 78 63 52 38 25 25 27
44 38 34 47 78 98 99 97 89 72 40 10 6 5 6 6 9 12 20 24 30 34 31 22 20 28 35 41 44 46 63 60 62 79 89 95 84 71 56 43 27 23 28
32 35 66 84 93 97 91 74 37 10 6 5 6 6 7 9 16 26 35 34 38 39 28 21 25 34 42 44 47 55 73 70 72 94 97 91 90 78 64 49 34 24 27
48 78 98 100 97 84 54 20 8 6 6 6 6 8 11 20 35 52 55 52 47 36 24 21 30 38 46 47 50 65 80 84 94 100 100 100 98 87 79 59 41 26 26
84 95 95 87 72 42 18 7 6 6 6 7 9 12 21 39 59 67 62 50 43 31 20 22 33 39 48 49 52 67 90 91 95 100 100 100 96 90 90 74 51 32 25
93 89 81 62 37 16 7 6 6 7 8 10 12 18 33 62 78 74 63 52 39 23 19 26 36 37 52 53 54 82 97 97 99 100 100 100 94 94 96 89 63 42 26
88 79 63 41 18 8 6 6 8 10 12 14 20 35 59 81 89 81 67 51 31 20 20 29 41 38 52 56 56 80 100 93 100 100 100 98 97 98 96 95 75 53 33
79 61 38 19 10 7 8 9 10 12 16 19 31 63 92 96 90 80 60 40 22 20 21 37 46 40 51 59 59 77 100 99 100 94 98 99 100 100 99 96 83 64 44
60 37 18 9 8 8 9 10 12 15 18 34 62 91 92 86 71 52 32 22 21 25 28 43 45 41 53 60 62 76 100 100 100 98 99 97 100 100 100 96 90 78 57
35 16 9 8 9 10 12 12 12 12 20 34 49 56 52 40 28 22 22 25 26 27 34 42 42 44 58 62 61 73 100 100 100 100 99 99 100 98 100 98 95 91 70
14 9 9 9 10 11 12 12 14 19 22 23 24 20 18 19 19 21 24 28 28 27 34 37 37 44 62 64 61 71 100 100 100 100 100 100 100 100 99 97 96 97 85
9 9 10 11 12 12 13 17 23 25 20 15 14 13 12 14 20 24 27 27 22 23 32 34 34 43 64 64 60 70 100 100 100 100 99 98 98 100 100 100 99 99 94
10 10 12 12 13 14 19 21 20 15 14 13 10 7 7 13 22 24 22 21 23 25 31 32 33 40 56 61 60 77 100 100 100 100 99 99 100 100 99 97 96 94 95
11 13 13 13 15 19 20 14 14 12 12 10 8 7 8 12 20 24 24 27 34 37 34 32 33 40 47 54 65 90 100 100 100 100 100 100 100 100 90 88 91 94 91
14 13 13 17 19 17 14 14 12 14 11 9 8 8 10 11 14 19 24 30 39 42 35 32 35 38 45 54 70 100 100 100 100 100 100 100 100 100 96 93 91 94 97
14 18 22 23 16 15 15 15 15 10 10 9 8 8 9 12 14 15 20 26 32 38 36 36 37 39 48 71 90 100 100 100 100 100 100 100 100 100 99 97 96 94 98
24 27 26 16 17 17 20 18 10 10 9 8 7 7 8 12 18 19 19 20 26 37 41 39 40 43 71 92 100 100 100 100 100 100 100 100 100 100 100 100 100 100 100
33 26 19 22 23 22 26 15 10 9 8 7 7 8 10 11 19 26 28 27 25 36 42 44 44 48 84 100 100 100 100 100 100 100 100 100 100 100 100 100 100 100 99
27 21 27 28 26 24 28 16 10 10 9 9 8 10 14 10 14 30 37 36 38 46 51 49 48 51 77 100 100 100 100 100 100 100 100 100 100 100 100 100 99 100 99

GFSGL_500_rhum_054.txt.gz
RH
48 49 56 54 73 91 99 100 100 100 93 87 100 100 100 99 84 82 90 90 100 92 97 100 100 100 81 19 9 14 14 11 12 12 13 15 18 18 18 22 24 28 29
71 84 78 80 93 97 95 98 100 100 97 100 100 100 100 97 85 92 100 94 89 99 94 80 56 18 29 7 9 13 14 14 13 13 15 20 23 24 26 30 38 38 28
81 93 91 93 92 92 78 95 84 79 97 98 83 66 74 83 91 96 88 96 90 70 24 24 10 10 8 11 14 16 17 14 14 16 23 29 30 33 38 47 48 38 38
87 86 80 70 73 79 100 83 52 97 88 83 62 85 82 94 91 88 94 98 88 7 6 6 7 8 11 16 23 22 15 15 20 24 30 32 35 43 50 49 59 50 44
68 44 50 55 70 60 68 37 58 62 49 53 77 95 97 99 99 100 100 97 6 5 6 8 9 13 20 29 32 21 16 22 27 32 37 38 49 54 66 66 63 56 43
19 18 18 21 45 29 40 44 46 39 43 83 100 96 100 93 72 44 11 6 6 7 8 10 15 27 38 41 30 20 20 30 34 37 41 49 59 65 81 82 69 55 44
7 8 9 13 24 36 39 34 33 56 90 95 100 96 72 33 10 6 6 7 8 9 11 18 35 48 46 38 26 19 29 37 40 42 48 60 62 76 85 90 71 63 47
9 11 16 30 38 37 32 46 85 91 83 92 81 53 18 8 6 6 7 8 9 13 26 43 58 58 48 37 21 21 35 43 42 45 56 66 61 73 85 92 82 72 50
11 17 29 37 34 39 67 84 83 100 100 85 45 16 7 7 7 8 9 10 14 31 53 77 81 67 53 36 20 27 39 47 46 52 67 73 73 83 94 95 89 76 55
17 29 36 36 51 70 82 94 98 87 66 35 12 8 7 8 8 10 12 17 29 51 83 100 94 78 58 29 20 33 39 50 53 58 77 80 78 90 95 94 87 78 62
34 37 40 48 61 84 94 89 80 61 32 15 10 8 8 9 11 15 25 35 57 80 100 100 99 80 51 24 23 39 39 52 58 63 83 88 84 89 92 97 92 82 70
42 44 50 65 83 89 85 80 64 39 21 10 8 8 10 12 16 21 34 58 81 94 100 99 85 57 31 23 28 41 40 55 61 70 90 94 92 97 99 100 97 85 77
44 48 63 82 87 83 79 66 42 20 11 9 9 10 11 12 16 32 37 48 62 70 72 63 48 32 26 24 34 46 43 57 64 84 99 92 95 100 100 100 100 89 88
53 70 82 84 82 79 70 51 28 13 10 9 10 11 12 11 15 24 36 42 41 36 30 26 25 25 26 30 45 51 46 60 66 90 100 97 99 100 100 100 100 98 100
76 82 81 79 76 68 48 23 12 9 10 11 12 12 12 12 17 24 21 18 18 20 23 24 24 25 30 38 48 51 47 63 67 82 100 100 100 100 99 99 100 100 98
82 80 75 70 66 47 26 13 10 11 12 13 13 17 16 20 17 15 14 14 12 14 22 66 31 30 34 36 45 47 49 68 68 73 100 98 100 100 100 100 99 100 100
87 87 80 67 47 22 13 11 10 11 12 10 13 14 14 12 12 13 12 7 6 9 20 29 30 30 30 33 42 43 54 70 67 73 100 100 100 100 100 100 100 100 98
94 94 83 51 30 17 11 12 12 10 8 8 10 11 12 12 12 12 8 6 6 12 22 26 27 32 29 37 38 42 58 70 67 79 100 100 100 100 100 100 100 100 99
100 96 73 33 14 12 12 12 10 11 12 10 10 11 13 13 11 10 8 8 8 12 22 25 29 38 41 39 36 44 60 71 69 90 100 100 100 100 100 100 97 96 98
99 88 48 18 12 13 12 12 13 15 12 13 14 14 14 9 9 8 8 8 10 12 21 26 42 38 35 36 37 47 59 68 74 99 100 100 100 100 100 99 97 88 96
92 55 18 13 14 13 14 17 16 13 15 17 17 22 12 8 7 6 7 8 11 13 19 28 40 41 38 36 36 46 58 67 83 100 100 100 100 100 100 100 95 90 93
44 15 14 14 14 18 21 17 15 18 20 19 19 24 12 9 8 8 8 8 12 17 17 26 42 46 40 38 38 46 60 86 100 100 100 100 100 100 100 100 99 96 94
15 15 15 17 21 23 17 17 21 21 19 14 18 24 15 9 9 9 9 12 15 23 26 26 40 69 58 44 45 55 72 100 100 100 100 100 100 100 100 100 100 100 100
15 16 22 25 22 17 21 23 22 18 10 10 20 22 17 12 11 10 13 17 17 29 42 41 39 50 59 50 52 69 100 100 100 100 100 100 100 100 100 100 100 100 99
20 27 28 21 19 25 24 23 17 9 9 16 22 21 17 15 13 14 19 21 17 26 87 76 55 56 59 60 62 87 100 100 100 100 100 100 100 100 100 100 100 100 100
32 29 21 22 28 26 24 18 10 8 12 19 21 20 18 16 19 23 26 25 20 26 98 100 95 55 61 73 74 94 100 100 100 100 100 100 100 100 100 100 100 100 98

GFSGL_500_rhum_057.txt.gz
RH
28 28 59 89 86 88 97 97 91 98 100 98 100 100 100 94 99 94 98 98 84 85 93 94 96 87 88 26 5 6 8 9 11 18 25 22 15 18 22 26 29 30 32
28 41 69 86 94 98 99 100 100 100 99 99 100 100 89 100 93 90 100 75 88 100 100 97 58 15 6 6 7 9 10 15 25 31 28 20 17 27 29 33 37 40 45
50 54 72 96 100 97 78 89 96 99 100 100 100 80 74 85 100 100 86 100 100 100 83 29 8 6 6 8 9 12 17 30 41 40 29 17 26 32 37 41 50 60 72
45 70 81 87 86 66 82 77 56 71 100 71 71 64 91 95 62 82 100 100 100 78 24 10 7 7 8 10 12 22 35 54 54 45 27 19 33 37 42 48 60 88 77
59 44 33 19 19 16 20 14 14 21 37 52 49 38 48 81 93 87 96 91 71 26 11 8 8 9 11 15 24 41 67 75 65 53 22 25 38 43 47 57 57 86 94
16 12 10 8 9 10 11 13 18 34 40 36 37 68 81 94 100 100 100 86 29 10 8 8 9 11 16 25 43 72 92 93 77 51 20 32 42 46 56 60 63 80 96
10 8 9 9 10 10 12 20 32 36 36 57 62 83 95 98 98 94 75 37 14 9 8 10 11 16 26 41 70 88 99 98 76 40 20 35 43 50 65 69 72 85 92
10 10 11 11 12 13 19 30 35 40 50 77 99 98 91 100 100 85 27 16 10 8 10 12 14 24 45 71 82 97 100 93 60 31 23 36 47 53 71 76 80 86 95
13 13 13 14 16 21 30 40 43 49 60 78 89 88 85 72 49 30 14 10 9 10 11 14 21 36 50 59 72 90 84 71 46 25 27 38 49 56 77 79 80 84 87
17 17 18 20 23 31 37 40 43 58 81 85 83 80 72 55 26 14 10 9 10 11 12 17 29 36 44 53 55 59 55 43 30 24 35 41 52 62 87 88 85 83 83
24 28 29 28 34 39 41 47 69 80 79 75 70 67 50 29 15 10 10 11 11 11 13 21 30 39 39 34 32 31 31 31 29 27 46 47 57 70 92 93 90 82 84
39 37 35 37 40 42 51 73 77 71 66 63 61 52 30 16 11 11 11 12 12 14 16 19 25 26 23 22 25 29 31 35 31 35 52 56 62 82 96 92 91 85 86
44 41 41 43 45 54 72 77 80 79 75 68 56 45 34 18 13 12 11 12 13 13 14 16 16 17 19 18 23 30 34 40 34 44 54 64 67 93 100 96 97 91 95
47 48 48 50 57 73 81 84 85 84 79 70 59 47 34 16 11 9 8 8 8 10 13 14 15 14 10 12 25 98 52 44 44 47 54 68 73 97 100 96 100 96 98
52 52 53 61 77 87 90 90 88 83 77 68 51 29 16 12 9 8 7 8 9 11 11 13 10 7 8 17 44 60 69 39 43 46 51 70 77 97 100 98 100 100 99
59 58 65 82 88 88 91 93 90 86 70 44 19 13 11 9 9 8 8 11 14 14 11 9 8 8 11 30 51 46 38 36 37 44 51 73 77 90 100 100 100 98 100
66 75 85 86 90 92 93 89 84 76 38 16 13 10 10 10 9 11 13 13 16 10 9 8 8 8 14 24 28 29 37 34 38 42 58 76 78 95 100 100 100 98 99
86 90 91 94 97 96 89 82 76 47 19 13 10 10 9 9 12 14 15 16 19 9 8 7 8 9 13 22 30 41 34 41 38 43 70 78 81 100 100 100 100 99 100
91 97 99 100 98 91 87 77 41 19 14 10 10 10 10 13 15 15 12 18 20 9 8 8 9 11 15 23 32 39 44 41 38 51 74 79 88 100 100 100 99 100 100
99 100 100 98 97 94 70 32 21 14 12 12 10 10 12 12 13 8 9 22 17 9 9 9 10 15 18 25 32 39 47 42 43 58 75 83 100 100 100 100 100 100 100
100 100 100 100 94 65 39 28 15 14 14 12 14 17 16 14 8 6 8 21 20 13 10 10 13 20 22 32 52 55 42 40 46 63 76 92 100 100 100 100 100 100 100
100 100 100 89 67 49 27 15 17 16 14 17 21 21 16 10 7 8 13 19 18 15 12 14 18 22 32 54 81 60 44 44 55 75 94 100 100 100 100 100 100 100 100
100 98 89 76 47 22 17 20 18 16 18 25 25 22 14 9 8 9 13 16 16 15 17 21 23 40 63 69 87 88 59 51 75 100 100 100 100 100 100 100 100 100 100
97 92 70 38 20 21 24 21 18 19 26 29 29 22 12 10 10 10 14 18 18 21 23 28 28 62 93 90 92 100 74 60 82 100 100 100 100 100 100 100 100 100 100
88 60 33 22 26 28 25 22 22 24 32 33 33 20 12 12 12 14 19 19 22 24 31 34 28 56 100 100 99 100 85 73 100 100 100 100 100 100 100 100 100 100 99
48 27 26 32 34 31 26 24 25 33 36 36 32 17 14 14 15 19 21 22 26 36 40 40 28 35 100 100 100 100 100 88 100 100 100 100 100 100 100 100 100 100 100

GFSGL_500_rhum_060.txt.gz
RH
21 22 27 30 32 45 68 95 95 99 95 90 88 96 99 100 100 100 87 93 67 65 95 100 81 83 97 99 77 22 13 10 9 10 11 17 20 35 59 47 21 16 25
26 32 54 47 35 54 65 92 99 96 86 100 99 99 100 98 89 78 100 70 58 100 98 90 100 100 100 99 35 12 8 9 10 11 18 31 42 65 66 46 17 23 30
76 64 54 34 33 47 70 88 83 83 90 99 77 99 96 59 26 88 48 53 63 82 77 91 100 100 100 59 14 9 9 10 13 19 28 44 63 82 66 38 18 30 35
73 44 38 40 48 62 41 21 10 24 22 59 31 31 69 42 58 78 53 80 84 93 96 100 100 100 100 16 10 9 10 13 21 34 41 49 78 84 65 32 21 35 41
50 54 63 58 43 22 14 9 9 10 11 16 24 32 38 39 43 66 91 90 92 99 100 100 99 56 19 11 9 10 12 19 31 40 43 55 73 73 57 28 24 39 50
64 68 59 19 12 9 10 11 12 13 15 18 26 35 38 50 68 99 100 100 96 92 82 62 42 25 14 10 11 12 17 30 36 39 42 50 59 60 46 25 28 44 55
35 20 13 10 11 12 13 14 15 17 20 25 31 39 45 51 70 93 89 80 74 68 59 43 25 15 12 11 13 15 23 34 39 43 44 44 44 42 32 25 35 49 65
16 13 11 13 15 18 17 20 24 26 28 34 41 42 51 72 78 73 68 63 60 54 43 30 18 12 12 13 15 18 25 32 36 33 29 29 30 31 30 29 42 55 80
13 14 17 20 22 23 29 36 34 33 34 37 41 47 65 73 70 73 74 68 63 54 41 26 16 12 12 15 17 18 20 25 27 23 26 27 28 34 34 39 51 59 89
18 19 24 33 36 40 42 40 38 38 40 43 50 65 73 78 82 76 70 67 63 54 31 15 12 11 12 13 12 15 16 22 24 23 23 28 35 42 41 49 59 71 88
20 31 38 43 47 47 45 43 43 44 47 53 66 79 83 81 80 72 70 66 48 28 19 12 9 10 9 10 13 16 19 22 22 21 25 34 52 50 49 55 70 89 88
32 39 46 49 48 50 50 48 49 50 57 73 83 82 81 79 74 72 66 38 19 15 11 8 8 8 10 12 15 15 16 15 15 22 42 90 79 55 57 62 76 97 94
40 46 48 50 54 55 56 57 57 62 76 81 76 78 75 71 70 68 49 29 17 10 9 7 8 10 13 14 12 11 9 10 72 59 100 98 100 61 58 71 87 98 97
47 49 53 58 62 64 66 66 71 77 77 76 73 73 72 74 72 56 44 34 17 10 7 7 10 12 15 15 9 8 8 11 19 47 79 98 91 66 57 78 91 100 97
48 53 62 67 72 73 71 74 74 71 73 74 71 73 75 74 62 51 39 23 13 7 6 9 11 12 16 12 8 8 8 11 27 54 62 64 51 49 61 83 97 100 98
63 69 74 80 79 76 74 70 78 78 76 75 79 82 78 65 52 35 19 12 8 8 10 10 8 9 18 11 8 8 9 14 27 37 41 41 38 47 70 84 94 100 99
77 78 84 84 79 74 77 79 78 73 82 93 92 80 67 50 27 17 13 8 9 11 12 10 6 12 19 10 8 9 11 14 24 37 43 40 45 52 82 85 94 100 99
81 86 87 80 77 83 84 81 84 89 93 91 80 68 46 24 16 13 9 10 13 15 12 7 7 18 17 10 10 11 16 20 32 41 43 47 45 66 86 88 97 99 100
91 94 87 84 85 84 86 91 93 92 88 78 70 48 26 16 13 10 14 17 18 15 10 7 11 19 17 12 12 15 19 25 32 45 40 46 56 79 89 94 100 100 100
96 92 90 89 90 94 94 92 91 88 80 70 48 26 16 14 11 15 20 23 21 14 9 8 10 17 16 14 17 24 32 32 39 55 58 57 73 89 97 100 100 100 100
97 96 94 97 97 95 95 95 88 81 70 47 26 18 16 12 15 19 26 27 24 15 9 10 11 16 17 21 24 32 54 61 58 76 52 63 91 100 100 100 100 100 100
96 97 99 99 99 99 96 88 82 68 48 27 20 17 14 17 20 25 31 32 24 14 12 12 16 17 20 27 28 42 98 99 94 77 51 77 100 100 100 100 100 100 100
100 100 100 100 99 95 90 85 69 46 27 23 17 16 20 21 24 33 36 33 21 16 14 16 18 20 22 29 36 67 100 100 100 97 70 100 100 100 100 100 100 100 100
100 100 100 97 96 93 85 68 40 28 26 20 19 22 23 24 33 40 38 26 21 19 18 20 22 27 34 38 47 98 100 100 100 100 100 100 100 100 100 100 100 100 100
100 98 96 95 93 83 59 35 32 29 25 23 24 25 26 35 45 41 31 26 24 21 22 23 29 37 41 42 41 100 100 100 100 100 100 100 100 100 100 100 100 100 100
98 97 95 90 75 46 36 37 34 29 27 28 28 30 41 50 43 34 32 31 25 24 27 30 40 44 44 33 30 98 100 100 100 100 100 100 100 100 100 100 100 100 100

GFSGL_500_rhum_063.txt.gz
RH
21 20 26 37 46 38 40 59 66 65 49 68 87 77 97 98 96 89 96 100 100 100 99 66 40 46 66 84 79 90 97 100 85 62 32 16 12 12 13 14 18 18 18
22 22 29 24 31 41 54 53 42 37 53 60 45 41 80 68 72 99 92 81 99 96 75 45 47 68 100 100 99 96 84 66 42 32 19 12 12 14 18 20 23 25 26
35 42 55 71 83 83 62 38 38 50 58 29 14 26 55 21 14 22 15 45 23 32 38 45 81 100 100 100 86 61 55 41 27 21 17 13 13 18 23 28 26 28 30
99 100 96 84 68 48 58 54 66 56 22 11 10 10 12 13 16 20 28 34 38 47 58 93 96 94 95 70 63 56 40 31 24 16 12 13 15 21 33 36 35 32 26
24 35 52 54 63 72 89 94 54 14 11 11 13 15 19 23 26 31 35 40 46 54 70 87 82 76 71 67 60 46 32 21 14 13 14 17 18 28 40 39 32 28 26
59 75 100 100 88 77 60 19 12 13 14 17 19 28 31 33 35 38 39 42 48 70 84 79 82 69 63 60 55 39 20 13 12 14 14 14 17 21 25 27 27 26 25
44 32 42 45 38 17 13 13 16 20 22 26 36 39 39 39 40 41 43 49 67 82 88 83 68 65 65 52 34 28 22 13 10 10 9 14 18 22 26 27 27 26 33
33 47 44 35 17 13 16 20 25 32 37 43 44 44 44 43 44 47 55 75 88 89 77 66 59 61 54 38 30 18 11 10 9 10 11 14 18 22 25 26 24 30 42
44 40 25 16 15 20 22 32 41 45 47 44 46 49 50 50 51 61 78 85 84 74 62 58 63 59 46 32 17 13 9 7 12 18 17 18 17 20 22 22 34 44 52
29 20 17 19 23 27 36 41 46 41 41 50 56 57 57 57 60 74 85 83 71 62 56 60 62 54 43 29 18 12 7 9 13 17 17 13 16 18 20 44 76 71 57
20 19 20 21 24 31 39 38 37 41 50 58 62 65 65 68 72 73 77 72 60 53 57 59 55 45 31 20 11 6 8 11 13 17 11 11 10 23 48 99 100 93 62
20 21 21 24 28 34 36 37 43 54 65 69 71 70 69 75 71 68 66 62 63 64 64 57 48 35 25 14 6 8 10 9 11 14 9 9 20 73 100 91 80 71 62
21 21 24 28 39 39 41 50 59 68 71 73 72 69 69 70 63 57 58 63 66 64 58 50 34 23 12 7 8 10 10 6 15 11 9 11 78 87 78 80 94 72 61
23 25 32 44 47 51 62 69 72 76 77 74 70 68 67 64 60 63 63 64 63 62 54 38 25 14 7 8 10 12 7 10 16 9 8 11 22 44 58 65 53 48 56
31 41 50 59 70 76 74 74 77 80 78 74 69 66 64 65 66 66 67 67 63 57 44 28 16 8 8 12 13 11 6 15 15 8 9 13 45 64 66 43 38 45 63
53 62 74 82 79 75 74 75 81 75 74 74 70 69 70 71 73 74 72 67 59 43 27 16 9 11 15 17 15 8 8 17 14 10 11 19 46 65 60 43 41 51 80
76 86 88 77 75 76 73 76 72 78 83 79 78 76 81 82 81 76 69 62 44 24 15 10 11 15 20 21 15 9 11 16 17 13 18 32 43 67 60 49 50 71 88
97 100 87 78 78 79 80 88 90 90 86 81 76 82 88 87 77 74 65 44 24 15 11 12 16 22 27 24 14 10 14 18 17 19 32 56 75 70 69 51 57 84 93
97 98 82 88 95 91 94 97 99 95 94 94 95 91 83 77 75 68 44 24 17 12 12 17 22 30 30 22 14 13 17 19 31 69 70 52 50 63 59 53 78 96 100
100 90 92 100 99 99 99 100 99 99 99 99 95 86 84 80 68 42 24 18 13 14 18 21 28 35 31 20 16 17 20 26 62 100 100 74 58 68 68 75 98 100 100
99 100 100 99 99 100 100 100 100 100 100 96 92 86 85 66 39 25 18 15 16 18 22 28 39 36 24 21 18 20 25 34 60 100 100 68 79 89 76 100 100 100 100
100 100 100 100 100 100 100 100 100 99 99 96 93 86 59 32 26 21 18 19 21 24 32 42 40 29 25 22 21 23 27 35 61 100 100 93 98 79 99 100 100 100 100
100 100 100 100 100 100 100 100 100 100 99 94 79 50 33 29 24 22 21 23 27 36 47 44 34 30 27 23 24 29 36 41 68 100 100 100 100 98 100 100 100 100 100
100 100 100 100 100 100 100 100 100 99 91 65 39 36 33 27 24 24 26 32 43 51 47 38 34 33 25 27 33 41 45 46 59 100 100 100 100 100 100 100 100 100 100
100 100 100 100 100 100 100 100 95 76 45 34 34 31 26 25 27 33 41 50 55 48 42 42 39 28 27 34 45 48 47 41 71 100 100 100 100 100 100 100 100 100 100
100 100 100 98 97 96 89 70 42 27 29 28 26 25 29 35 43 49 54 54 46 46 50 45 32 28 33 44 51 47 44 36 79 100 100 100 100 100 100 100 100 100 100

GFSGL_500_rhum_066.txt.gz
RH
20 20 20 19 21 61 92 71 38 72 80 84 51 45 46 50 24 18 28 76 100 48 17 22 27 32 93 60 41 54 67 100 82 76 63 56 57 49 34 21 14 12 11
31 34 66 97 93 76 44 69 72 92 93 83 63 54 60 41 15 11 11 15 14 16 19 24 29 36 41 46 53 72 87 85 82 64 53 51 47 33 24 16 13 11 9
51 94 85 92 94 83 89 91 82 68 57 61 71 80 65 14 11 13 15 17 25 31 33 36 39 40 44 53 74 84 89 84 60 52 46 44 43 33 20 14 10 8 9
35 57 59 64 78 41 30 37 58 56 73 87 88 39 13 13 15 18 26 37 38 38 40 41 42 46 56 76 84 88 76 59 53 56 50 43 36 24 13 9 9 11 14
46 42 23 36 29 53 81 92 98 96 84 62 21 13 16 20 25 35 39 40 43 45 45 46 49 59 72 89 92 76 60 54 60 54 44 30 22 12 9 9 14 17 18
24 26 16 37 89 100 100 95 63 49 24 14 16 21 27 36 38 36 36 44 47 50 51 53 60 74 90 84 72 58 51 51 48 45 38 27 15 8 10 13 15 19 17
27 60 75 88 86 70 78 47 37 20 16 21 25 36 37 35 31 35 44 50 56 59 59 63 75 88 84 72 60 55 52 54 49 34 26 18 9 8 12 15 18 20 18
50 48 32 22 29 44 45 41 22 19 25 28 37 37 32 28 35 48 57 61 64 65 67 77 76 72 66 59 51 46 47 49 42 31 18 8 8 11 13 16 18 15 13
24 25 34 44 49 49 35 21 20 24 28 33 34 31 33 38 54 66 69 68 65 64 67 66 65 61 58 57 51 50 48 46 33 19 8 9 11 11 12 16 21 14 17
36 41 45 48 38 22 20 21 22 24 29 35 36 40 45 54 65 70 68 66 59 59 64 64 62 58 56 56 57 54 48 38 28 12 7 10 11 8 13 18 16 19 50
41 44 34 22 21 21 22 24 25 27 37 45 47 58 68 64 61 64 72 65 62 62 62 60 60 60 58 57 59 53 41 30 14 7 9 12 9 9 14 11 20 43 58
38 24 21 21 21 23 24 25 28 42 50 56 72 75 70 65 60 68 73 70 68 65 64 63 62 60 57 58 55 46 33 16 7 9 13 12 8 14 11 10 18 80 90
25 21 21 22 22 23 25 31 46 56 68 81 77 73 70 72 66 71 72 74 72 68 66 66 66 63 59 57 48 31 14 8 10 13 16 11 10 15 10 10 50 100 69
19 20 22 23 26 28 38 53 61 71 81 72 70 70 72 75 73 76 78 74 71 73 75 75 68 64 61 54 37 16 8 10 13 17 17 10 14 14 10 18 52 67 48
23 25 26 28 32 41 53 64 76 96 86 79 76 78 85 84 78 78 78 78 77 79 76 70 65 62 57 41 16 9 11 15 20 21 18 10 14 13 13 66 100 74 66
29 32 33 38 50 60 74 88 98 100 96 85 82 87 87 86 82 84 88 83 82 82 74 69 66 59 40 15 10 11 16 21 28 26 18 12 18 19 49 67 80 78 80
40 44 55 77 95 98 98 100 100 100 94 90 91 97 96 93 87 86 87 89 87 78 74 72 59 34 14 12 13 17 22 33 34 22 16 17 67 57 76 91 75 75 66
74 90 99 100 100 100 100 100 100 92 87 93 98 98 96 100 100 93 95 94 86 82 76 55 28 14 13 15 19 23 35 39 28 20 36 54 80 76 94 97 93 77 72
99 100 100 100 100 100 100 100 100 100 99 98 96 92 92 97 98 95 93 88 85 75 50 23 15 15 17 21 26 35 44 37 25 21 24 39 72 99 100 96 88 81 76
100 100 100 100 100 100 100 100 100 100 100 100 100 100 100 99 98 98 96 90 68 36 17 16 16 20 25 31 39 47 43 31 26 23 29 50 100 100 100 100 90 99 94
100 100 100 100 100 100 100 100 100 100 100 100 100 98 100 100 100 96 81 45 20 16 16 18 24 29 35 44 49 46 36 32 24 26 34 88 100 100 100 100 100 100 100
100 100 100 100 100 100 100 100 100 100 100 100 100 100 98 95 83 54 22 16 18 20 24 29 32 38 44 49 43 40 39 28 26 30 35 72 100 100 100 98 100 100 100
100 100 100 100 100 100 100 100 100 99 99 100 98 92 79 52 20 15 17 19 24 29 32 36 38 40 42 44 46 42 32 28 32 44 47 70 100 100 99 100 100 100 100
100 100 100 100 100 100 100 99 100 98 91 84 70 43 19 13 15 17 21 26 30 30 33 33 34 38 45 52 49 36 29 34 48 50 51 57 100 100 100 100 100 100 100
100 100 100 100 100 99 98 91 82 72 55 33 15 12 14 15 18 23 26 23 23 26 31 35 41 50 58 56 39 31 35 44 53 52 48 48 100 100 100 100 100 100 100
100 100 100 98 91 81 72 59 41 22 12 11 12 14 15 16 17 17 18 20 25 31 39 47 57 64 61 43 32 37 42 50 55 48 45 47 98 100 100 100 100 100 100

GFSGL_500_rhum_069.txt.gz
RH
23 20 22 19 19 23 38 56 94 98 98 85 58 70 61 52 63 75 68 29 11 12 15 18 28 36 39 38 40 43 44 47 48 54 64 79 82 71 57 51 48 44 39
40 54 86 72 74 88 98 96 99 64 51 48 61 45 52 69 77 76 26 12 14 18 24 34 39 36 40 45 47 49 51 55 57 58 70 77 70 54 48 44 42 39 35
88 98 96 85 94 84 94 76 82 67 57 53 76 88 88 80 66 25 14 18 24 33 35 29 28 34 45 53 56 57 59 61 68 62 61 65 54 48 42 40 38 36 30
42 49 72 70 83 89 75 61 56 36 77 89 98 100 76 46 20 15 20 31 35 31 24 27 39 48 52 55 57 54 57 61 65 67 60 53 47 47 46 42 38 32 18
33 36 42 43 45 53 58 58 49 87 94 95 88 56 31 16 16 22 32 33 25 21 31 42 50 51 52 52 49 50 53 60 62 58 52 47 45 44 46 42 34 17 9
33 35 36 30 35 42 46 77 100 100 80 65 40 32 16 15 19 29 31 23 24 30 40 53 50 51 54 52 52 55 62 60 59 55 50 49 43 42 44 36 17 8 9
21 24 28 28 33 40 43 49 54 34 29 36 30 17 17 20 28 33 30 28 32 46 58 53 55 58 58 58 60 64 66 67 68 61 55 50 47 48 41 20 8 10 13
17 16 15 16 18 20 20 19 20 26 34 30 19 18 21 27 30 34 33 37 54 58 56 54 55 58 61 61 63 64 64 66 65 61 55 52 52 44 20 8 9 13 12
17 18 18 20 23 25 27 31 37 40 26 22 22 22 24 26 33 39 44 59 62 58 61 63 63 63 65 67 67 66 64 64 61 58 55 54 47 26 9 10 12 14 9
14 18 22 25 30 34 39 42 31 23 23 22 22 22 25 32 48 57 70 72 61 68 67 68 75 74 74 76 70 67 63 63 61 57 54 51 30 10 9 13 17 12 10
21 17 23 27 31 35 34 21 20 21 22 22 23 24 32 46 61 74 75 68 64 67 73 82 84 81 78 78 78 73 68 65 61 54 52 39 12 8 11 16 17 11 13
21 17 21 32 39 40 24 20 21 23 25 26 29 34 52 64 82 87 80 74 74 76 83 86 85 85 82 80 76 74 75 69 60 58 40 12 9 11 16 20 16 13 14
23 25 19 21 31 25 21 23 24 26 28 33 46 58 60 73 88 97 98 91 87 87 87 89 87 87 83 78 78 82 76 68 63 38 11 10 13 17 21 23 15 14 14
37 33 22 21 20 24 27 29 32 34 41 62 82 94 95 98 99 100 98 94 91 87 88 87 88 90 86 85 85 79 74 64 33 10 10 14 18 22 28 23 13 15 14
53 40 32 33 36 38 38 39 40 52 79 97 100 99 97 100 100 97 90 95 86 87 92 92 92 92 88 85 84 78 61 23 11 12 16 21 26 34 31 18 20 22 51
61 54 56 65 66 56 55 61 81 97 100 100 100 100 100 100 100 95 94 97 94 92 89 90 94 89 85 85 76 52 18 11 13 20 24 28 37 39 26 26 87 100 100
92 87 86 82 78 76 82 95 100 100 100 98 99 100 100 100 100 97 100 99 95 95 96 95 91 92 89 72 40 14 11 15 20 24 36 44 44 35 78 99 84 83 100
100 100 100 100 99 100 100 100 100 100 100 100 100 100 100 100 100 98 98 100 100 100 97 97 97 88 56 22 12 13 15 19 24 30 39 49 39 32 54 100 100 100 100
100 99 100 100 100 100 100 100 100 100 100 100 100 100 100 100 100 100 100 100 100 100 100 94 70 34 13 13 14 15 17 19 25 30 41 41 35 30 50 91 100 100 100
100 100 100 100 100 100 100 100 100 100 100 100 100 100 100 100 100 100 99 96 94 87 68 41 16 12 13 14 14 13 15 22 28 34 39 39 31 28 58 98 100 100 100
100 100 100 100 100 100 100 100 100 100 100 100 100 100 100 100 100 99 94 77 57 34 15 13 13 13 13 13 14 15 19 26 34 41 43 36 28 32 45 89 100 100 100
100 100 100 100 100 100 100 100 100 100 100 100 100 100 100 98 88 64 44 24 14 12 13 13 13 13 14 15 16 19 25 35 46 48 42 29 32 42 94 100 100 100 100
100 100 100 100 100 100 100 100 100 100 100 100 100 96 81 58 37 20 12 11 11 12 13 14 16 16 16 18 22 28 37 49 55 45 30 32 44 50 58 100 100 100 100
100 100 100 100 100 100 100 100 100 100 100 96 82 57 36 18 11 10 10 11 13 15 17 18 18 17 18 25 34 45 57 59 50 33 34 50 53 55 71 100 100 100 100
100 100 100 100 100 100 100 100 99 92 76 53 35 17 10 9 10 10 12 14 16 18 19 18 18 20 27 38 51 66 67 57 35 35 43 57 60 58 64 100 100 98 100
100 100 100 100 100 97 92 81 63 46 33 18 10 8 8 9 9 10 13 16 17 17 18 20 24 30 38 55 70 73 59 36 36 41 50 62 59 56 59 100 100 100 100

GFSGL_500_rhum_072.txt.gz
RH
80 77 74 34 26 20 45 60 80 96 97 98 98 94 98 98 93 80 77 74 78 48 14 14 18 28 34 26 20 23 33 38 35 46 50 53 44 46 53 60 62 58 54
93 100 98 98 94 74 55 94 96 97 97 98 92 80 95 98 84 80 87 65 39 14 16 22 30 28 18 19 24 37 44 44 38 34 41 43 46 50 56 56 57 56 54
78 97 95 81 96 96 96 97 98 95 80 84 76 80 98 93 93 85 64 35 16 19 22 30 28 22 22 22 33 40 38 35 37 35 37 44 50 59 61 62 62 58 53
62 67 34 34 37 83 89 76 58 56 55 80 91 92 77 70 81 66 44 21 19 24 28 30 25 22 21 30 45 44 39 38 43 40 36 42 49 62 64 63 55 56 52
35 34 34 41 44 50 48 46 39 36 52 61 70 82 90 62 53 47 24 20 27 27 30 28 26 24 34 48 49 45 42 43 47 48 52 53 58 64 68 63 62 58 54
43 37 31 27 27 31 25 24 27 33 42 54 46 49 33 43 43 26 23 26 24 22 22 27 30 33 51 52 47 45 50 54 56 57 59 60 60 61 60 56 56 58 52
30 13 14 18 17 17 17 17 18 19 26 23 22 26 38 41 25 23 24 22 21 22 26 34 38 48 52 56 54 54 61 66 64 66 67 70 67 70 66 67 66 60 59
13 15 14 14 14 15 17 18 17 19 24 31 34 37 36 22 22 22 22 22 23 26 38 51 55 59 67 67 67 68 70 78 83 86 83 80 80 79 77 71 65 63 40
25 31 35 34 31 27 18 16 20 22 27 30 32 28 19 19 21 22 24 27 30 40 49 53 62 77 79 78 75 73 75 81 85 83 85 87 86 81 79 71 64 40 12
44 37 34 41 40 32 19 18 23 30 34 35 28 20 20 21 24 27 29 36 49 56 60 73 75 79 86 86 82 78 78 79 78 80 92 92 86 80 79 67 37 11 11
43 37 48 48 48 33 18 19 22 26 32 32 24 20 24 27 29 32 38 54 75 89 86 81 83 89 90 88 84 79 75 75 76 75 78 80 75 75 69 37 11 11 15
42 51 51 50 50 26 31 25 18 21 24 24 23 24 26 31 35 46 70 94 97 88 86 87 97 99 99 97 92 92 88 88 85 81 79 77 78 72 32 10 11 15 20
65 60 61 53 48 41 39 28 29 25 24 28 32 35 38 39 49 66 92 100 93 86 76 84 100 100 100 100 100 100 94 89 91 86 80 84 72 28 9 11 13 18 24
76 75 64 61 62 54 50 46 46 45 48 53 55 53 52 62 86 100 95 90 85 80 99 100 100 100 100 100 99 100 100 99 92 89 90 63 18 9 10 13 17 25 33
91 88 86 85 84 81 72 67 68 76 81 76 75 89 98 100 100 99 100 99 98 100 100 100 100 100 100 100 100 100 100 100 98 90 44 13 10 10 11 17 27 35 38
63 61 79 86 81 74 80 91 95 98 99 100 100 100 100 100 100 100 100 100 99 100 100 100 100 100 100 100 100 100 100 99 68 26 11 11 11 12 14 22 38 42 45
29 44 59 71 80 81 74 79 82 99 100 100 100 100 100 100 100 100 99 99 100 100 100 100 100 100 100 100 100 98 83 35 14 10 10 11 13 16 19 28 46 78 75
44 95 84 98 100 100 100 84 95 100 100 100 100 100 100 100 100 100 98 99 100 100 99 100 100 99 100 100 89 44 15 11 11 11 12 14 15 18 34 38 44 74 95
40 47 69 63 66 74 81 94 100 100 100 100 100 100 100 100 100 100 100 100 100 100 100 100 100 100 92 54 18 13 12 11 12 14 15 16 18 22 38 48 46 50 100
59 58 58 62 68 81 97 96 98 100 100 100 100 100 100 100 100 100 100 100 100 100 100 100 90 47 17 14 12 11 12 14 15 16 16 18 23 34 45 52 39 41 100
48 64 83 96 100 100 100 100 100 100 100 100 100 100 100 100 100 100 100 100 100 100 81 35 18 14 12 12 12 13 14 16 17 16 18 24 37 51 54 45 32 57 100
100 100 100 100 100 100 100 100 100 100 100 100 100 100 100 100 100 100 99 87 51 29 21 12 11 11 11 12 13 14 16 16 17 21 27 41 56 62 46 32 35 51 97
100 100 100 99 99 100 100 100 100 100 100 100 100 100 100 96 85 62 42 27 17 11 10 10 10 11 13 14 16 17 16 17 23 32 48 65 67 47 34 40 49 82 100
100 100 99 100 100 100 100 100 100 100 100 98 89 76 63 46 29 16 12 9 9 9 9 10 12 14 16 16 16 15 18 26 36 52 68 72 46 34 43 58 65 91 100
100 100 100 100 100 100 100 100 95 87 80 70 56 41 22 13 9 8 8 8 9 9 11 13 14 15 14 13 15 23 34 42 59 72 72 47 37 41 60 62 61 76 100
100 100 100 100 98 94 90 83 72 59 45 29 14 7 7 8 8 8 9 9 11 13 14 13 12 10 11 17 29 39 54 71 79 72 47 38 47 52 64 66 61 78 100

GFSGL_500_rhum_075.txt.gz
RH
71 60 57 56 58 57 35 24 39 79 88 98 99 98 96 96 98 98 98 98 96 75 69 58 42 22 13 17 22 28 26 21 17 27 39 42 39 44 47 48 53 56 60
100 98 98 97 98 98 98 98 91 98 94 97 98 97 96 93 93 97 96 96 90 78 69 42 28 15 17 17 26 28 23 21 26 33 41 42 44 50 54 58 63 62 64
72 95 96 95 83 65 48 78 98 96 98 97 96 55 66 77 96 96 95 79 68 59 51 44 21 18 20 26 28 29 30 29 36 41 48 48 53 63 60 65 64 68 72
41 63 76 98 50 41 42 52 77 68 59 66 74 62 40 58 72 87 76 58 26 37 47 27 20 18 21 29 32 36 34 35 46 58 60 62 65 69 68 67 65 71 69
33 49 56 59 70 44 35 33 34 35 43 49 39 35 28 42 68 51 39 27 34 42 27 19 19 24 28 34 40 41 49 58 68 73 76 76 75 76 75 71 67 67 70
19 35 65 72 62 35 19 21 32 24 29 18 20 35 43 48 41 32 33 42 44 24 22 24 27 31 34 42 56 65 68 79 84 84 88 87 84 82 72 68 67 63 57
31 50 58 51 43 26 16 16 22 25 35 32 25 30 31 35 38 40 45 39 25 27 27 27 29 34 45 63 72 80 82 78 71 80 90 92 86 83 72 75 78 74 68
17 34 37 35 30 23 31 32 32 31 25 21 29 28 33 34 38 42 42 26 24 26 29 32 37 50 70 84 94 94 85 78 84 84 92 97 96 94 94 89 81 75 76
10 13 24 18 33 43 37 35 42 41 34 23 25 32 37 43 51 56 44 28 27 29 33 36 41 55 83 98 100 96 86 76 83 98 100 100 100 100 98 92 96 92 86
10 12 15 24 37 36 34 45 51 52 42 23 26 29 26 29 44 45 32 28 31 36 39 41 54 82 100 100 100 95 83 80 94 100 100 100 100 100 100 100 100 99 96
17 21 25 29 31 35 45 46 46 47 43 33 43 38 28 27 25 26 27 31 36 40 43 47 73 100 100 100 100 95 92 96 100 100 100 100 100 100 100 100 100 100 84
33 31 31 33 35 52 54 53 57 48 40 40 44 43 39 33 34 36 40 47 56 72 84 95 100 100 100 100 100 100 100 100 100 100 100 100 100 100 100 100 100 79 21
56 40 43 51 57 66 65 63 62 57 63 68 67 59 56 59 64 74 84 87 91 100 100 100 100 100 100 100 100 100 100 100 100 100 100 100 100 99 100 100 80 17 10
82 83 71 65 66 68 75 85 85 86 82 83 86 90 98 100 100 100 100 100 100 100 98 100 100 100 100 100 100 100 100 100 100 100 100 98 98 99 100 71 19 9 9
85 90 90 91 90 92 90 76 56 52 64 80 87 92 89 90 100 100 100 100 100 100 100 100 100 100 100 100 100 100 100 100 100 100 99 99 99 98 62 13 10 10 13
97 92 98 100 96 58 40 36 45 55 85 100 100 100 100 96 81 83 87 86 98 100 100 100 100 100 100 100 100 100 100 100 100 100 100 100 94 38 12 10 12 14 16
98 100 100 99 96 100 100 100 94 99 96 86 76 84 89 80 86 91 90 97 100 100 100 100 100 100 100 100 100 100 100 100 100 100 100 61 14 11 10 11 13 15 18
92 83 65 44 43 46 89 100 98 70 68 66 69 79 93 98 100 100 100 98 98 94 94 97 98 97 98 100 100 100 100 100 99 60 16 12 11 10 11 13 16 18 21
50 28 31 39 44 44 48 54 55 60 80 97 100 100 100 100 100 99 100 100 100 100 100 99 99 100 100 100 100 100 90 40 16 13 11 10 11 12 15 16 17 20 34
29 19 17 19 34 59 72 90 97 95 94 98 98 93 91 92 96 99 100 100 100 100 100 100 100 100 100 94 52 19 16 11 11 11 11 13 15 16 17 17 20 32 53
26 62 95 100 100 98 97 100 100 99 96 96 98 96 92 94 98 98 99 99 99 100 100 99 81 40 20 17 12 11 10 10 11 12 14 16 17 17 17 22 34 53 68
100 100 100 100 100 100 100 100 100 100 97 96 96 97 99 99 99 100 100 98 91 69 43 27 16 11 11 10 10 10 10 13 16 17 17 16 14 18 26 41 62 72 54
100 100 100 100 100 100 100 100 100 100 100 100 100 100 100 99 95 91 77 52 32 16 10 9 8 9 10 10 11 13 15 17 16 15 12 14 26 34 50 74 75 48 37
100 100 100 100 99 100 100 100 100 100 100 100 99 95 88 78 58 34 18 9 7 8 9 9 10 10 12 14 15 16 15 12 10 11 17 32 52 74 80 77 43 42 58
100 100 100 100 100 99 100 100 100 99 93 87 76 62 40 19 8 7 7 8 9 9 10 10 12 13 14 14 12 9 7 9 13 25 44 69 93 92 77 42 43 60 76
100 100 100 100 100 99 97 92 84 75 61 43 22 9 7 7 8 9 9 9 9 10 12 12 12 10 7 6 6 8 12 24 43 54 82 96 84 59 41 45 60 73 78

GFSGL_500_rhum_078.txt.gz
RH
78 66 58 63 64 55 47 44 40 45 38 54 76 95 98 98 99 95 99 97 97 100 99 97 98 98 97 79 51 35 17 20 21 27 32 33 36 50 55 58 64 64 66
89 99 98 97 97 98 98 98 97 93 100 94 94 100 99 97 96 71 86 88 93 97 96 97 98 93 88 72 40 28 20 20 23 27 28 38 56 62 68 74 79 81 83
79 89 95 98 98 98 92 40 50 57 99 97 92 98 88 96 70 55 58 60 64 74 78 97 91 82 48 39 35 21 22 25 24 25 33 49 56 69 78 82 81 86 92
32 42 40 60 94 96 95 55 46 47 84 93 69 63 60 52 72 47 47 82 77 68 75 78 71 56 46 38 21 24 26 27 32 36 49 56 62 81 71 68 75 94 95
41 42 38 41 58 73 93 94 61 43 39 42 81 99 62 56 58 48 57 48 42 72 61 63 51 36 31 24 23 25 29 33 38 50 64 79 94 86 79 76 75 74 82
51 54 27 22 39 76 85 82 64 36 25 24 48 67 76 57 38 46 51 63 58 61 43 38 51 30 22 21 24 26 32 38 48 69 98 100 100 96 88 88 81 76 72
39 28 28 34 52 62 61 52 36 25 32 33 37 38 42 35 37 40 40 30 39 37 37 40 35 25 24 26 31 35 39 48 70 99 100 100 100 100 97 91 88 85 86
29 25 18 19 30 44 50 42 20 29 32 32 40 49 49 44 33 25 29 32 32 33 31 36 33 28 29 32 35 40 47 60 88 100 99 100 100 100 96 87 85 83 85
26 21 15 11 19 27 45 31 25 36 39 36 44 44 45 47 35 33 41 38 32 32 31 31 31 33 38 44 51 62 75 91 100 100 100 100 100 100 98 91 91 84 79
27 16 16 19 24 34 24 26 31 36 36 49 51 50 54 48 38 37 41 42 40 37 37 40 46 54 69 84 98 100 100 100 100 100 100 100 100 99 97 94 93 90 91
22 18 22 27 27 28 28 27 28 33 40 52 55 57 61 56 52 55 61 60 58 57 64 78 96 100 100 100 100 100 100 100 100 100 100 100 100 100 100 100 100 97 96
30 31 32 37 45 51 53 46 37 39 50 62 69 74 82 80 85 88 92 92 94 99 100 100 100 100 98 98 99 100 100 100 100 100 100 100 100 100 100 100 100 100 100
53 48 47 48 62 65 66 73 81 80 75 78 84 88 87 80 72 74 79 91 100 100 100 98 88 94 100 100 100 100 100 100 99 98 100 100 100 100 100 100 100 100 100
62 72 76 66 68 71 73 77 90 99 95 84 71 53 52 50 47 65 90 97 97 100 100 100 100 100 100 100 100 100 100 99 100 100 100 100 100 100 100 100 100 100 100
98 93 90 80 75 83 88 91 98 100 100 100 96 95 95 86 91 98 100 95 93 91 88 84 96 100 100 100 98 93 99 100 100 100 100 100 100 100 100 100 100 100 91
100 88 84 89 90 86 86 99 100 97 80 82 89 100 100 100 100 100 100 100 92 97 100 99 97 100 100 97 97 98 100 100 100 100 100 100 100 100 100 100 98 47 13
86 92 88 83 84 82 99 100 99 99 56 34 54 56 50 53 62 69 77 96 100 100 99 97 98 96 96 98 100 100 100 100 100 100 100 100 100 100 93 32 13 11 10
95 91 95 98 100 100 100 98 72 40 40 36 34 43 54 67 86 100 100 97 91 88 94 100 100 100 99 97 98 98 100 100 100 100 100 88 43 18 13 11 10 10 10
96 98 97 91 80 66 50 39 27 20 37 74 100 100 100 98 95 93 94 97 100 100 100 100 100 100 100 100 100 100 98 85 57 26 16 15 12 11 11 11 11 13 15
90 76 55 36 27 24 26 48 89 99 98 98 97 94 93 96 99 100 100 100 100 100 100 100 100 100 100 93 74 50 28 15 14 12 11 11 11 11 12 14 16 17 16
43 37 37 54 56 70 100 100 100 100 98 99 100 100 100 98 97 96 96 97 100 100 100 98 88 70 48 29 17 12 10 10 10 11 11 12 14 17 18 18 16 13 13
72 98 96 95 100 100 100 100 100 100 100 100 100 98 96 95 96 98 100 99 93 83 70 51 32 18 11 9 9 10 10 11 11 13 15 17 18 17 14 11 11 18 34
100 100 100 100 100 100 100 100 100 100 100 97 94 94 96 98 98 94 85 71 52 33 18 9 8 8 9 10 10 10 11 13 15 15 14 12 9 8 10 15 31 55 75
100 100 100 100 100 100 100 100 100 95 93 95 97 96 92 85 74 56 37 20 10 8 8 9 9 9 9 10 12 13 12 10 8 7 6 8 11 17 33 50 75 98 90
100 100 100 100 100 100 99 96 95 95 95 92 86 77 62 38 19 10 8 8 8 8 8 8 9 10 11 10 8 7 6 6 5 7 12 25 47 60 74 98 98 80 50
100 100 100 98 96 96 96 95 92 86 78 64 41 21 12 9 8 9 9 9 8 9 10 11 10 8 8 7 6 5 6 11 20 35 60 84 96 98 99 92 65 45 49

GFSGL_500_rhum_081.txt.gz
RH
60 59 61 53 45 42 48 50 38 37 37 50 54 54 74 100 96 93 98 96 98 99 99 98 92 98 98 98 99 98 99 93 48 41 33 26 24 27 32 31 30 33 44
88 90 99 93 86 88 94 96 86 93 90 97 95 100 97 62 97 97 99 97 95 87 80 79 96 100 99 89 100 98 98 66 41 34 28 20 24 28 28 31 39 49 52
78 95 96 98 98 97 97 98 79 56 68 65 76 97 85 96 99 93 100 99 82 45 62 65 66 66 72 72 76 64 52 46 39 32 21 21 24 26 28 35 54 68 94
37 45 66 64 45 42 80 96 89 54 47 50 54 88 98 98 96 97 84 67 56 43 43 53 60 52 64 63 57 41 42 36 28 19 22 22 25 27 30 46 60 83 94
43 38 35 30 33 40 38 58 87 93 97 74 46 33 27 50 71 83 63 60 49 46 47 50 48 50 69 38 34 28 31 29 24 23 23 26 28 30 36 41 57 78 91
55 56 50 54 46 33 28 43 67 93 94 72 32 30 32 33 40 46 41 46 39 37 35 42 33 37 40 34 30 37 35 33 26 25 29 33 39 44 49 60 82 88 90
62 51 43 42 32 29 41 58 66 64 60 55 50 35 35 29 29 31 35 37 44 38 29 31 36 36 32 34 33 34 35 34 39 46 56 66 84 99 95 88 92 97 93
52 37 44 34 26 18 20 31 42 48 58 53 23 35 39 36 39 48 47 46 46 41 33 37 42 42 40 38 37 41 48 59 79 96 100 100 100 100 100 100 97 92 100
41 34 36 30 24 29 22 15 24 36 45 30 29 35 38 37 52 57 60 62 61 52 43 44 46 49 53 60 74 88 99 100 100 100 100 99 100 100 100 100 97 96 93
41 47 41 28 19 22 30 31 28 28 24 27 31 34 42 57 69 76 80 83 81 77 76 87 94 99 100 100 100 100 100 100 100 100 100 100 100 100 100 97 93 97 98
43 42 41 37 31 28 28 30 41 57 68 68 70 70 69 63 64 74 86 95 98 97 97 93 93 100 100 100 100 100 100 100 100 100 100 100 100 100 99 100 100 100 98
59 64 63 53 43 36 36 43 49 60 66 67 69 74 85 93 94 95 94 89 80 73 70 71 81 78 84 94 96 96 99 94 87 88 98 100 100 100 100 100 100 100 96
54 50 52 53 48 47 56 76 77 72 73 78 85 88 84 82 86 94 99 98 96 99 99 99 100 100 100 100 100 100 88 91 99 100 100 100 100 100 100 100 100 100 100
83 85 90 99 94 86 91 87 90 80 81 90 95 93 98 100 98 93 78 70 75 98 100 100 100 100 100 95 69 77 96 100 100 98 100 100 100 100 100 100 100 100 100
94 99 99 97 97 96 88 94 90 88 87 95 100 100 99 100 100 100 82 48 46 56 62 62 70 71 70 81 97 100 97 93 95 99 97 97 99 100 100 100 100 100 100
96 99 89 100 96 94 98 98 97 98 98 100 100 100 100 100 100 79 48 44 40 36 44 68 92 98 97 94 92 90 92 95 98 98 95 95 98 100 100 100 100 90 60
100 100 99 100 100 89 96 100 100 100 100 100 97 100 100 85 49 36 27 25 54 96 100 100 96 94 90 86 83 81 83 83 86 91 98 100 100 92 74 47 24 14 12
99 99 95 95 87 93 100 100 100 99 90 72 52 37 31 29 28 44 88 98 98 97 90 85 85 82 78 79 81 83 87 94 99 91 76 56 39 28 19 13 11 11 11
100 100 99 98 100 100 99 91 77 62 45 40 43 46 50 71 90 97 94 88 85 81 80 80 79 81 84 85 87 90 86 72 53 35 24 16 11 10 10 11 11 12 13
100 100 99 99 93 86 81 74 55 52 73 85 84 90 96 97 98 96 88 84 82 80 81 82 84 87 85 81 71 51 30 16 10 9 9 10 10 10 11 12 14 16 17
100 99 88 79 88 95 85 60 92 100 96 90 90 92 96 94 86 82 81 81 81 83 82 82 78 68 48 27 14 8 7 8 9 8 8 9 11 13 14 14 14 14 12
98 99 100 99 99 100 100 100 100 100 100 99 97 95 87 84 83 81 81 82 81 77 66 48 27 14 9 7 7 8 8 8 9 10 10 10 9 8 8 8 8 8 10
69 59 89 100 100 100 100 100 98 99 99 98 92 90 89 85 85 85 80 65 43 21 11 6 6 7 7 8 8 8 9 10 9 8 7 7 6 6 6 8 10 16 32
76 99 100 100 100 100 100 100 100 100 100 97 94 90 87 84 71 43 19 8 6 6 6 7 8 8 9 9 10 10 9 8 8 8 7 6 8 11 16 27 47 78 91
100 100 100 100 100 100 100 100 100 99 96 92 87 79 55 24 8 6 6 6 7 8 9 9 9 10 11 11 10 11 10 13 15 18 25 32 44 53 67 85 100 100 100
100 100 100 100 100 100 100 100 97 92 83 63 31 10 7 6 6 7 9 10 10 10 11 12 13 12 12 13 14 17 23 30 41 56 71 82 89 92 100 100 100 96 86

GFSGL_500_rhum_084.txt.gz
RH
42 37 40 40 40 34 32 31 33 35 30 29 29 31 36 37 37 40 54 75 96 93 94 97 89 95 96 96 100 100 99 99 98 98 96 100 74 59 32 28 24 20 19
43 55 59 67 70 81 90 92 94 100 89 52 39 48 80 81 76 68 66 60 81 76 95 98 95 88 65 76 70 78 98 100 80 99 82 62 38 28 28 26 20 20 22
65 80 85 79 86 96 98 87 96 97 94 89 90 86 87 91 92 86 83 76 80 92 96 91 88 40 35 51 55 55 42 46 57 50 31 25 25 28 35 27 21 22 26
47 37 43 64 83 81 63 44 48 55 90 49 52 60 50 56 72 80 79 76 81 71 58 60 49 44 40 37 46 40 37 46 47 37 34 72 94 38 41 33 28 30 32
31 39 42 40 40 41 34 39 44 36 43 64 70 57 51 43 25 24 29 52 42 39 41 53 35 34 33 32 40 36 33 55 99 60 37 39 38 42 36 31 35 44 62
58 44 34 32 33 39 42 49 44 35 36 76 98 98 86 58 30 28 24 26 25 30 40 50 50 39 53 38 40 32 36 43 40 39 37 33 32 37 40 56 83 84 88
65 47 41 28 28 37 38 39 29 42 73 96 94 83 64 53 46 32 32 32 31 31 36 43 52 50 52 45 37 40 40 45 44 42 45 54 67 82 88 92 95 100 100
76 51 52 47 40 33 31 28 25 29 41 52 54 53 58 64 34 29 40 45 43 39 50 51 55 57 57 55 48 41 42 53 82 92 96 98 100 98 100 100 98 92 92
68 63 58 51 41 35 38 34 38 39 25 18 26 30 47 46 28 30 36 38 44 56 64 70 73 78 80 82 83 89 96 99 100 100 100 100 100 100 100 100 98 92 89
92 79 69 45 41 51 42 32 31 37 40 32 36 40 35 40 51 64 70 76 76 81 86 94 100 100 100 97 96 94 90 93 100 100 100 100 100 100 100 100 100 100 100
88 89 72 70 54 55 48 35 30 33 41 43 48 61 66 68 73 82 93 95 96 100 100 100 99 100 100 100 100 100 100 100 100 100 100 100 100 93 81 96 100 100 100
95 89 92 77 63 66 58 53 47 43 47 52 65 82 78 79 79 90 96 97 100 100 100 100 100 93 86 68 53 69 89 100 100 90 70 76 90 100 100 100 100 100 100
100 100 100 100 79 78 88 93 96 97 97 97 96 93 94 92 83 87 91 99 100 100 100 100 100 100 100 83 56 63 63 53 53 82 99 100 100 100 99 95 90 89 90
100 97 96 99 88 91 97 97 100 100 93 94 89 91 96 89 94 93 87 95 100 100 100 100 100 100 72 44 36 52 85 100 100 100 100 99 93 82 78 77 78 85 92
100 98 93 90 95 90 95 98 99 96 95 93 96 90 91 98 96 93 98 100 100 100 97 87 62 45 42 61 99 100 100 98 95 88 79 76 73 71 75 80 86 89 95
99 95 95 89 97 95 100 98 97 85 100 100 100 99 99 100 100 100 100 92 68 53 44 41 36 62 98 100 100 93 79 69 66 66 67 70 72 74 77 80 79 67 54
87 88 96 99 100 100 100 100 100 97 98 100 100 100 99 99 99 83 53 41 45 54 61 69 89 100 100 97 84 66 63 64 67 70 70 69 67 61 49 36 24 14 10
100 100 100 100 100 99 100 99 100 99 98 100 100 100 100 99 93 70 73 87 94 94 93 93 91 85 74 64 63 67 69 71 67 57 42 25 14 9 8 8 8 8 9
100 100 99 99 98 100 99 100 100 100 100 100 100 99 99 95 86 94 100 98 91 84 84 83 71 67 72 74 73 71 58 39 17 6 5 6 6 7 7 8 8 9 10
100 99 100 100 100 99 99 100 100 100 99 100 99 99 94 97 100 96 91 91 91 89 85 77 80 80 75 65 45 24 9 5 5 5 6 7 7 7 8 9 9 9 9
100 100 100 100 100 96 98 99 100 100 99 98 100 100 100 99 95 88 88 93 99 92 86 84 75 59 34 15 8 6 5 6 6 6 6 7 8 8 8 7 7 7 7
99 99 100 100 98 99 97 97 85 63 73 93 99 97 90 89 90 90 95 96 90 81 70 48 24 12 8 6 5 6 6 6 7 8 9 8 8 8 8 8 6 6 7
53 50 48 52 63 65 58 51 57 93 98 95 92 94 93 92 95 94 89 80 64 41 22 12 8 6 6 6 6 7 8 9 9 10 10 10 12 16 16 14 15 20 27
59 51 61 83 95 98 100 100 99 98 100 100 99 99 99 94 88 76 54 29 15 9 6 6 6 7 7 8 9 11 10 11 12 13 15 18 24 30 40 47 53 68 82
78 93 100 100 100 100 100 100 100 100 100 100 98 95 86 67 38 16 9 8 6 6 7 7 8 8 10 12 12 12 15 17 19 28 37 46 56 67 80 84 87 90 94
89 99 100 100 100 100 100 100 100 98 94 92 84 54 23 11 9 7 7 7 7 8 8 9 11 14 14 13 15 21 28 34 41 42 43 45 48 53 62 78 89 94 95

GFSGL_500_rhum_087.txt.gz
RH
31 31 30 29 32 30 26 24 23 24 25 25 24 28 55 24 34 55 52 42 41 53 63 74 82 78 76 77 79 91 97 62 40 47 42 82 94 99 63 99 84 60 39
30 31 38 38 43 54 58 60 63 68 76 85 80 36 36 32 34 39 45 50 57 56 67 73 80 78 74 80 73 88 35 38 48 37 44 53 52 57 59 60 51 34 52
22 29 42 52 60 66 65 73 79 76 78 77 80 87 80 46 51 70 76 75 80 86 88 83 83 84 85 82 55 45 43 45 47 42 37 77 46 54 58 65 75 49 36
35 41 34 26 21 43 68 74 72 38 29 33 46 81 69 76 79 77 65 72 60 40 38 37 37 38 45 60 57 42 40 42 38 42 57 60 45 37 56 93 71 39 36
45 43 44 32 30 32 31 31 31 28 31 32 28 28 55 51 44 46 46 36 24 24 29 46 44 43 53 56 67 68 72 60 63 59 54 43 34 37 42 44 45 43 71
58 57 51 48 44 38 32 28 31 33 31 39 34 31 51 83 86 75 78 69 42 32 32 30 38 35 39 46 50 48 57 59 54 54 48 51 48 40 40 46 78 99 95
73 71 67 48 44 29 31 23 30 37 40 39 31 42 66 86 100 91 69 51 52 52 41 35 34 42 38 44 48 54 53 57 64 67 73 76 71 76 90 100 96 99 99
77 75 72 78 62 43 33 23 24 29 30 28 28 46 82 96 89 89 72 74 76 60 38 28 28 35 38 44 58 71 80 84 86 88 100 99 100 98 93 94 100 99 97
59 80 97 90 73 64 53 39 25 22 24 29 32 27 26 30 37 36 37 44 50 31 31 44 59 68 72 76 81 86 93 98 100 98 99 97 97 100 100 100 100 100 100
96 82 92 92 88 74 56 48 35 30 31 32 32 37 41 33 22 25 43 40 48 67 69 72 77 81 81 83 89 93 93 96 92 86 88 91 86 88 97 94 87 90 74
84 94 92 82 90 67 80 77 56 44 48 47 30 28 38 48 49 53 69 72 70 79 87 90 88 82 76 78 86 87 90 93 100 100 100 100 100 60 51 72 99 99 100
100 97 99 100 100 81 75 98 77 64 62 66 57 53 54 57 64 73 89 98 96 98 99 98 95 92 86 88 92 98 100 100 100 100 100 90 54 73 99 100 100 98 92
95 97 96 99 95 93 91 100 94 74 59 72 98 98 96 98 89 93 97 93 93 100 99 98 97 94 98 100 100 100 100 100 84 51 39 58 99 100 100 100 87 73 74
92 94 98 94 86 93 98 99 99 88 73 98 94 96 98 98 93 89 97 100 100 100 100 100 100 100 100 100 100 91 60 43 47 69 95 100 99 98 88 73 67 68 63
85 85 99 84 94 98 98 92 80 99 99 92 90 97 100 100 96 92 100 99 100 99 95 100 100 100 88 69 53 64 83 94 99 100 100 94 80 70 66 64 58 48 39
85 90 100 99 96 94 93 99 98 92 94 98 100 100 100 100 100 100 100 99 100 100 100 100 99 99 97 98 100 100 100 94 86 85 75 67 66 64 56 42 30 22 13
100 100 97 94 92 100 100 97 98 100 100 100 100 100 100 100 100 100 100 100 100 100 100 100 99 100 100 100 95 89 89 88 89 83 72 64 52 39 28 19 11 7 5
99 99 98 100 99 99 99 99 100 99 100 100 100 99 99 100 100 100 100 100 100 100 100 99 100 100 99 93 86 88 94 94 76 63 50 35 21 13 8 5 5 5 5
99 99 98 98 99 100 100 100 100 100 99 100 100 100 100 100 100 100 100 100 100 100 100 100 100 98 92 90 97 91 75 61 46 29 15 10 7 5 5 5 5 6 7
92 100 100 99 100 99 100 100 100 100 99 99 99 98 99 100 100 100 99 95 94 95 96 94 94 94 99 88 73 59 40 21 13 10 6 4 5 5 6 7 7 8 8
100 100 100 100 100 100 100 100 100 100 100 99 94 86 84 81 71 75 95 100 100 100 100 100 96 86 72 59 35 19 14 9 5 5 5 5 7 8 8 9 10 11 13
98 90 89 88 92 93 89 87 77 59 51 49 50 54 71 88 100 100 100 100 100 98 93 87 74 58 36 22 15 9 6 5 6 6 8 8 8 10 12 15 19 24 25
81 76 76 81 79 75 73 70 66 69 78 91 100 100 100 100 100 100 99 98 94 89 77 57 38 22 14 8 6 6 6 7 9 10 10 10 13 17 25 33 41 48 50
74 74 74 76 78 81 86 90 91 97 98 100 100 99 99 98 98 99 96 90 77 53 34 18 11 7 6 6 7 8 9 11 11 12 14 16 20 23 25 29 38 61 70
99 100 96 96 97 100 100 100 100 100 100 100 99 100 100 97 88 82 70 50 34 21 10 6 7 7 7 8 10 12 14 13 15 18 20 21 21 25 30 33 36 52 76
95 94 100 100 100 100 100 100 100 100 100 99 99 97 90 80 65 48 34 18 9 7 8 8 8 8 9 12 15 16 16 18 22 25 28 27 28 29 30 34 40 47 70

GFSGL_500_rhum_093.txt.gz
RH
17 19 25 25 25 24 19 16 12 12 14 16 16 12 12 14 17 17 22 26 38 61 59 75 74 88 83 75 90 96 93 93 82 81 97 97 94 81 61 54 47 42 45
19 17 20 27 29 26 30 39 31 22 19 16 16 17 19 21 22 31 53 52 45 58 84 96 99 97 100 96 91 88 98 100 85 76 88 62 58 68 55 50 72 73 52
20 22 26 25 31 35 33 36 49 57 54 33 32 43 65 62 62 59 41 61 84 90 94 98 94 94 100 100 100 99 100 100 99 69 36 50 74 60 57 97 100 82 59
27 25 29 34 37 34 31 25 39 55 57 68 69 58 50 38 56 78 82 59 54 60 65 80 85 98 100 100 100 100 96 84 80 70 64 61 54 63 54 48 49 80 66
38 33 36 39 43 42 43 32 21 25 61 74 76 59 32 26 31 43 71 87 86 85 64 80 100 98 87 73 71 55 66 64 62 85 60 54 60 51 35 45 94 65 90
52 50 45 40 43 43 49 45 40 33 27 29 30 32 31 29 28 29 31 41 63 71 76 82 89 90 56 49 56 68 56 58 86 86 75 52 32 37 61 59 65 59 65
63 64 66 54 47 49 47 54 48 56 45 28 22 19 18 20 32 45 47 43 44 48 70 91 95 92 86 73 79 76 85 94 87 67 46 36 65 65 58 75 100 77 75
51 56 56 65 67 59 50 54 64 45 52 65 53 40 29 31 39 43 42 33 39 58 69 83 92 90 83 96 85 97 66 53 48 44 58 75 70 70 82 85 88 83 95
58 54 52 69 75 77 64 60 60 50 56 63 62 48 40 34 33 33 38 41 42 44 52 63 66 74 81 94 53 47 94 87 47 56 64 80 87 89 91 99 97 93 94
94 86 82 83 78 81 77 67 66 60 72 84 70 56 46 42 45 47 59 53 42 40 39 43 43 46 49 47 45 45 49 54 56 66 76 88 93 96 100 100 100 100 100
90 97 95 98 96 97 97 98 88 86 82 90 89 68 60 74 72 72 64 76 71 55 48 41 36 30 34 55 70 65 70 76 72 80 95 100 98 100 100 99 100 100 100
65 83 92 99 99 97 99 95 88 95 95 88 98 91 76 77 66 89 98 93 76 65 60 53 55 54 73 94 100 100 96 99 99 98 98 100 100 100 99 100 100 99 96
56 65 92 99 100 100 100 100 99 97 92 86 80 86 76 75 66 71 72 89 85 81 80 85 68 100 93 95 97 100 100 100 100 99 100 100 100 100 100 100 98 100 100
52 53 60 77 94 99 100 100 98 99 98 96 98 96 98 98 96 94 75 73 96 100 99 96 99 100 100 98 100 100 100 100 100 100 100 100 100 98 98 98 99 98 92
66 67 59 64 81 84 86 87 90 86 79 98 98 97 97 99 98 86 96 92 92 98 98 99 100 97 100 100 100 100 100 100 100 100 100 98 98 98 91 80 76 72 70
52 79 90 84 81 96 89 94 93 97 97 97 99 94 98 98 97 99 100 98 100 100 100 99 100 100 100 100 100 100 100 99 97 95 88 76 64 61 62 63 58 54 49
100 100 100 96 100 99 98 98 100 100 100 97 99 98 96 100 100 100 100 100 99 100 100 100 100 100 100 100 100 99 97 93 89 78 71 72 71 66 61 54 47 39 34
91 100 98 100 99 100 100 100 100 100 100 100 100 100 100 100 100 99 100 100 100 99 99 99 99 99 99 97 96 89 79 72 75 76 70 66 65 58 49 41 35 28 20
52 75 92 93 96 98 99 99 100 99 99 98 98 100 100 100 100 100 100 98 99 100 98 99 98 95 90 85 82 72 68 69 67 65 65 64 54 45 34 27 18 11 7
70 73 70 80 91 99 100 100 97 97 99 98 99 100 100 100 100 100 98 94 90 84 74 67 66 71 74 77 74 71 70 70 67 60 52 44 35 24 15 9 6 5 5
25 43 61 82 85 85 92 96 97 99 100 100 97 94 90 90 78 74 73 70 68 77 78 76 77 77 74 70 66 64 64 63 56 45 36 23 14 8 7 6 6 6 8
26 70 73 70 84 88 89 86 82 81 80 86 85 81 78 76 70 65 68 73 68 58 58 65 66 67 73 73 66 63 60 50 37 25 14 10 8 6 6 6 8 10 12
98 100 91 98 99 100 94 87 86 81 80 79 76 78 78 72 66 60 58 57 56 60 69 73 75 78 77 71 63 52 37 24 14 10 8 8 8 7 8 11 13 15 16
99 99 100 100 91 81 84 95 100 99 97 93 86 68 56 39 36 44 50 59 69 73 73 74 76 72 66 54 37 20 14 10 9 9 9 8 8 10 14 15 17 19 23
98 94 100 100 100 100 99 87 84 91 96 93 90 77 60 63 62 66 74 81 82 85 81 75 67 54 34 22 14 11 10 11 10 10 10 10 12 16 18 20 22 28 28
100 100 100 100 100 100 100 99 99 100 99 92 86 75 71 75 78 82 80 80 80 74 66 52 33 20 16 13 12 12 12 12 11 11 12 15 19 21 22 24 30 33 34

GFSGL_500_rhum_096.txt.gz
RH
17 18 21 24 22 20 20 16 12 13 41 72 88 88 96 96 91 76 77 73 83 91 95 94 100 92 75 69 66 81 88 89 83 99 99 97 94 97 95 93 66 48 81
17 19 19 22 25 26 30 34 27 16 14 16 17 18 20 24 24 24 33 39 37 50 52 54 68 83 66 69 80 88 97 99 95 85 92 98 89 90 94 81 58 75 70
21 21 22 19 22 29 34 32 33 44 36 22 22 20 18 20 23 25 25 26 28 27 29 34 40 62 79 92 98 98 100 97 91 85 88 100 100 100 80 58 61 58 54
25 23 23 27 27 27 33 32 36 39 43 48 49 34 41 56 65 66 64 52 48 65 72 78 83 84 94 99 93 85 94 94 98 97 94 90 82 57 52 76 63 52 60
37 28 23 27 32 36 37 40 32 25 29 48 54 63 68 65 54 39 49 92 90 69 54 65 84 90 94 91 92 100 99 98 92 89 74 48 56 60 80 87 82 69 39
48 35 31 29 36 43 44 44 42 39 30 27 48 66 73 76 60 36 28 30 38 52 76 91 91 88 85 71 94 96 94 85 70 59 64 93 87 98 75 76 52 38 42
76 66 52 41 45 49 52 52 51 48 38 33 33 30 32 34 35 34 31 29 27 29 28 33 38 59 94 98 98 92 88 88 95 80 100 89 90 61 99 74 40 52 63
98 86 68 75 88 71 64 60 59 57 61 67 50 35 36 32 30 25 26 31 40 46 48 48 42 63 77 83 93 100 99 100 100 98 98 85 60 99 100 75 51 59 66
96 93 90 94 87 87 82 64 63 66 76 85 86 76 69 71 60 49 42 27 23 26 30 31 42 63 68 77 76 75 72 66 57 50 46 43 58 43 54 72 76 75 68
73 96 98 91 95 82 89 98 89 72 70 67 84 92 86 84 88 72 50 38 33 29 27 30 32 31 30 34 36 36 37 33 26 39 99 91 100 87 74 75 75 69 80
24 53 85 93 98 98 97 97 97 88 90 96 94 90 82 73 73 85 70 55 54 59 58 53 52 51 63 66 94 63 100 56 82 100 95 99 99 100 91 89 90 90 98
26 29 54 91 100 98 98 98 97 96 94 92 94 96 92 70 70 80 84 87 69 64 58 72 89 97 96 87 75 80 79 88 99 100 100 100 100 100 100 95 98 100 100
44 35 32 40 58 74 93 86 98 96 98 97 91 97 99 96 94 88 88 95 86 82 69 72 83 90 94 93 100 96 94 100 100 100 100 100 100 100 100 100 100 100 98
39 27 24 26 35 48 64 75 92 98 98 98 98 99 94 100 98 98 98 97 99 100 100 100 99 98 99 99 99 98 100 99 99 99 100 100 100 100 100 100 98 89 86
53 55 47 38 45 44 40 48 65 83 86 80 80 83 82 85 91 89 99 96 99 99 99 98 99 98 99 100 99 99 100 100 100 100 100 100 98 96 96 93 92 75 60
52 44 44 51 58 59 63 75 74 84 83 90 74 92 96 79 86 80 99 99 96 99 99 99 99 99 100 100 99 100 100 100 100 100 97 96 96 96 82 55 42 44 49
60 74 85 64 77 80 80 99 95 95 98 98 98 98 98 100 100 100 99 99 99 99 100 100 100 99 100 100 100 100 100 99 98 96 97 94 59 38 37 39 39 46 48
60 54 60 86 84 79 93 96 79 79 86 97 99 100 100 100 100 98 99 98 98 100 100 100 100 100 100 100 100 100 99 91 66 42 34 36 41 41 40 40 39 40 37
44 44 60 52 78 68 52 65 61 66 77 87 94 95 100 100 100 100 100 100 100 99 100 100 99 96 82 55 39 36 31 24 20 23 29 38 51 56 58 50 41 34 26
15 18 20 19 20 22 20 36 54 57 73 78 79 100 97 100 100 100 100 100 98 96 95 88 69 51 41 34 27 24 22 23 28 34 44 56 58 52 44 36 27 18 13
16 17 22 22 20 24 32 37 54 76 82 92 99 100 98 95 97 98 97 89 83 75 73 60 48 39 29 22 19 18 20 38 46 54 56 52 49 38 25 19 12 9 8
20 22 29 39 42 61 81 82 78 79 94 98 93 86 80 77 74 76 76 74 69 61 58 47 30 22 28 32 36 43 48 57 55 53 48 37 24 15 11 9 10 10 9
30 42 54 82 100 99 100 97 91 99 100 99 93 83 83 87 88 90 90 89 81 69 50 40 38 39 46 52 56 59 58 56 47 33 22 16 12 10 11 11 10 10 12
62 67 76 100 99 100 100 100 100 100 100 100 100 100 99 95 90 90 90 87 80 68 63 61 61 66 66 65 63 57 44 28 21 16 12 11 12 13 12 11 12 13 16
71 77 79 78 91 100 100 100 100 100 100 100 97 99 96 95 99 99 94 85 78 74 71 73 70 66 61 52 38 28 19 15 12 14 15 15 14 14 13 14 16 18 21
100 100 100 100 100 100 100 100 100 100 100 100 100 100 100 100 99 96 90 84 81 78 74 67 58 44 35 25 17 16 16 16 18 19 19 18 16 15 15 18 21 23 25

GFSGL_500_rhum_099.txt.gz
RH
18 18 18 19 24 20 20 18 12 31 47 70 84 91 96 97 98 98 97 96 94 97 97 98 97 97 98 96 97 97 95 90 84 100 80 79 81 92 92 88 86 92 98
21 21 19 19 22 25 23 23 24 20 11 13 40 60 61 92 98 97 96 97 97 97 97 96 96 96 97 100 95 92 91 87 62 76 94 98 98 95 92 90 96 93 93
23 22 20 19 20 27 27 24 26 28 27 16 14 12 12 11 15 21 23 26 29 38 67 72 90 83 84 83 94 86 73 54 54 73 94 94 93 93 91 97 98 97 87
28 23 22 21 23 23 32 35 33 27 30 40 38 23 19 17 15 14 18 29 30 30 32 39 41 45 46 53 57 56 58 70 82 78 77 80 84 95 100 100 84 55 56
52 30 27 25 23 26 33 38 36 34 29 31 39 46 56 44 42 43 56 53 52 57 52 51 52 53 54 56 60 76 88 88 85 75 74 74 84 100 92 80 66 71 88
75 60 54 31 25 24 31 36 42 43 40 35 30 28 60 66 68 69 65 54 42 45 68 80 74 70 65 71 80 87 90 90 86 70 82 92 100 99 86 80 76 100 99
97 94 83 71 36 27 29 36 42 47 47 47 39 32 31 30 40 55 64 69 61 40 32 33 46 56 62 69 79 89 90 86 84 86 96 97 94 87 85 98 95 89 95
98 98 97 98 92 86 48 40 45 53 56 55 52 49 52 50 40 39 30 26 25 28 30 30 32 36 36 37 40 43 42 60 83 80 73 78 85 82 81 98 100 60 55
98 99 98 97 94 94 96 98 97 74 63 67 67 66 73 84 88 62 49 47 54 47 38 28 20 18 19 26 34 34 36 58 66 69 73 97 60 100 67 54 55 98 94
76 86 79 93 97 99 98 96 95 97 97 78 70 77 86 100 99 94 83 69 59 63 50 40 37 34 27 28 30 33 35 62 52 50 63 64 72 69 57 86 93 94 99
38 29 27 38 56 83 98 98 99 97 93 96 97 94 94 90 87 99 95 83 75 80 85 80 66 64 66 73 70 68 79 64 67 72 74 92 81 65 77 96 93 100 100
52 60 49 46 42 35 48 77 96 97 99 98 98 98 96 92 96 98 98 96 88 83 75 77 74 73 75 83 72 67 67 97 91 99 100 99 100 99 100 100 99 99 100
58 34 54 64 64 56 33 32 42 65 86 92 94 94 90 96 88 89 97 98 96 91 92 83 88 98 89 96 97 78 94 96 98 100 94 98 99 99 99 100 100 100 100
56 59 63 57 76 66 40 27 22 33 40 43 54 61 84 96 96 94 97 97 100 97 91 96 100 98 98 98 100 100 99 99 99 99 100 99 100 100 100 100 100 99 100
51 60 62 60 59 50 26 27 30 25 34 54 45 70 98 81 69 71 70 79 93 100 96 99 100 100 100 99 99 99 100 99 100 98 100 100 100 100 100 100 100 98 86
47 34 28 27 36 40 35 40 45 52 52 60 58 47 67 47 92 99 98 98 92 100 100 100 100 100 100 99 100 99 99 100 100 100 100 100 100 100 98 93 70 32 17
53 56 53 52 54 50 54 55 60 68 66 57 60 72 71 75 80 96 98 99 99 99 99 98 100 100 100 100 100 100 100 100 100 100 100 98 84 27 21 16 13 15 18
61 64 63 58 54 55 51 44 65 86 79 89 90 75 64 56 74 76 80 72 85 91 100 100 100 100 100 100 100 100 100 100 98 91 67 30 17 16 16 18 18 18 23
17 18 21 25 29 35 39 42 45 49 54 49 48 43 48 57 42 66 67 92 86 91 96 100 100 100 100 100 100 97 97 94 75 38 22 20 21 21 21 25 31 34 38
16 14 15 14 12 12 12 12 12 12 13 12 13 35 90 100 100 100 100 100 100 100 100 100 100 100 100 95 86 77 69 50 31 23 23 25 30 33 36 40 39 33 27
19 18 18 17 16 16 15 15 17 17 20 19 27 36 66 80 100 100 100 100 99 90 89 89 87 90 87 81 77 70 58 45 36 31 36 42 42 41 40 37 28 23 13
13 13 12 13 13 16 18 21 25 37 51 64 71 76 79 86 100 100 100 100 99 95 91 87 85 85 84 83 79 73 64 55 51 52 53 50 43 36 28 21 12 9 8
14 15 15 17 20 26 36 47 64 81 98 100 100 99 100 100 100 100 100 100 100 100 100 100 96 92 94 95 89 78 72 68 63 54 44 34 27 18 12 10 10 10 11
40 46 50 42 42 47 54 65 77 80 82 78 86 100 100 96 99 100 100 100 100 100 99 97 99 100 99 95 88 80 69 58 44 31 24 16 12 10 12 13 15 15 14
43 68 90 80 75 80 84 78 91 100 100 100 100 100 100 100 100 100 100 100 100 100 100 99 99 98 96 91 76 58 38 27 19 12 10 11 12 14 16 18 19 17 16
48 55 81 98 99 100 100 100 100 97 98 100 100 100 100 100 100 100 100 100 100 100 100 100 98 93 74 53 37 21 13 10 11 12 14 16 16 17 21 23 22 19 19

GFSGL_500_rhum_102.txt.gz
RH
19 19 18 18 18 15 19 21 18 16 46 69 87 97 97 90 90 96 98 95 93 86 96 96 97 96 96 97 98 97 98 98 99 99 97 97 95 91 78 69 50 66 88
21 21 20 20 20 17 17 22 25 25 14 24 60 80 86 84 88 88 92 94 95 96 95 97 97 96 97 97 95 97 98 98 97 100 98 96 90 83 63 62 78 82 90
31 26 22 22 21 19 18 18 24 26 28 25 14 13 13 13 55 74 90 81 72 83 89 85 68 84 98 96 99 99 98 95 90 86 96 93 91 82 79 92 100 100 100
48 35 27 22 23 21 21 22 20 25 25 24 33 34 21 16 14 18 25 14 14 16 17 19 23 25 52 85 94 97 93 86 74 68 81 85 69 76 98 100 100 99 96
70 49 38 24 24 24 22 25 26 24 26 30 28 30 35 42 37 23 18 19 25 33 41 40 39 45 62 82 87 94 81 75 68 64 54 63 78 94 100 100 96 96 94
82 74 54 34 25 27 25 24 27 29 31 29 30 32 29 24 37 53 59 53 42 43 48 51 57 57 54 53 55 55 57 62 64 72 79 87 92 95 96 89 87 94 83
95 93 82 70 50 38 30 26 26 31 33 36 37 38 39 33 28 26 27 40 56 66 70 69 61 44 38 44 54 60 61 67 74 78 65 50 52 58 62 78 89 98 89
98 95 96 94 88 88 86 70 36 27 33 39 42 44 43 42 44 51 54 48 34 28 24 23 24 26 29 30 29 28 24 25 29 38 41 38 38 38 64 80 82 84 92
96 98 98 98 97 97 96 94 88 49 37 39 42 53 54 47 48 52 55 62 68 65 54 43 37 36 34 30 28 24 23 22 27 37 40 37 38 46 61 75 91 88 95
98 97 98 98 98 98 98 100 99 98 97 94 94 93 80 58 50 52 57 60 68 80 84 75 58 53 57 62 54 44 38 31 28 30 30 35 43 49 82 99 100 100 87
93 76 53 68 69 64 65 64 66 88 90 90 90 95 97 96 96 80 62 57 58 63 72 79 83 78 76 77 76 79 82 80 76 78 78 94 98 80 85 98 100 100 100
80 71 60 58 51 35 47 50 47 40 60 70 88 96 95 95 99 96 98 96 89 81 90 78 76 83 99 95 92 89 85 91 94 91 88 97 95 96 95 99 100 100 100
78 65 55 50 42 39 29 38 56 45 39 30 30 32 37 74 81 82 60 93 92 97 97 98 98 99 100 94 69 83 96 96 100 100 98 99 98 100 99 99 99 98 99
62 57 48 50 53 48 44 49 49 49 61 51 42 36 38 37 34 28 84 93 100 94 98 97 98 98 98 97 99 98 98 100 99 99 100 100 99 100 100 99 100 100 100
63 52 41 34 41 47 50 50 48 45 37 32 32 28 26 22 70 91 63 75 87 98 99 97 98 98 100 99 95 95 100 100 100 98 98 99 99 100 100 100 100 100 100
61 65 74 65 47 47 61 53 54 54 46 42 34 37 48 45 34 32 35 42 78 97 73 63 75 95 99 99 98 98 100 99 99 98 99 99 100 100 100 100 100 96 87
76 83 76 86 62 40 47 61 61 57 51 50 48 51 58 54 59 68 76 68 65 55 50 56 69 85 92 93 99 96 100 99 100 100 100 99 100 100 98 97 86 51 27
75 75 75 76 64 47 41 40 43 45 44 43 42 40 40 55 65 76 88 94 74 65 61 63 71 91 100 100 100 100 100 100 100 100 100 98 91 84 77 54 38 35 36
31 25 23 19 17 16 14 12 12 11 12 12 12 12 15 20 21 19 18 19 24 36 83 99 100 100 100 100 100 100 100 100 100 98 91 88 85 80 72 62 56 54 52
31 30 35 38 31 27 23 19 17 15 14 14 13 12 12 13 14 14 13 15 22 39 93 100 100 100 100 100 99 100 98 100 99 96 99 97 92 90 84 75 69 65 58
22 20 19 18 17 16 16 15 15 14 14 14 14 14 14 15 16 18 23 31 48 80 96 100 100 100 100 100 100 100 99 98 97 91 86 92 95 94 84 78 70 49 35
16 15 14 13 13 12 12 12 11 11 12 12 15 17 22 38 55 85 81 73 75 84 100 100 100 100 100 100 100 100 100 97 94 95 95 95 97 91 80 57 34 23 18
15 14 13 13 13 15 19 21 25 29 30 32 35 40 64 80 92 100 100 98 89 82 82 80 82 91 95 98 99 100 96 98 88 87 91 95 87 62 36 22 15 12 8
18 19 20 21 24 28 27 27 32 51 72 66 60 64 72 80 91 92 95 97 100 100 100 100 100 100 99 99 98 98 98 93 97 97 90 67 39 23 14 10 7 8 11
45 55 54 51 49 46 42 38 36 46 83 99 100 100 100 100 100 100 100 100 99 100 100 100 100 100 100 100 100 100 100 95 88 65 39 22 14 11 8 9 13 14 15
68 70 73 68 63 64 64 56 52 59 82 99 100 100 100 100 100 100 100 100 100 100 100 100 100 100 100 99 96 90 78 53 29 14 10 9 9 11 13 15 16 17 20

GFSGL_500_rhum_105.txt.gz
RH
85 53 52 19 17 19 18 19 18 21 15 47 68 94 91 93 96 91 90 90 90 97 96 97 96 96 94 98 93 87 91 99 100 98 97 93 95 94 94 97 100 100 99
72 61 35 18 18 20 19 18 19 19 24 19 22 52 81 84 92 96 98 98 96 95 96 95 90 94 98 94 87 88 92 92 95 96 97 97 100 99 99 99 99 99 97
61 37 42 20 19 21 21 19 18 20 23 27 25 16 32 38 26 60 82 95 92 92 94 95 96 95 89 85 80 76 81 84 93 94 96 96 100 100 100 100 100 98 88
39 39 46 22 21 22 23 20 21 19 17 22 24 30 27 20 17 25 42 75 52 30 28 35 47 60 66 56 45 51 76 77 82 92 100 100 99 100 100 100 100 96 81
56 46 59 27 25 22 23 24 22 24 23 16 20 23 23 25 30 31 23 17 20 20 17 20 27 30 27 33 46 65 83 96 96 100 100 100 100 100 100 100 100 100 93
78 71 80 50 31 27 23 24 26 24 26 28 26 22 20 20 21 22 25 33 40 38 35 36 44 44 44 49 50 54 61 73 80 80 68 65 68 80 92 100 99 100 98
82 88 86 92 60 38 28 25 27 28 26 26 29 31 31 31 28 23 18 17 18 24 38 50 54 60 59 60 57 52 52 54 56 57 64 73 80 91 97 100 100 95 74
88 92 97 95 85 72 53 39 31 32 29 28 28 30 32 34 39 39 38 36 39 44 41 31 28 27 30 36 42 45 43 40 40 47 50 51 50 55 58 58 63 57 50
98 97 97 95 96 97 95 87 84 91 83 69 42 34 33 34 38 44 46 46 51 57 63 71 79 73 61 55 48 44 48 47 48 51 48 42 40 39 39 39 38 41 42
97 95 100 99 97 97 99 98 99 98 96 92 83 80 72 73 83 78 83 83 66 53 50 54 62 76 88 90 85 75 65 62 67 78 78 73 66 64 64 60 58 98 99
95 94 89 90 97 96 99 99 99 97 93 87 84 83 81 77 82 92 84 81 94 99 100 99 93 83 87 93 90 82 86 86 82 85 91 100 99 100 100 100 100 98 98
95 86 81 90 85 75 58 50 53 44 31 38 51 49 45 75 89 91 88 86 88 100 98 96 94 99 97 98 99 98 97 98 94 84 84 78 86 92 100 100 100 99 100
96 96 93 92 93 77 63 54 46 36 27 22 27 27 23 20 26 36 40 38 37 51 72 65 69 81 78 100 98 99 99 98 99 99 98 99 99 98 98 98 100 99 99
91 90 91 89 78 60 46 44 48 40 36 35 30 31 29 33 41 40 36 37 41 71 62 46 70 100 99 99 98 96 97 98 99 100 99 99 100 99 99 99 99 99 100
78 57 51 59 61 56 51 36 29 35 45 44 44 47 49 47 41 34 52 100 58 51 95 99 93 73 66 78 100 78 67 68 70 93 97 98 98 99 98 97 100 100 100
81 71 72 71 49 56 58 64 54 41 29 25 30 34 33 35 32 31 35 36 40 42 41 42 50 57 60 65 64 61 57 67 100 100 100 100 100 100 100 100 100 100 100
81 84 90 86 72 66 74 84 79 63 58 58 53 52 50 43 40 38 42 54 59 55 58 63 72 73 77 73 61 59 73 83 100 100 100 100 100 100 100 100 100 100 97
55 64 74 73 68 60 52 48 42 36 30 27 27 26 29 31 34 32 33 35 36 32 32 27 22 16 14 16 28 72 93 91 95 99 100 100 100 98 97 96 91 90 89
46 44 46 50 42 36 29 27 24 22 20 18 16 15 14 14 14 14 13 13 12 12 11 10 10 11 13 19 51 88 97 100 100 100 100 99 97 94 92 94 93 82 76
36 32 30 28 26 24 24 24 22 21 20 18 17 16 15 15 14 13 13 14 14 14 14 14 16 21 31 46 66 84 98 100 100 100 100 100 100 100 99 97 93 84 73
44 40 31 25 22 20 18 16 15 14 13 12 11 10 10 10 11 11 11 14 18 20 28 37 50 56 70 88 89 96 98 100 100 95 91 86 93 92 86 87 80 80 83
33 30 25 21 18 16 14 14 13 12 12 11 11 11 12 13 18 29 37 40 48 77 84 90 97 90 93 100 84 70 95 92 91 94 93 91 93 97 91 93 87 82 76
30 25 22 20 19 18 16 15 14 13 14 15 16 19 21 20 22 46 58 60 70 86 100 100 100 100 100 100 100 100 100 93 92 93 96 95 91 88 87 79 75 64 42
30 29 29 28 26 22 20 22 28 31 37 34 33 35 32 32 34 56 77 89 91 92 92 93 95 98 99 100 100 100 99 99 94 92 88 86 84 79 72 63 38 18 12
38 40 38 30 26 26 32 42 54 56 52 52 52 54 52 48 47 57 76 91 98 100 100 100 100 100 100 100 100 98 94 90 87 83 82 80 72 56 28 15 10 9 12
49 50 39 29 32 43 59 68 71 78 84 81 81 78 75 74 75 76 78 83 89 94 96 96 96 98 96 94 92 90 88 87 84 75 56 34 19 12 10 11 13 15 16

GFSGL_500_rhum_108.txt.gz
RH
11 48 81 78 81 72 47 17 18 15 19 18 26 44 78 73 72 69 56 59 82 93 98 97 97 100 98 90 89 91 90 95 96 99 98 98 100 96 91 90 93 92 80
15 55 96 91 85 72 36 17 20 16 20 24 23 14 66 86 87 97 94 99 97 100 100 96 94 95 99 88 85 91 94 91 94 100 100 100 100 100 96 96 96 95 94
30 77 96 96 92 67 27 18 20 17 19 20 22 24 16 62 81 76 85 97 99 100 100 99 100 100 98 97 89 97 93 98 93 86 100 100 99 100 100 95 98 100 98
73 86 90 91 90 51 21 18 22 18 19 18 18 21 26 19 15 25 46 80 95 97 97 97 96 97 97 96 97 96 97 93 78 75 89 99 99 100 96 99 100 99 96
81 92 98 93 64 37 24 20 22 21 21 21 19 20 18 19 21 27 24 21 42 45 45 49 73 76 72 74 75 64 56 57 57 76 87 93 96 96 100 100 98 97 96
84 99 97 98 39 48 26 21 22 23 22 25 25 25 24 23 24 24 26 31 34 27 22 20 22 26 34 37 37 39 40 42 43 52 67 78 94 100 100 100 100 98 100
98 97 97 73 43 58 36 28 24 24 25 25 25 27 29 30 28 26 23 21 19 23 30 33 34 36 37 37 40 46 50 50 52 60 71 90 99 100 100 100 100 100 100
96 95 95 79 57 73 68 40 35 27 25 27 28 27 28 30 31 34 38 40 34 29 30 33 35 34 28 22 20 22 25 33 44 53 55 57 67 75 70 71 71 64 62
96 98 95 92 94 89 95 88 65 62 48 60 56 44 44 38 34 34 34 44 55 61 63 56 50 52 58 64 68 71 71 66 53 39 31 30 35 40 45 48 47 49 50
95 97 98 96 95 96 97 96 92 84 77 72 86 93 93 88 84 74 62 67 71 72 83 79 89 92 90 94 93 96 94 88 82 87 86 85 86 86 86 85 88 92 97
98 97 97 98 96 98 97 98 98 98 98 98 98 94 78 77 77 70 66 64 70 72 77 78 75 87 95 92 98 98 97 96 94 97 100 100 100 100 100 98 98 99 99
96 100 85 94 96 96 97 98 100 94 94 96 92 78 76 77 74 65 61 60 79 91 84 90 100 95 98 99 90 98 93 90 87 94 98 97 100 99 100 99 100 100 100
100 100 99 96 89 94 89 83 89 91 95 90 89 53 36 30 27 30 32 29 31 33 39 53 66 68 84 74 99 100 88 94 100 98 98 94 92 99 100 100 100 100 99
100 98 96 90 90 88 90 84 82 81 78 59 48 45 45 37 27 25 40 41 40 40 41 42 78 97 59 67 88 90 77 99 95 91 76 82 96 60 60 85 100 99 98
98 99 94 93 87 86 81 76 67 58 54 47 49 46 43 42 45 45 44 45 53 56 50 49 44 60 100 88 62 58 70 84 70 62 68 67 59 55 58 73 89 94 93
99 100 100 93 76 62 56 53 54 49 41 34 30 27 26 25 24 26 31 33 34 32 30 28 30 40 54 52 45 56 66 77 64 58 47 36 49 67 71 81 95 100 100
65 84 88 88 83 87 82 68 67 66 56 51 50 48 48 40 34 30 25 26 29 37 38 35 45 54 48 45 45 45 41 33 19 14 10 14 39 72 88 85 99 100 100
72 74 64 61 75 88 89 87 74 63 56 57 56 55 52 48 45 48 49 47 46 44 42 39 34 28 21 16 13 10 10 11 13 18 21 27 55 84 86 95 97 93 95
56 51 52 54 63 62 59 55 47 43 36 29 21 19 18 18 17 16 15 15 15 15 14 14 14 13 14 14 13 14 15 17 25 46 52 76 89 93 92 97 97 95 89
59 60 60 58 53 48 42 39 34 31 28 27 25 22 21 18 17 16 15 13 12 12 10 10 9 10 10 12 13 16 24 41 68 94 100 100 96 89 88 98 93 93 88
56 49 41 40 39 39 37 32 27 25 21 18 16 14 12 12 11 11 10 10 10 10 12 12 16 18 22 32 48 58 81 100 100 95 100 100 100 100 100 94 97 88 89
56 50 46 41 37 36 35 30 25 20 17 15 15 15 14 13 12 12 12 13 16 19 22 23 31 37 46 52 64 83 88 95 99 99 98 99 99 98 94 93 96 89 82
56 52 48 45 42 39 34 27 23 22 21 20 20 18 17 18 20 24 29 30 31 30 30 33 38 47 56 70 79 84 87 91 96 99 99 100 98 97 93 90 83 80 80
72 69 66 56 55 47 38 32 30 30 28 25 23 22 23 28 39 42 43 48 46 46 47 47 50 56 61 67 80 85 89 90 91 92 91 91 90 88 87 85 82 76 54
67 62 56 51 47 41 39 40 39 38 34 29 29 29 36 46 54 67 74 75 72 74 71 70 73 78 79 83 86 89 93 95 95 94 93 91 88 86 79 60 39 22 12
47 48 47 48 50 50 50 51 51 50 44 38 37 48 61 69 73 82 84 84 79 74 71 69 68 68 70 72 79 81 84 88 90 91 87 79 66 51 30 15 11 12 15

GFSGL_500_rhum_111.txt.gz
RH
14 13 13 9 6 7 18 38 62 76 27 17 15 18 21 50 73 47 41 46 52 75 69 97 97 97 96 96 95 97 93 92 87 95 98 98 95 96 99 95 99 94 100
13 10 7 8 6 9 22 40 73 74 22 18 14 21 22 23 80 87 80 77 63 51 49 63 97 97 97 98 96 97 87 89 99 90 83 98 100 100 99 100 98 89 92
6 3 3 3 4 13 34 43 89 73 19 18 14 18 24 19 40 93 98 98 95 94 96 91 90 96 97 98 96 93 93 93 100 100 98 100 100 99 98 98 94 91 90
3 3 3 3 4 20 45 53 98 63 19 19 15 17 21 26 17 30 80 86 95 93 93 98 96 95 97 97 98 94 98 98 98 97 98 97 98 97 96 96 94 95 89
8 9 4 11 16 32 43 67 99 47 19 20 18 17 22 23 26 25 19 20 41 85 96 96 98 99 98 98 97 98 98 97 97 95 93 81 73 73 80 83 82 87 83
47 28 18 30 43 63 63 97 95 31 20 22 20 20 18 23 23 22 21 24 26 23 26 27 40 47 50 62 71 74 73 63 49 44 46 42 50 52 68 82 88 99 100
86 67 44 44 59 66 89 100 71 28 20 22 22 22 25 21 18 19 18 19 20 22 24 26 28 28 26 26 30 30 31 37 40 42 44 48 64 68 85 100 100 100 99
87 85 69 70 65 83 99 94 52 33 22 22 23 24 24 26 28 30 33 35 38 35 27 25 25 27 30 34 34 34 35 32 30 28 32 31 31 38 44 52 59 62 61
94 80 78 82 86 98 96 60 60 39 31 30 26 26 27 28 28 29 30 31 33 35 40 43 45 43 44 44 43 45 48 56 68 71 73 74 75 79 82 80 75 70 69
92 94 95 96 98 96 84 74 74 72 53 49 42 31 31 56 60 86 80 62 58 49 68 86 88 89 88 77 76 79 88 92 98 100 100 100 100 100 100 99 100 100 99
99 98 95 98 97 97 96 95 95 96 97 93 94 95 95 93 91 100 92 89 83 73 69 72 78 81 88 92 86 80 86 100 96 94 94 100 97 94 98 100 100 100 100
95 99 99 96 97 96 98 95 97 97 97 98 98 97 96 97 100 88 74 73 71 67 64 87 100 100 77 78 93 96 86 94 98 95 94 100 97 100 100 100 99 100 100
100 98 98 98 98 98 98 99 98 97 95 100 95 96 95 95 78 58 44 37 30 26 29 34 46 75 49 74 97 100 100 100 100 100 100 100 100 99 100 99 96 97 96
99 97 97 96 98 99 97 96 96 96 96 97 96 96 95 96 85 74 56 46 39 33 33 34 54 34 35 43 76 59 92 100 99 90 71 98 84 74 94 91 70 71 72
97 97 99 100 100 98 87 89 93 91 88 82 76 81 76 70 73 66 53 54 53 47 42 40 44 52 77 69 55 53 64 46 44 57 85 82 67 79 82 75 67 48 37
97 99 98 99 97 99 96 98 97 91 78 69 60 56 54 54 54 52 49 48 47 43 35 33 33 32 33 35 34 34 39 44 46 64 72 62 52 46 33 18 13 14 20
98 100 100 100 95 93 96 97 84 72 68 64 58 49 41 37 37 38 37 35 35 36 33 34 33 33 37 40 37 37 38 41 47 48 30 14 12 11 12 14 17 19 32
98 99 96 95 94 98 100 99 100 97 92 86 84 75 69 63 60 57 55 54 56 55 49 47 48 46 45 44 37 27 16 13 12 13 13 13 12 13 16 22 27 44 60
58 64 73 77 78 77 88 100 100 100 98 95 88 68 61 55 50 45 42 35 28 26 27 23 22 19 18 18 17 16 13 11 10 10 11 12 14 18 26 39 68 81 82
58 66 66 65 60 56 53 54 52 50 48 46 42 38 36 33 32 32 30 27 25 22 18 16 13 11 10 10 10 10 10 10 11 14 19 20 22 29 43 64 78 84 88
58 57 55 48 43 39 38 37 34 33 32 31 29 28 26 24 23 21 16 14 13 12 12 12 11 11 12 13 14 14 15 16 20 26 32 40 53 62 72 79 85 84 87
54 60 61 61 59 56 53 47 42 40 37 37 36 36 30 25 20 17 16 16 16 15 14 14 14 17 18 23 27 30 28 31 33 41 51 65 71 74 77 80 83 85 84
45 46 47 49 52 53 52 50 48 45 44 43 43 39 33 28 24 22 21 20 19 18 19 21 26 29 37 47 47 50 51 52 58 62 66 68 72 76 79 80 79 76 76
61 67 69 64 61 61 63 62 62 63 57 54 49 43 37 34 32 30 27 26 26 26 25 30 38 45 56 68 78 82 81 82 79 77 76 76 74 72 70 70 70 69 64
73 76 71 72 76 76 75 74 70 63 56 50 46 43 42 41 40 39 37 34 34 33 37 44 61 74 79 80 79 76 74 81 83 78 76 74 73 73 70 68 62 53 44
54 53 55 55 55 54 50 45 43 42 41 43 43 44 47 49 50 50 50 51 56 58 66 74 79 82 87 91 94 92 90 85 78 75 76 76 71 64 56 44 34 25 14

GFSGL_500_rhum_114.txt.gz
RH
20 17 15 18 16 14 12 9 7 6 6 15 60 72 18 17 18 16 41 55 44 66 80 94 72 97 96 96 96 96 95 97 100 99 91 93 96 99 99 98 93 100 100
15 13 13 13 14 14 14 14 12 8 7 16 57 69 18 19 20 20 30 76 70 48 63 54 72 93 97 97 97 97 96 96 92 89 94 90 100 100 100 96 92 100 100
16 16 16 16 15 14 13 13 10 8 8 13 64 62 19 19 18 24 20 65 91 80 85 70 59 63 64 95 97 96 97 97 97 97 97 99 98 98 100 99 99 99 99
14 12 11 10 7 7 8 6 5 5 10 17 69 56 19 19 17 24 19 32 68 87 95 100 95 85 82 92 96 98 95 97 94 96 98 98 98 96 96 97 96 94 95
6 6 4 3 5 2 3 3 3 5 12 14 75 52 20 20 17 20 26 19 20 31 80 97 98 100 98 100 94 97 96 97 97 97 97 97 98 98 96 94 86 80 77
7 6 6 5 5 4 2 4 6 25 26 31 88 46 21 20 18 18 21 28 31 27 25 43 83 97 99 98 98 98 95 89 96 97 97 82 70 75 78 68 67 68 69
2 2 2 15 27 22 8 17 42 56 60 70 96 39 21 21 20 21 26 24 23 24 27 29 26 28 36 43 41 51 58 59 45 48 43 42 44 44 48 49 50 50 50
21 29 61 71 50 25 23 37 74 75 80 80 99 31 22 22 23 25 27 28 27 26 23 20 21 26 31 34 35 40 38 40 46 44 41 38 36 35 35 36 37 38 42
88 89 86 97 74 56 72 78 97 86 82 83 92 26 23 23 23 26 28 30 31 33 36 40 40 35 30 31 35 36 40 41 44 46 49 55 62 74 85 87 81 82 84
51 81 79 85 99 80 87 99 94 71 89 100 69 34 26 24 24 25 26 28 29 30 32 33 38 46 53 59 60 68 75 69 64 79 84 85 94 98 99 99 99 99 100
99 98 86 88 93 98 97 99 85 90 99 96 66 38 35 30 27 28 29 54 63 84 79 83 83 77 80 84 84 88 86 84 86 92 94 96 96 98 98 99 99 100 100
99 98 96 81 87 89 89 91 99 97 97 87 71 55 47 52 39 41 36 79 86 99 100 100 100 97 91 98 99 100 98 100 96 100 100 100 100 100 100 100 100 100 100
99 98 96 98 97 98 97 98 97 97 90 87 90 97 97 98 99 96 96 98 96 98 90 81 58 48 49 78 100 99 100 97 64 100 100 100 100 100 100 100 100 98 97
99 99 98 99 96 99 98 98 98 92 98 98 98 98 98 98 100 99 99 100 100 70 86 65 100 91 100 74 42 78 82 56 44 46 52 47 49 50 86 59 54 57 69
100 99 98 98 98 98 98 98 99 98 99 98 99 99 93 100 100 98 97 97 94 87 82 74 60 58 62 57 50 55 68 53 58 100 56 40 37 38 35 38 52 71 68
98 98 99 100 99 98 99 98 98 99 99 99 99 99 99 99 100 100 99 99 97 95 92 84 75 71 66 56 47 40 39 42 45 48 50 54 52 49 44 33 21 15 13
100 100 97 98 97 98 98 98 99 99 99 98 98 98 99 87 76 67 67 66 60 54 52 47 45 41 40 39 40 42 47 50 47 42 33 21 16 16 16 14 13 11 11
100 100 98 100 100 100 100 99 100 99 98 96 98 99 99 85 73 62 57 55 54 58 62 60 58 57 56 53 47 38 30 26 21 18 18 16 13 11 10 9 10 10 12
92 94 97 97 98 100 100 94 96 98 97 98 100 100 99 98 100 100 96 85 75 66 56 45 34 28 25 23 22 21 18 16 14 11 10 10 10 10 11 12 12 13 18
54 55 69 77 83 96 96 96 92 90 93 96 92 83 80 68 61 52 45 36 32 30 30 28 25 22 21 17 16 14 13 11 10 11 12 13 15 18 21 22 25 28 31
63 63 62 59 52 51 51 53 56 59 60 54 46 38 34 31 29 29 28 29 28 28 26 24 20 17 17 15 14 14 14 14 14 15 16 21 29 37 38 42 46 49 52
42 42 45 49 54 59 59 56 54 52 49 48 47 45 42 40 38 39 40 39 37 34 30 26 23 20 18 18 18 18 19 19 18 20 22 34 48 57 64 69 69 71 76
33 31 29 32 36 38 40 43 48 50 51 52 51 50 50 50 51 50 49 50 48 45 41 37 32 26 25 24 24 24 24 24 26 34 46 52 72 81 80 78 76 80 82
44 44 44 41 42 42 43 48 50 54 60 60 60 62 63 68 69 65 59 54 49 44 40 38 35 34 34 35 37 37 39 39 44 54 58 62 75 84 89 90 90 87 82
54 55 55 53 51 57 64 64 66 69 68 69 71 74 71 65 60 55 50 46 44 42 42 42 44 48 55 53 53 53 58 68 73 76 81 86 91 91 88 86 85 77 62
71 71 67 62 55 50 46 44 42 41 42 42 44 44 44 42 42 41 42 45 48 49 52 52 59 63 60 60 58 61 71 90 92 91 92 91 88 81 66 47 36 28 21

GFSGL_500_rhum_117.txt.gz
RH
40 37 37 33 31 29 25 19 17 22 16 8 8 6 8 34 67 44 18 20 19 24 56 84 99 86 82 89 98 97 96 96 97 97 98 97 96 96 96 95 94 96 96
83 68 35 29 23 20 18 18 21 18 13 9 8 7 10 26 67 47 18 18 24 24 70 62 73 74 98 95 97 96 97 96 96 96 97 97 96 96 96 97 99 98 97
21 23 24 21 17 15 13 13 12 14 14 13 14 12 11 28 72 47 18 20 24 22 45 97 58 54 63 83 94 98 97 94 96 97 96 96 96 96 96 93 95 97 100
18 18 24 28 18 15 16 15 13 14 13 12 11 10 9 27 72 43 19 21 23 20 39 84 97 90 88 78 88 90 95 97 92 96 97 97 97 96 97 97 97 98 100
18 19 18 18 16 15 13 13 13 13 9 11 10 11 10 24 74 45 19 20 21 25 18 23 87 99 100 98 89 87 91 95 96 97 97 97 97 97 98 97 97 98 99
10 11 11 10 6 6 5 5 7 6 6 20 9 14 16 23 72 42 20 20 19 25 26 26 52 78 98 97 99 98 98 99 97 97 98 98 98 98 98 93 81 81 84
7 8 8 6 5 6 6 6 4 3 10 29 26 21 26 30 71 40 21 21 20 23 21 25 31 28 50 96 99 97 98 98 97 97 96 95 95 91 85 70 63 58 51
4 6 6 6 3 2 2 2 4 8 42 49 49 26 44 60 86 39 21 23 24 24 23 23 22 26 31 34 53 62 62 62 67 75 63 46 49 49 49 47 40 35 34
2 2 2 2 21 38 57 60 68 50 64 66 71 54 73 78 100 32 23 26 27 28 30 32 30 24 20 23 30 35 39 42 44 45 42 38 39 41 47 60 66 71 86
3 3 5 5 75 96 89 90 90 73 59 67 92 100 100 75 100 31 25 25 29 30 33 33 33 40 42 45 43 43 42 43 46 47 46 48 55 65 75 85 99 100 100
27 44 45 44 84 92 98 98 80 95 91 92 98 100 85 90 100 38 28 25 26 28 29 29 29 32 33 36 42 60 73 79 83 93 96 97 98 100 100 100 100 100 100
76 66 75 100 99 96 88 100 91 98 97 99 98 88 81 100 98 51 31 27 26 28 28 30 48 80 82 84 88 85 82 85 92 95 96 93 95 97 100 100 100 100 99
91 97 100 99 99 95 95 97 98 94 92 93 83 98 100 98 98 59 38 32 30 29 30 41 75 95 97 98 92 86 73 79 96 92 94 98 98 97 67 83 100 91 68
98 98 98 97 98 98 99 90 98 96 99 85 90 98 99 98 96 67 59 71 97 98 74 85 98 98 96 85 85 83 96 84 67 62 74 96 100 99 72 59 90 90 48
100 100 100 98 98 98 98 98 100 98 99 99 98 100 95 94 97 97 98 99 99 96 99 99 100 99 100 99 100 99 100 95 92 91 80 78 70 56 40 40 43 40 40
99 99 100 100 100 99 99 99 99 99 99 99 100 98 99 97 99 98 99 99 100 99 100 98 99 99 98 98 98 98 98 98 93 74 56 46 44 44 45 42 33 23 19
100 100 100 100 99 100 100 100 100 99 99 98 99 99 100 100 100 99 100 100 100 100 100 100 100 98 97 95 87 76 68 62 56 53 56 50 37 28 22 19 16 13 12
98 99 100 100 100 100 100 99 99 99 100 100 99 99 100 100 99 100 100 99 99 98 97 96 98 96 85 78 74 65 65 63 50 35 25 23 21 18 17 16 13 12 11
84 96 98 98 97 100 100 100 98 99 99 99 98 99 98 98 98 96 97 98 98 98 98 98 96 96 92 79 47 34 30 28 26 24 21 16 16 15 13 12 12 12 13
69 71 86 96 100 100 99 100 100 100 100 99 97 98 100 100 99 98 98 99 98 97 96 94 90 77 46 32 29 26 22 20 19 19 18 16 15 15 14 15 15 16 17
50 50 52 65 75 83 90 96 94 87 83 86 94 98 100 96 93 83 74 79 69 41 30 30 31 32 32 32 30 28 26 23 21 20 20 20 19 19 19 20 21 21 23
42 44 45 46 43 43 48 53 61 66 62 59 54 50 47 43 42 40 40 41 41 40 40 40 40 41 43 42 43 42 39 36 33 29 28 27 26 26 27 28 29 31 37
20 22 26 27 30 38 43 43 43 39 40 43 47 52 55 55 54 53 52 50 50 49 48 50 50 48 47 48 49 46 42 40 37 35 34 35 33 38 39 48 50 56 62
18 17 17 20 26 24 28 36 42 43 40 38 40 46 50 51 48 48 50 50 54 56 58 62 61 59 56 52 48 43 40 40 39 38 41 45 50 53 56 59 63 79 80
24 24 26 26 20 21 21 30 40 45 49 49 49 47 44 44 41 39 43 45 48 50 52 49 47 44 39 38 37 40 42 47 49 54 58 59 59 57 64 80 86 83 73
41 43 55 55 53 51 50 53 64 67 63 57 51 46 41 38 35 30 27 24 23 25 30 33 33 41 44 47 51 57 63 68 68 67 69 77 83 84 81 71 51 32 17

GFSGL_500_rhum_120.txt.gz
RH
100 94 89 95 88 79 73 35 34 34 26 14 13 20 21 7 10 14 29 55 63 21 16 20 25 55 69 89 89 86 96 98 97 97 96 97 97 96 99 100 97 90 97
84 85 82 86 87 64 57 36 34 32 29 22 16 20 17 8 8 10 29 54 65 23 16 18 23 44 69 61 88 94 98 98 97 97 97 97 98 97 98 97 95 97 97
87 76 71 61 59 56 54 62 54 29 26 22 21 18 14 10 8 9 16 52 69 23 17 17 22 29 78 60 52 96 90 96 98 98 98 97 97 95 96 97 97 97 97
78 72 43 32 40 64 61 36 27 22 17 14 14 14 15 15 13 12 17 58 73 23 17 21 22 29 81 93 59 64 56 75 95 97 97 97 96 96 97 97 97 97 98
24 28 38 42 19 19 22 29 25 18 15 16 16 15 14 15 13 13 22 67 81 24 17 19 24 19 35 89 96 99 98 86 86 83 96 97 97 97 97 97 97 97 99
7 6 8 16 32 35 27 19 19 22 18 16 15 14 18 20 11 10 22 78 85 26 18 17 25 25 35 77 98 96 98 98 97 98 93 96 98 97 97 98 98 98 97
50 21 30 44 40 19 14 15 15 14 13 11 12 10 14 16 13 9 22 81 89 28 20 17 20 21 26 36 80 98 97 97 97 98 97 97 97 100 99 99 99 98 99
4 13 14 4 4 6 6 8 7 7 6 6 5 18 12 18 24 14 34 84 93 28 21 18 20 23 23 25 33 78 96 98 98 98 100 97 99 100 98 100 100 91 63
4 4 5 6 6 7 7 6 6 5 4 4 5 8 28 48 38 24 50 82 100 28 22 22 20 21 21 20 24 33 42 52 70 86 84 84 90 93 63 58 56 52 48
4 4 4 4 3 3 3 2 2 2 3 3 92 70 77 72 57 29 69 90 100 29 24 26 28 32 32 34 32 25 28 35 45 54 58 57 55 53 49 47 51 58 63
4 3 2 2 2 2 4 5 46 51 56 84 52 93 82 81 70 73 92 70 100 41 24 28 30 35 36 34 36 35 35 43 44 44 44 45 47 51 58 61 62 68 82
10 10 23 13 31 38 32 48 75 76 97 90 93 98 83 78 75 78 98 82 97 73 25 27 30 34 36 36 33 35 39 38 41 54 72 82 86 87 95 96 98 100 100
49 56 60 54 52 59 88 99 99 77 86 84 96 89 68 84 87 98 99 89 100 94 33 31 34 36 34 33 33 39 88 97 100 99 97 94 100 100 100 100 100 100 99
82 89 67 79 90 87 98 98 87 94 98 91 99 100 94 94 94 99 86 93 100 100 68 44 37 45 43 41 44 60 84 99 97 98 93 75 71 91 99 98 98 96 100
91 88 100 95 99 99 99 99 99 95 81 93 93 97 98 98 96 100 88 91 97 97 96 84 60 74 94 95 93 86 94 100 99 98 92 98 100 98 96 96 94 92 84
99 96 98 100 100 98 99 99 99 99 99 99 99 99 98 99 100 98 100 98 100 99 99 100 99 100 99 99 100 100 100 100 100 100 100 100 98 99 96 87 67 51 49
96 100 100 100 100 100 100 100 99 100 100 99 99 99 99 100 99 100 99 100 100 99 99 97 99 99 99 100 100 100 100 100 99 99 99 98 92 87 83 66 42 29 24
91 91 99 100 100 100 100 100 100 100 100 100 99 99 100 100 98 100 100 100 100 99 100 100 100 100 100 100 100 99 98 98 97 98 98 97 95 70 34 26 24 23 20
80 88 87 93 97 99 100 100 100 100 100 100 100 100 100 99 100 99 99 99 100 99 100 99 99 99 100 99 98 99 100 98 98 97 86 60 39 28 25 23 21 21 19
67 64 69 79 91 94 96 97 98 100 100 100 100 100 100 99 100 100 98 98 99 100 100 100 100 100 99 97 96 96 92 79 68 48 31 25 24 24 24 24 24 26 27
59 56 55 59 63 67 89 98 99 99 98 98 98 98 98 98 99 99 100 99 100 100 99 99 100 100 94 82 77 80 65 45 36 35 37 37 38 40 38 37 36 34 33
50 45 43 41 40 46 52 58 68 77 85 93 100 100 100 100 100 100 98 94 78 67 58 51 47 44 44 44 42 43 44 45 45 46 47 49 48 47 44 43 40 38 37
50 40 30 22 20 20 23 28 35 38 42 47 57 63 68 73 82 88 89 77 68 59 54 52 51 51 50 50 49 46 44 45 46 49 53 52 50 45 39 34 31 35 40
47 37 23 20 18 17 17 17 16 17 18 17 21 30 37 43 46 46 50 54 53 51 49 50 49 46 44 41 40 42 44 45 46 45 43 40 36 32 30 33 41 55 60
51 42 35 31 28 25 22 19 18 20 17 15 15 16 25 38 50 51 53 53 52 47 43 40 38 35 34 32 30 27 23 19 18 18 22 27 31 36 41 52 62 69 75
49 50 47 42 37 31 28 26 24 24 27 37 34 35 46 59 60 59 56 52 48 44 40 37 34 26 19 16 15 14 15 17 23 32 38 45 48 57 62 67 53 39 36

GFSGL_500_rhum_123.txt.gz
RH
97 98 93 88 95 75 66 61 74 75 85 64 33 32 34 22 13 11 19 12 11 16 30 47 38 16 17 23 52 76 87 95 88 99 99 98 98 96 97 98 96 93 97
100 98 98 95 89 80 72 79 79 71 85 82 45 34 34 21 13 16 23 15 11 13 26 38 44 17 16 23 24 61 71 88 84 94 100 98 93 91 97 98 96 97 96
77 78 76 68 69 71 80 86 86 82 78 84 65 36 34 27 14 15 21 12 11 11 20 30 47 19 16 22 29 50 66 59 90 95 97 97 94 96 97 98 96 93 96
81 68 50 45 66 61 64 61 69 76 74 57 39 38 36 26 24 22 20 15 10 11 16 30 49 20 18 22 24 49 88 61 56 68 90 96 98 98 98 97 96 97 97
72 63 55 61 60 68 66 60 60 63 64 49 54 79 40 18 18 17 15 15 13 14 15 33 49 20 19 24 20 27 81 91 75 78 83 98 95 98 97 98 97 96 96
59 70 68 48 24 45 60 49 43 26 38 47 47 22 15 15 14 14 18 19 14 15 16 33 51 20 19 23 26 26 48 89 96 98 97 97 98 97 97 97 97 97 97
49 54 52 51 24 16 23 23 44 26 21 21 25 22 18 17 17 19 17 14 17 15 19 36 56 22 20 18 25 24 30 87 99 98 98 98 98 98 98 97 97 98 99
31 24 10 30 16 39 38 37 39 46 42 29 19 18 16 15 13 12 11 14 23 15 19 29 66 23 20 18 22 22 31 52 83 96 99 98 98 98 98 99 98 98 98
12 10 10 8 6 4 7 8 5 11 15 15 13 12 10 8 7 15 9 11 26 18 20 34 74 23 21 20 20 21 23 31 58 91 98 99 99 98 98 98 99 99 98
9 8 7 6 5 5 6 6 6 6 6 6 6 6 6 5 6 4 10 48 39 31 23 46 85 25 24 22 21 23 22 22 29 57 56 70 84 91 91 95 94 88 70
11 8 5 4 4 5 5 4 4 4 4 4 4 3 3 24 82 87 98 68 76 44 32 54 100 34 27 26 29 36 39 39 41 41 37 36 43 50 51 51 50 50 48
7 6 7 6 3 3 5 6 4 2 2 3 9 12 12 18 51 91 88 92 86 55 42 76 100 59 27 31 33 36 38 39 39 37 37 43 53 61 67 73 77 82 92
12 16 17 5 4 4 4 3 3 12 17 28 95 100 98 100 100 96 95 88 77 61 79 85 85 98 37 33 42 42 43 44 41 42 47 89 94 57 69 87 94 100 100
45 48 51 53 33 34 35 20 39 44 41 82 99 100 95 98 96 97 93 96 86 77 87 91 78 82 100 46 43 43 42 47 50 50 61 95 95 96 99 100 100 100 100
51 53 46 49 76 64 65 64 65 71 98 98 93 98 96 98 94 85 97 99 86 85 96 100 86 81 82 87 96 79 55 50 70 72 67 74 76 91 100 99 99 99 99
63 68 59 57 81 97 85 100 99 97 99 100 95 99 100 97 99 99 92 92 100 99 99 98 96 98 98 99 99 96 97 99 100 100 100 100 100 100 100 100 100 100 100
77 75 85 100 98 100 100 100 100 99 99 99 99 100 100 99 99 99 99 99 100 99 99 99 96 95 100 99 100 100 96 100 100 100 100 100 100 100 100 100 98 99 98
85 80 73 68 98 100 100 100 100 100 100 100 100 100 100 100 99 99 99 100 100 100 99 100 99 98 99 100 100 100 99 100 100 100 100 99 99 99 98 97 98 97 92
88 87 76 78 80 91 100 100 100 100 100 100 100 100 100 100 100 100 99 99 99 100 100 100 100 100 99 100 99 99 97 98 99 98 99 99 100 100 99 98 87 70 52
77 68 64 66 66 67 75 94 100 100 100 100 100 100 100 100 100 100 99 100 100 100 100 100 100 100 100 100 100 100 100 99 99 100 99 100 88 70 57 51 56 54 46
88 84 75 64 56 52 55 67 78 94 100 100 100 100 100 100 100 100 100 100 100 100 100 100 100 100 100 100 100 100 100 100 100 100 100 98 95 90 84 63 52 48 48
72 68 65 59 51 47 44 38 44 54 68 86 97 99 99 99 99 100 100 100 100 100 100 100 100 99 97 98 97 96 95 89 79 69 63 57 54 54 54 51 48 49 49
87 79 69 64 59 51 39 25 20 18 22 30 42 54 77 91 95 96 97 97 97 97 98 98 98 100 100 100 100 97 92 86 80 78 75 70 60 49 43 40 36 32 26
90 83 76 68 61 54 48 39 26 21 18 18 18 18 18 19 23 27 37 59 82 94 98 97 96 98 96 91 83 74 68 61 56 51 43 36 34 30 26 20 14 14 14
63 69 70 68 67 63 58 51 44 34 26 22 19 17 15 14 13 13 16 29 39 44 46 50 54 56 57 57 55 52 48 42 39 37 34 28 20 17 16 16 19 22 26
67 58 52 51 53 53 52 50 49 49 45 39 34 27 22 18 15 14 18 24 32 39 47 54 58 58 55 52 48 44 40 37 34 30 25 23 23 25 29 33 36 39 39